GFSCGP_con_3kmhel_024.txt.gz
Helicity
-13 -11 -40 2 35 57 68 57 14 -3 -14 76 35 28 106 117 69 45 30 17 11 8 -41 -24 10 19 -8 -14 -14 17 29 38 60 73 85 92 96 80 109 142 141 138 147 155
-20 -5 -14 43 40 28 46 38 49 -8 24 30 24 56 79 114 62 51 96 53 15 -27 -43 -1 -2 21 39 55 41 43 53 106 120 150 161 142 134 132 162 159 154 144 166 181
-4 -26 44 32 40 32 53 67 29 24 15 64 68 74 59 30 -1 -11 -0 49 53 61 30 11 48 32 33 72 94 108 113 150 186 217 291 277 286 255 233 220 213 187 186 195
-13 -35 -2 83 55 22 82 -6 -9 38 42 17 50 21 25 44 42 23 70 49 48 46 53 74 119 78 54 74 81 96 150 213 230 278 310 328 325 321 223 238 239 224 213 231
-6 58 56 23 44 55 -15 -9 10 38 53 77 55 50 17 95 72 56 69 143 139 94 136 156 141 151 171 115 112 155 190 222 280 310 316 322 311 329 309 300 285 267 256 251
-11 35 21 15 59 53 62 33 82 69 69 62 51 57 10 56 152 129 81 107 166 176 171 160 167 203 190 196 189 181 240 235 285 293 302 312 351 368 387 349 316 314 324 315
23 24 24 12 19 35 66 107 75 67 83 20 62 66 -23 -37 17 60 104 163 252 285 293 280 284 306 285 266 240 256 270 261 298 278 290 289 357 426 370 393 405 377 371 361
22 -28 14 16 43 23 45 49 70 26 40 45 66 25 17 14 10 -4 -12 40 110 130 286 331 327 369 313 312 278 285 317 347 307 228 260 354 308 366 403 451 469 441 443 447
18 -20 44 45 62 48 36 67 39 89 76 71 67 71 44 37 12 10 22 10 33 86 123 167 277 330 306 292 307 324 359 358 331 273 378 450 407 422 452 459 475 508 489 485
8 -2 48 84 74 51 57 45 87 93 72 52 69 67 14 30 27 45 54 17 -10 2 32 61 110 211 275 276 273 307 330 372 355 357 340 349 392 452 498 567 548 519 536 513
91 25 5 86 61 68 92 97 110 99 109 71 47 47 57 13 17 30 35 26 8 1 22 44 60 93 174 198 209 261 296 350 371 387 363 341 379 436 470 498 503 532 536 437
58 15 -38 14 76 79 67 61 107 129 121 152 98 82 69 38 17 40 55 14 29 28 26 35 39 37 73 103 109 128 213 309 335 349 403 378 408 414 431 451 463 468 428 419
79 39 -52 4 52 74 29 68 157 184 196 139 124 91 53 40 31 22 39 42 34 40 44 34 58 70 94 164 157 216 212 221 304 382 413 463 444 428 428 453 413 413 445 440
161 121 77 24 72 91 80 123 131 141 136 93 114 39 4 -4 37 29 41 53 60 47 29 51 64 76 130 156 166 174 204 283 354 394 410 446 431 431 372 369 434 451 456 442
115 49 108 110 81 102 88 98 110 121 111 107 79 24 -15 20 50 61 45 79 98 98 84 70 69 82 101 115 145 161 218 301 380 380 347 324 374 355 378 404 441 461 455 466
161 83 109 185 194 138 131 94 96 101 122 111 97 55 61 83 83 94 126 175 207 220 235 219 183 140 117 82 103 153 227 311 378 387 355 340 321 382 398 448 460 455 472 522
168 154 126 83 153 163 84 120 141 153 194 183 158 88 146 150 150 137 197 232 259 276 284 269 236 212 205 155 113 118 171 231 266 277 286 324 395 454 472 499 579 663 718 698
258 258 179 106 199 61 117 154 156 163 145 160 178 156 197 221 253 307 305 279 296 260 237 215 179 173 185 155 152 143 148 183 227 258 296 352 411 424 466 592 695 685 712 859
206 235 195 154 141 155 150 188 182 146 83 107 131 204 295 334 393 372 276 245 187 145 112 104 123 145 177 173 134 152 187 214 280 317 352 353 382 462 581 701 711 799 980 441
203 192 179 213 169 142 118 138 212 219 128 132 158 162 188 191 205 138 137 136 133 118 135 168 193 202 205 155 120 150 179 236 269 282 305 350 432 535 494 632 613 394 234 201
266 244 193 259 195 172 126 154 206 238 119 210 193 134 121 112 108 127 125 148 154 176 187 195 222 210 179 163 161 180 186 216 199 240 259 232 212 195 185 158 138 144 149 157
279 267 236 270 233 173 210 315 245 135 108 167 179 151 152 158 175 175 183 183 181 207 221 208 213 199 163 155 198 232 228 158 170 159 161 168 161 160 164 144 128 114 116 117
247 221 197 207 173 189 156 172 113 113 109 100 182 141 198 219 180 180 189 212 230 227 239 214 204 237 241 242 219 232 181 176 176 181 182 179 152 124 109 108 104 113 118 136
270 256 247 245 182 164 126 107 79 89 80 147 146 181 187 246 223 246 265 262 267 263 272 263 291 304 300 283 275 241 201 173 176 193 187 168 158 144 132 123 122 125 132 149
242 303 241 220 194 157 81 79 89 133 187 237 257 235 269 330 297 294 305 313 302 308 320 313 318 301 292 287 303 243 194 169 190 183 175 161 136 127 120 116 110 124 129 143
278 225 290 219 150 182 103 135 166 215 228 244 347 356 329 340 346 349 362 344 345 368 345 347 324 315 305 302 267 237 203 175 164 155 131 112 103 101 95 90 87 88 86 105

GFSCGP_con_3kmhel_027.txt.gz
Helicity
11 -9 -13 -45 -0 25 39 33 35 17 -1 18 22 23 81 58 52 53 49 54 42 29 39 31 27 27 17 6 7 5 -10 -27 -41 -42 -42 -34 -12 37 46 61 87 115 120 117
-0 10 1 7 31 21 34 27 40 18 15 16 22 47 27 95 58 60 52 40 41 23 -12 -5 10 4 22 37 34 29 34 43 45 27 26 42 74 94 102 122 130 137 148 151
24 2 -16 12 27 10 28 26 17 5 5 43 22 34 32 58 19 8 23 28 16 23 13 -9 -1 25 10 7 13 5 6 32 47 74 112 131 175 145 152 170 169 178 182 199
-9 -10 -20 -9 30 27 45 48 -19 -0 17 34 37 53 17 79 50 23 4 7 21 15 12 7 34 48 64 54 19 30 53 90 90 125 143 176 179 189 170 173 196 224 212 235
11 33 -11 -8 -10 57 39 51 -8 -4 31 46 33 14 14 25 46 106 94 56 20 8 20 39 40 32 44 51 59 60 73 105 133 155 164 174 175 209 202 243 293 267 254 232
-6 16 32 -9 25 40 30 33 20 36 50 42 48 41 5 15 29 51 110 97 85 65 55 36 30 60 73 79 77 81 97 105 142 174 212 190 226 271 273 304 345 312 297 285
25 5 43 46 48 93 93 98 65 42 75 43 62 58 5 -28 -18 -17 6 81 104 119 95 102 114 113 114 135 143 145 132 152 188 209 257 242 238 313 322 383 406 403 367 314
75 61 34 27 20 70 104 65 40 11 51 66 66 26 27 18 16 -11 -3 9 6 33 80 119 116 138 153 176 163 187 192 182 226 263 241 273 258 311 331 328 354 405 386 340
135 33 21 9 24 57 62 74 70 91 76 50 60 34 2 22 21 27 37 25 25 -5 17 63 72 97 141 176 187 220 212 183 208 257 247 228 270 289 345 347 370 396 387 380
106 83 22 44 52 109 66 76 91 92 47 26 41 50 41 10 15 35 27 35 26 29 10 31 35 60 100 170 142 135 150 195 211 207 230 258 270 274 356 349 337 372 388 377
110 69 38 42 27 61 84 82 101 94 94 45 46 61 47 37 31 16 29 9 -21 -21 -18 -0 37 60 82 111 156 149 119 114 140 194 226 290 312 281 309 322 340 374 409 442
81 78 42 15 64 86 98 88 91 100 46 89 85 80 90 38 20 19 17 22 1 -0 -16 -2 33 35 7 21 40 38 53 86 137 212 216 225 258 277 284 309 348 411 403 386
117 113 111 47 15 100 97 96 107 138 91 61 51 115 92 62 32 30 15 30 34 37 34 27 27 17 4 10 30 39 64 88 133 155 154 189 216 229 215 222 261 289 337 399
211 127 105 35 20 73 74 94 99 104 119 107 140 57 36 34 29 7 24 32 49 58 78 90 72 50 43 42 40 74 106 121 135 140 157 186 200 193 191 163 181 270 333 387
102 94 100 73 61 112 74 90 102 115 140 135 8 118 47 56 28 31 27 70 108 123 133 122 106 112 102 84 82 110 121 120 117 125 133 155 180 193 211 234 316 348 355 379
140 108 135 86 74 44 45 65 53 49 147 96 71 82 61 88 76 65 58 90 164 210 228 234 227 212 207 173 142 137 132 125 117 123 120 129 149 159 203 268 299 317 351 412
141 188 174 104 102 100 -12 34 101 145 158 153 141 136 141 117 129 131 133 166 200 241 264 270 256 235 206 190 168 150 120 114 125 134 129 126 145 171 204 240 279 320 385 528
96 176 206 147 193 28 98 121 96 77 86 152 190 151 122 159 246 255 220 215 275 294 293 270 226 194 174 129 122 125 160 168 154 147 146 147 164 192 217 262 324 416 535 680
114 178 164 172 123 149 109 134 148 133 29 127 142 130 165 264 316 320 314 289 275 235 201 182 158 140 136 144 133 143 132 123 147 165 173 170 171 196 210 257 267 322 380 367
184 169 166 180 151 80 100 112 159 190 73 211 158 155 238 269 232 205 195 180 187 179 156 141 132 130 154 162 135 157 134 147 164 165 172 170 178 197 203 199 150 109 133 128
235 252 221 244 159 119 121 186 200 217 188 110 146 215 238 190 112 179 167 182 178 150 131 128 162 211 183 137 151 188 169 188 162 161 168 155 132 117 106 112 110 116 119 115
232 260 229 256 213 84 190 284 245 185 144 99 140 214 217 166 195 223 185 187 167 164 170 197 241 235 201 173 175 189 205 154 161 176 167 153 140 133 130 133 125 113 115 107
203 194 228 190 174 198 97 171 200 195 120 81 159 197 225 218 191 206 220 185 185 211 250 232 237 252 228 207 182 194 184 189 196 186 180 160 142 138 133 142 132 116 115 111
197 181 209 242 162 152 156 146 178 143 86 81 124 229 219 222 231 247 230 231 255 249 243 234 248 241 242 227 238 240 217 196 196 202 184 162 154 136 131 112 111 114 123 122
155 240 217 177 137 171 137 156 153 129 107 161 214 217 231 290 285 290 287 285 290 287 285 270 266 268 267 264 296 271 235 197 201 171 156 147 136 139 128 124 121 117 123 138
223 213 262 168 155 262 177 190 158 149 127 171 281 284 261 288 332 332 346 323 317 327 313 320 298 288 270 313 327 293 251 209 176 163 144 138 126 119 107 97 89 107 100 114

GFSCGP_con_3kmhel_030.txt.gz
Helicity
15 -6 15 -1 -16 13 4 10 18 29 25 13 20 4 18 71 26 34 27 23 17 15 3 1 12 10 14 15 19 25 16 -6 -35 -51 -50 -35 -33 -13 -10 16 31 56 57 58
5 15 -18 3 -7 -12 -13 -3 24 31 27 22 21 8 6 78 57 29 26 6 10 5 11 4 -8 -6 -1 11 13 10 8 3 -14 -34 -38 -31 -15 8 21 42 58 72 82 75
-14 43 3 1 -10 -13 -10 -1 43 42 18 8 33 19 5 50 38 20 3 -21 -17 4 11 4 -4 8 12 13 11 1 -4 -12 -18 -16 -7 3 49 65 70 86 106 90 106 112
-18 9 -5 -8 -29 -33 -5 8 42 25 5 3 23 5 12 31 53 38 26 19 -20 -9 6 15 27 22 30 28 12 5 6 13 15 13 35 58 68 69 77 90 101 133 131 137
28 38 20 2 -20 -19 16 47 47 25 33 22 19 28 66 10 15 51 56 62 33 9 -4 -12 -9 2 13 24 33 21 16 18 40 58 62 66 55 72 108 100 114 142 161 175
-3 68 38 -7 13 -33 30 60 46 14 36 17 34 25 19 25 -10 -3 17 49 49 36 36 9 2 -1 1 20 30 37 35 35 42 62 68 72 64 86 154 159 183 202 234 254
28 28 55 38 19 7 -1 25 14 17 46 18 59 29 7 24 23 3 11 12 25 24 23 33 35 32 34 57 64 67 70 75 84 103 89 107 107 163 138 195 223 254 256 308
41 81 49 56 -4 2 37 21 60 57 38 43 51 31 27 47 36 8 19 9 19 22 17 28 37 45 63 66 87 94 99 93 117 132 138 154 143 198 178 192 299 305 330 415
64 15 95 54 36 8 53 33 85 73 84 51 33 18 10 19 19 2 14 25 27 29 23 45 22 34 29 49 84 99 115 130 140 168 148 178 168 200 271 237 287 294 321 321
97 55 76 75 51 28 12 79 90 92 72 52 41 37 28 20 40 29 30 30 34 29 29 22 31 54 50 29 42 48 61 82 111 127 122 129 157 149 213 188 261 304 303 286
77 75 97 76 36 26 59 53 95 86 96 75 62 41 43 15 35 28 25 33 33 34 34 23 18 46 50 49 48 55 56 34 55 70 87 104 120 222 226 238 211 189 192 248
66 105 72 53 72 37 -29 -3 48 80 68 104 80 36 28 21 19 18 18 32 36 25 43 48 48 63 75 71 57 61 57 57 59 62 68 83 142 142 153 153 168 170 199 315
161 119 69 51 46 25 20 11 36 98 129 73 55 50 58 51 28 28 16 29 40 51 47 61 85 62 54 42 38 37 44 53 70 95 94 92 115 136 147 169 189 215 249 299
121 87 63 66 40 43 20 9 26 45 34 50 62 40 36 18 15 6 46 42 43 69 73 83 81 76 93 88 80 85 97 111 115 124 130 122 121 139 152 177 179 180 180 200
84 53 53 33 8 -1 -5 -16 10 20 19 -8 26 18 15 19 26 65 88 59 58 79 102 120 137 126 131 156 161 162 166 140 135 141 141 150 146 144 144 147 152 183 200 225
103 75 48 23 14 14 -4 -20 -46 -43 -34 -73 10 7 14 16 68 71 97 67 74 106 138 170 176 190 218 230 222 195 177 180 164 173 182 175 159 149 155 160 158 165 187 209
107 93 57 -2 46 56 79 -12 3 7 -8 11 -15 -26 4 47 47 95 120 125 97 135 175 217 235 256 270 261 218 198 169 146 146 159 171 177 167 156 146 147 150 173 209 273
103 105 113 64 114 54 47 89 6 4 -8 6 -40 25 45 67 177 137 137 162 184 187 219 265 278 267 243 207 191 160 145 156 178 203 193 166 166 174 180 192 204 216 230 245
95 92 118 130 79 58 78 90 107 91 4 33 34 59 129 144 163 163 222 241 286 293 296 289 255 211 176 163 145 149 171 190 194 186 193 204 210 223 217 198 159 148 123 143
120 138 126 150 112 40 32 58 78 80 -20 17 61 20 136 146 119 134 244 269 282 268 239 203 176 163 158 152 151 165 169 165 173 180 200 205 209 213 190 134 106 86 95 105
159 163 141 127 133 96 107 135 138 66 31 78 53 63 119 131 90 234 261 251 224 208 186 161 154 157 148 134 143 162 156 171 172 192 213 228 213 186 148 127 121 108 98 91
112 156 176 167 155 72 166 196 130 102 71 71 69 104 92 179 221 221 256 223 195 183 165 162 179 191 186 172 178 193 193 168 184 200 200 194 164 126 106 107 115 113 124 126
67 171 150 114 132 137 129 83 59 87 97 100 87 117 151 225 190 216 245 216 194 186 184 189 213 236 219 205 193 185 173 191 204 200 198 191 172 156 144 145 145 138 139 140
91 127 83 74 66 85 98 94 129 111 143 119 107 124 166 209 199 229 239 238 226 202 212 238 247 255 247 226 216 202 205 200 206 222 232 201 206 173 159 138 140 150 154 145
97 86 60 64 65 103 84 78 93 162 169 134 136 126 141 226 226 251 259 238 230 246 272 275 280 268 258 252 248 230 217 219 245 231 221 206 180 159 150 156 163 163 179 154
130 111 148 93 42 62 32 55 115 164 154 127 156 164 195 228 263 262 280 278 288 319 334 330 313 310 297 284 278 259 264 223 214 218 212 190 161 156 157 155 133 139 138 136

GFSCGP_con_3kmhel_033.txt.gz
Helicity
35 11 22 7 24 -26 27 21 -28 53 -35 7 -6 126 -12 43 28 48 30 75 42 38 41 -3 13 60 33 50 46 26 13 5 -4 -20 -25 -30 -33 -38 -37 -25 -18 43 23 43
20 20 -19 -1 -41 -16 -18 -19 -26 34 41 9 -7 -10 47 62 34 54 39 59 35 46 39 26 9 17 46 37 31 26 25 7 -6 -10 -15 -33 -28 -18 11 -6 4 49 54 67
3 1 39 5 13 -1 -16 -20 48 4 9 -2 -1 3 48 48 51 41 26 35 37 46 66 48 23 27 24 25 46 30 26 29 13 -13 -9 -18 -24 -33 11 25 42 58 58 75
6 0 35 17 -13 3 1 -17 16 24 27 24 -6 44 20 62 50 58 59 36 46 38 40 54 44 35 39 25 25 13 14 14 20 -1 -4 17 25 43 45 55 72 97 87 90
32 -1 39 -12 -14 11 -40 -12 28 8 21 22 21 6 64 12 53 47 50 69 42 46 37 42 63 59 64 54 43 36 17 20 16 45 8 45 38 49 47 76 89 84 118 107
-21 14 20 -6 -11 -15 -18 12 12 -10 -7 16 30 -32 57 25 2 35 51 63 60 56 38 31 39 50 41 48 56 48 32 32 31 53 69 44 99 52 70 180 118 89 193 179
-23 46 1 -32 -2 17 -5 -2 1 -8 6 16 21 35 15 20 23 33 21 24 76 66 32 27 28 36 31 63 62 54 50 43 53 54 71 88 91 75 65 153 237 158 176 266
68 51 17 54 -25 22 52 -18 -21 -29 -28 19 61 33 7 30 73 45 18 20 16 37 56 27 25 47 45 63 95 81 68 61 74 80 109 79 98 91 117 213 238 299 259 220
42 0 69 43 16 -33 -18 32 -22 -46 34 39 -10 12 38 16 21 18 12 26 17 25 12 40 33 32 41 64 102 139 70 75 71 100 145 114 141 169 156 205 227 254 312 385
-26 22 45 81 21 6 -38 25 -7 -17 -16 14 14 8 35 39 0 44 1 18 32 41 49 41 32 41 38 36 75 142 96 56 76 101 212 200 146 127 158 228 237 261 255 262
-86 44 63 131 68 24 62 1 -7 -6 -21 5 11 16 63 58 19 27 26 44 29 45 48 37 32 29 45 87 83 112 101 54 67 80 118 176 137 157 197 271 191 181 228 236
-33 40 47 79 36 -2 -3 18 40 22 7 12 32 35 17 21 19 56 14 52 56 44 44 46 48 50 57 64 72 80 72 65 113 140 86 153 188 256 265 244 168 188 188 169
27 38 104 38 53 61 7 23 -16 -30 -46 42 64 66 23 33 37 10 12 20 50 51 54 65 78 74 79 74 73 74 73 76 78 81 114 174 222 194 190 168 168 223 229 269
64 70 67 73 53 60 47 -3 -5 18 30 16 -21 26 11 19 4 8 21 55 29 69 73 57 85 98 104 101 84 107 117 142 159 169 150 139 156 150 155 176 198 210 255 290
27 45 61 36 14 7 25 46 22 2 12 14 11 14 9 15 45 37 105 117 77 64 78 90 114 135 125 132 147 179 199 216 190 181 158 199 154 148 156 169 160 147 166 167
89 79 34 31 22 20 12 11 16 0 23 -1 -9 -25 25 26 39 55 41 80 80 72 84 100 156 191 212 169 211 213 209 195 181 206 227 200 192 185 212 252 281 256 230 217
90 110 97 74 34 30 10 24 1 4 -38 -8 -11 -24 24 16 43 49 31 104 125 120 89 116 169 213 254 256 229 246 226 221 212 200 185 178 198 226 242 239 230 239 228 212
148 134 113 123 131 112 41 17 12 7 -30 -20 -16 -7 20 40 54 112 119 165 200 180 193 170 198 224 263 280 276 240 204 187 181 178 178 195 225 235 226 242 247 229 205 175
122 127 174 117 96 75 28 28 42 12 5 -3 -23 25 24 51 154 152 149 208 225 204 197 243 281 299 295 259 218 183 171 162 167 186 215 222 198 210 228 249 237 203 183 159
169 146 153 110 72 30 27 24 33 4 12 15 12 15 54 96 124 116 197 207 288 287 271 274 292 273 241 203 167 161 168 191 215 219 201 197 222 243 271 269 245 227 192 185
193 193 129 117 100 57 42 3 62 40 -36 28 50 62 63 90 93 155 202 230 224 250 267 266 237 210 179 159 167 195 207 218 193 193 219 257 267 248 225 191 170 158 138 112
217 194 154 116 77 39 79 132 84 40 1 55 50 36 50 112 299 233 204 206 268 260 239 216 201 184 175 182 192 210 219 193 181 186 220 230 212 182 176 178 156 150 160 157
23 167 121 118 94 86 72 46 34 -14 31 60 42 47 76 259 266 238 208 229 252 232 216 193 203 222 225 222 217 229 199 184 184 217 234 242 239 221 198 194 188 199 187 177
33 43 88 136 112 67 53 16 24 34 27 39 60 71 101 210 236 218 203 213 241 242 226 228 240 249 269 268 262 230 210 194 208 246 266 258 238 216 204 189 192 208 194 185
79 36 53 54 65 66 64 46 14 49 68 81 88 98 133 177 195 201 206 238 248 248 264 255 273 305 314 310 295 269 251 230 244 265 272 276 266 250 228 224 214 196 196 196
64 63 89 70 12 76 20 44 19 25 46 50 65 140 169 161 160 190 222 242 280 312 293 304 322 353 380 357 346 326 293 275 279 298 307 294 268 245 207 184 140 185 189 163

GFSCGP_con_3kmhel_036.txt.gz
Helicity
16 16 11 16 23 14 -39 -9 23 85 37 -7 60 243 11 -39 8 96 135 102 73 79 190 82 51 76 33 -24 -24 -29 -75 -102 -82 -41 -28 -72 -71 -62 -45 -64 33 17 -24 66
-4 39 -18 1 -16 -19 0 -40 -1 80 54 13 -8 152 144 -1 -3 92 79 180 87 104 163 97 106 67 93 64 11 15 13 -2 -17 -33 -62 -58 -33 -48 -41 -8 -8 76 -24 144
21 -10 51 52 -11 -2 -14 -21 -9 -61 29 6 -15 -7 224 -49 49 79 47 117 42 127 181 125 91 128 120 126 56 31 78 71 46 23 -16 -54 -5 -20 -11 70 34 1 54 126
-5 -10 -17 24 -13 -2 -10 19 -7 -5 -29 5 56 22 56 34 78 79 79 76 124 157 165 173 92 102 132 139 95 58 70 70 39 3 -22 22 50 25 3 134 105 90 93 104
7 -49 -32 16 0 -8 -13 4 -70 -2 -19 -27 29 -11 22 4 81 81 144 49 76 133 145 219 169 110 138 120 144 64 59 91 80 46 -22 33 82 40 34 63 161 144 175 144
-12 -11 -7 40 -30 -40 5 59 7 -7 -29 -65 -42 8 19 50 15 51 134 69 59 93 122 156 188 143 104 98 85 105 56 80 59 112 67 5 104 77 45 138 172 250 170 148
14 -41 9 19 -12 -27 6 5 3 20 0 -25 6 16 7 93 79 117 79 132 -50 73 113 108 171 201 169 145 157 130 109 55 64 94 144 111 44 111 79 63 206 298 206 308
77 49 -69 28 -10 -17 76 -17 16 -46 -46 -59 106 23 -3 53 34 6 32 88 -1 76 153 124 77 204 223 213 234 215 183 131 84 131 167 191 136 126 120 35 109 307 293 389
66 37 7 30 19 -61 19 53 -16 -75 81 19 54 11 26 49 36 50 19 32 29 31 160 151 62 93 197 243 278 267 213 151 90 121 190 160 230 209 182 64 74 331 431 455
10 77 -8 46 40 44 -69 -6 17 11 -57 -24 7 31 39 86 17 44 63 8 17 60 56 39 87 97 146 204 293 339 347 211 157 118 196 224 386 374 228 96 84 352 440 373
15 58 55 -21 56 23 34 2 26 -4 -24 35 15 -1 132 161 10 49 32 56 73 86 72 48 41 43 48 130 169 268 444 242 218 178 215 311 351 414 191 116 312 358 288 223
-1 60 108 97 82 40 48 42 30 1 -40 18 35 -44 56 18 50 6 71 50 74 71 56 53 39 31 22 38 110 161 185 164 180 157 301 228 256 227 293 328 309 255 229 208
94 78 171 116 34 17 44 -5 57 -29 10 24 71 2 38 74 21 47 65 16 113 118 44 108 69 63 70 89 100 151 212 233 197 121 227 198 340 336 320 325 292 236 204 187
97 171 160 180 73 70 82 5 54 41 10 13 30 1 3 122 122 29 26 40 60 88 88 88 129 113 100 110 142 188 202 172 136 153 221 278 301 187 187 204 259 304 303 317
123 169 154 71 27 26 59 25 33 -7 115 25 74 35 57 52 132 50 100 56 87 114 107 87 139 218 176 193 213 222 245 248 223 234 333 330 207 177 199 232 231 236 235 256
166 156 115 70 71 60 32 6 55 92 -23 -16 -1 22 17 10 107 105 69 89 71 90 128 110 115 256 219 215 273 316 299 300 294 311 321 310 232 225 207 249 246 224 221 218
117 163 71 139 39 88 38 4 17 40 45 25 13 -23 23 -6 38 45 96 109 147 150 170 166 220 299 259 287 365 367 290 292 350 359 286 286 303 312 293 281 294 319 300 243
369 178 125 129 170 103 120 48 68 60 54 55 49 -48 11 27 37 79 138 90 165 282 307 313 343 325 373 345 299 273 277 272 256 273 249 234 220 227 252 313 326 294 278 274
513 373 228 204 168 125 101 73 99 84 50 35 -5 5 -10 41 13 131 161 151 212 319 424 394 335 306 322 300 265 274 269 260 246 225 202 206 240 282 285 255 236 220 195 193
441 550 258 224 230 166 202 118 21 12 54 59 33 28 49 49 80 135 122 177 320 435 359 316 354 316 291 290 296 274 250 237 230 223 232 242 259 284 316 312 288 271 257 242
134 363 290 218 273 201 122 58 36 38 -19 33 40 34 40 67 120 96 161 340 395 349 350 377 339 294 270 277 272 271 250 239 239 251 278 335 368 276 236 215 232 233 223 218
-22 250 204 264 205 163 85 72 38 39 116 75 33 49 87 104 122 154 284 399 350 323 323 319 306 292 269 253 249 248 252 274 325 337 303 258 223 194 202 203 182 177 218 217
10 110 116 273 237 149 72 27 54 71 67 39 57 59 64 144 157 216 298 342 298 301 310 273 308 271 242 233 235 281 288 271 265 262 235 196 188 231 260 278 266 327 286 293
-7 29 69 159 155 182 125 62 17 47 26 18 50 62 78 168 201 241 270 311 344 311 246 284 299 289 293 283 281 304 301 287 290 273 259 267 316 325 315 306 344 334 340 298
66 49 -25 26 87 170 272 73 109 59 70 66 96 120 86 192 240 252 264 307 290 251 276 323 331 322 327 370 391 341 335 330 354 364 360 347 332 331 395 390 359 273 266 246
28 40 41 80 18 13 27 60 39 55 118 58 62 63 71 197 273 246 257 278 232 276 354 367 375 392 409 411 413 393 406 431 421 433 437 388 398 395 341 278 287 269 163 163

GFSCGP_con_3kmhel_039.txt.gz
Helicity
43 44 13 5 20 55 45 3 -2 19 98 191 239 204 130 56 122 99 172 198 212 262 168 70 42 37 19 0 1 -36 -70 -70 -32 -13 -52 -103 -169 -162 -139 -98 -54 -29 -23 -12
48 47 53 10 3 -7 14 4 -22 -46 48 36 124 123 78 -28 -31 131 221 201 288 314 228 137 82 85 25 1 -16 -48 -92 -99 -73 -104 -165 -208 -194 -211 -133 -101 -72 -37 -13 -5
91 26 55 35 15 11 -68 -11 -60 -42 24 15 38 136 109 -4 -93 -43 180 228 350 401 269 171 146 115 85 31 4 13 -17 -56 -67 -75 -109 -122 -131 -114 -88 -88 -67 -21 -11 23
67 21 7 -11 68 24 -18 6 1 -6 -16 -10 43 -7 52 17 19 9 140 212 271 352 295 246 184 126 136 70 30 11 34 -5 -20 -13 -27 -48 -55 -53 -37 -21 4 48 21 20
95 37 -9 -8 -22 44 -30 -19 18 57 -25 -29 -78 -23 25 98 140 43 143 185 154 339 401 331 252 211 125 103 95 44 54 71 54 29 15 -18 -12 -14 46 67 83 78 95 85
9 29 -49 -37 -3 31 -60 44 50 8 15 -32 -40 -78 -83 152 164 53 94 126 140 269 359 352 285 230 208 144 108 86 83 64 58 56 40 15 24 30 73 118 129 138 149 184
15 -18 -7 -38 33 51 -84 5 68 52 68 21 16 -100 -83 -6 145 147 229 147 192 292 308 323 285 271 215 245 207 146 115 120 114 85 63 63 63 141 165 110 172 187 195 176
105 49 -47 -45 30 72 -15 31 123 50 46 -22 -6 -49 -83 67 108 81 163 89 119 249 206 327 372 338 269 252 266 259 199 169 176 175 143 80 107 127 148 199 238 209 185 150
149 89 79 5 0 102 -26 42 87 92 69 12 -51 -42 -41 -7 -12 37 -1 89 61 76 117 215 372 361 322 321 311 312 290 223 192 229 198 199 173 137 257 295 274 159 390 299
104 113 7 -6 32 56 80 40 64 72 66 -18 -40 -19 6 -22 -23 2 86 48 -15 9 26 117 327 334 327 366 405 413 361 301 263 228 256 264 265 234 281 301 203 174 265 362
82 31 32 16 49 87 118 42 45 82 122 58 9 -2 52 40 72 66 96 97 108 77 82 68 123 171 178 327 363 395 434 391 195 71 124 144 299 344 317 374 397 243 229 330
116 48 28 38 85 68 137 99 63 194 136 81 60 -52 33 53 2 161 21 48 72 117 157 154 95 143 148 138 231 356 475 517 385 216 97 191 435 563 383 399 354 211 315 301
91 82 56 82 38 107 75 66 96 78 189 104 -12 47 47 93 27 30 41 56 116 163 178 177 89 53 50 86 169 181 460 504 331 205 12 213 326 255 216 262 274 288 295 215
80 136 85 36 110 119 146 109 10 69 170 84 121 114 125 47 104 31 93 98 63 142 189 193 194 104 72 99 139 245 255 273 247 178 338 365 340 354 389 335 313 271 252 257
44 92 67 83 78 98 122 64 26 -14 80 120 96 62 55 20 161 15 120 106 135 81 87 155 201 194 199 188 209 260 314 403 353 399 384 378 380 360 315 275 275 284 292 290
88 94 68 82 102 84 128 140 33 47 59 84 139 118 50 45 38 174 133 80 81 109 95 187 238 296 333 379 330 302 341 387 371 356 352 346 321 312 310 289 278 288 275 245
124 162 108 71 181 193 103 122 111 64 2 50 130 156 88 67 130 203 126 120 97 178 199 253 291 314 441 482 420 383 370 408 423 427 445 425 404 374 355 336 312 267 270 254
361 360 240 186 184 179 25 49 61 97 35 -22 79 124 68 59 71 128 84 131 57 248 310 360 399 477 575 607 506 486 415 385 399 431 434 412 395 396 393 357 335 321 268 241
208 51 380 258 238 141 104 213 75 107 58 30 44 107 61 62 78 188 159 172 242 330 393 439 511 615 679 626 508 462 396 394 387 367 358 342 360 371 341 311 286 285 281 257
50 82 247 283 187 158 58 155 123 132 124 110 94 96 92 117 128 108 242 248 283 357 403 494 568 624 573 506 479 430 403 372 339 328 324 308 311 306 284 273 270 253 245 255
87 179 37 236 238 176 95 98 76 161 135 78 83 78 87 46 82 135 225 262 267 341 404 544 560 491 480 503 463 408 388 371 344 332 365 378 339 317 328 327 323 314 313 308
35 6 16 126 238 166 241 168 103 130 55 42 25 96 73 58 87 138 175 202 265 336 428 524 507 476 477 466 440 418 382 369 422 430 384 368 364 337 331 316 291 289 295 294
27 14 -10 -85 158 138 244 25 128 148 25 106 52 59 73 126 103 83 148 242 322 411 506 517 494 488 462 450 414 424 398 413 411 403 366 335 318 305 256 271 320 355 319 344
93 83 2 6 12 127 90 -23 110 52 85 276 1 28 101 102 163 178 234 326 408 472 528 514 519 505 467 427 421 409 399 404 406 381 365 374 407 463 474 468 458 448 436 439
52 63 47 79 -1 144 273 82 213 163 143 265 236 73 123 111 123 184 295 363 427 477 528 493 495 477 477 476 458 413 412 425 453 499 504 539 573 571 553 506 422 436 449 365
83 59 54 -24 -50 -47 80 17 -79 203 38 163 158 62 124 62 164 284 328 376 464 501 504 523 524 568 580 587 517 454 437 491 582 613 624 593 539 530 501 481 530 509 403 329

GFSCGP_con_3kmhel_042.txt.gz
Helicity
128 92 113 54 33 -7 -45 -13 61 148 116 142 86 102 210 164 170 179 171 109 101 59 47 71 74 88 88 64 77 104 153 103 96 7 -17 -73 -84 -106 -143 -139 -158 -70 -15 -61
156 -5 25 60 35 -10 -8 8 71 80 40 83 69 41 121 166 104 176 176 162 160 109 89 89 64 59 74 99 36 28 35 55 39 -3 -61 -81 -86 -145 -123 -168 -211 -95 -45 -33
132 57 32 45 13 15 -39 -4 56 68 13 73 118 -5 19 151 162 130 95 204 246 318 153 115 115 90 78 70 51 15 -1 11 10 -28 -80 -63 -97 -156 -185 -249 -256 -180 -77 -43
108 21 16 65 49 44 52 41 33 -5 52 77 99 21 -10 56 95 104 48 223 311 390 252 141 120 112 104 56 21 2 -26 -36 -16 -56 -107 -142 -145 -154 -200 -203 -178 -137 -66 -28
136 75 85 54 -5 34 52 86 13 8 41 65 33 93 24 8 12 70 81 161 370 421 403 319 174 102 124 81 63 12 -27 -56 -61 -61 -84 -123 -154 -187 -190 -198 -147 -107 -82 -15
89 59 64 72 46 73 37 30 19 68 87 -3 37 49 -6 -3 26 88 36 149 341 391 390 341 273 174 124 91 49 42 35 -30 -63 -36 -53 -48 -37 -47 -101 -124 -70 -54 -54 -37
82 26 17 42 65 61 15 104 96 93 153 45 40 38 -30 -49 -75 113 151 121 253 334 392 322 246 240 184 197 168 119 134 95 37 28 9 17 27 18 3 -28 -23 -2 0 36
134 113 41 60 90 59 73 109 132 70 84 68 80 21 -4 -19 30 50 11 209 113 201 329 358 345 332 282 254 224 193 189 151 148 135 93 59 40 21 -21 -26 20 70 81 111
108 99 56 49 64 82 72 139 79 118 119 109 71 69 16 -28 -35 65 70 143 62 134 246 299 307 354 348 297 270 288 251 227 216 204 153 124 109 116 88 71 138 214 178 148
97 64 77 79 59 46 102 58 130 175 133 85 72 64 0 20 -18 5 26 62 43 145 222 250 262 291 315 335 346 334 291 300 303 239 178 134 116 136 145 174 219 259 283 282
124 108 68 78 48 60 114 128 122 133 163 122 61 42 17 22 32 9 68 -9 29 119 182 245 305 299 332 288 331 368 327 298 263 294 242 317 242 204 260 306 325 368 415 305
119 59 135 24 31 91 79 66 111 162 202 165 144 30 54 36 -15 47 36 20 16 -7 61 170 285 318 326 308 283 330 399 383 362 393 283 292 290 383 435 339 352 488 287 261
123 126 167 135 24 -8 71 81 110 218 223 144 158 99 63 50 57 49 124 25 47 54 92 128 154 179 231 193 210 316 404 469 486 568 566 471 298 315 357 379 344 430 322 204
-64 85 91 98 19 64 79 80 123 172 210 190 201 114 143 96 74 107 118 79 65 91 109 142 162 179 180 163 153 173 267 322 419 494 525 372 279 262 176 218 370 338 291 300
-15 75 105 60 53 87 66 101 113 143 208 201 148 126 134 130 133 84 74 121 89 63 93 162 150 191 211 183 188 166 186 210 346 411 345 249 174 166 170 356 412 328 264 263
10 -59 -5 -15 89 77 56 2 102 79 148 159 121 112 118 120 138 127 105 35 115 139 101 170 129 212 303 292 305 323 304 282 320 295 236 250 249 291 324 317 349 339 340 354
-77 -28 -24 -60 171 139 95 -74 58 106 84 107 108 79 64 59 101 116 68 83 104 98 95 155 201 238 346 394 402 383 438 443 408 336 370 389 399 378 397 394 401 368 347 324
-122 -144 -70 4 186 143 97 54 78 76 103 132 125 82 63 79 89 98 105 118 168 71 198 187 226 323 348 485 513 504 523 443 481 459 454 445 439 444 415 370 328 339 290 293
61 -72 -120 -34 232 168 106 109 176 163 92 84 98 82 86 54 90 126 79 117 82 184 239 288 290 394 527 536 556 580 583 449 402 378 367 369 379 369 310 320 307 307 331 317
122 44 -7 -65 -113 175 83 69 96 71 96 127 74 66 63 115 126 113 85 68 50 212 335 442 440 471 504 543 612 637 550 466 393 351 344 318 315 307 303 279 284 294 301 297
41 45 -15 34 -81 83 62 219 55 135 89 136 99 120 143 145 112 110 166 225 244 303 339 333 354 436 505 571 615 541 473 402 357 373 393 363 308 272 248 274 288 296 332 366
0 -55 -11 -70 -71 12 84 124 221 265 187 167 69 48 218 74 102 110 206 220 240 268 284 327 412 431 488 521 526 471 455 429 415 385 358 323 297 279 283 296 294 327 370 429
64 69 4 23 8 0 1 26 127 160 118 124 210 243 130 65 38 78 119 155 142 203 251 307 420 480 468 468 460 477 436 434 412 385 347 319 309 299 306 336 362 368 387 404
100 105 86 59 -10 -50 -28 -4 94 49 109 199 273 241 198 175 101 92 178 225 248 300 325 383 485 502 515 470 457 449 427 414 386 372 375 390 424 441 440 434 394 391 405 429
101 89 102 57 18 -3 -32 -19 11 52 -13 12 168 250 235 115 95 71 181 258 319 376 400 441 492 523 494 452 467 452 429 431 445 458 453 466 473 486 533 581 535 531 483 425
86 56 80 41 22 -3 2 -46 12 52 -22 -54 60 232 196 178 135 117 167 288 365 418 472 510 527 564 546 542 507 479 462 481 505 509 497 496 520 528 530 538 581 570 473 443

GFSCGP_con_3kmhel_045.txt.gz
Helicity
206 192 199 153 79 92 117 110 74 -12 72 55 116 59 66 130 142 132 145 93 88 41 42 90 91 102 118 128 159 139 145 161 157 130 167 225 111 67 109 96 46 38 151 122
231 77 128 85 97 62 66 76 33 56 71 72 34 67 14 145 174 179 152 104 99 63 78 92 99 116 112 139 126 143 155 149 42 -34 24 31 -64 -66 6 27 66 -60 -6 37
229 122 121 135 104 81 45 81 41 76 82 88 45 2 7 42 141 144 90 100 109 157 124 106 102 107 109 124 121 107 99 89 72 39 -25 -72 -162 -131 -144 -118 -163 -116 -10 3
168 14 131 86 66 135 59 45 47 82 101 172 111 82 -18 19 108 158 130 119 155 175 151 127 124 114 132 117 112 101 92 49 43 4 -33 -82 -82 -107 -122 -109 -137 -153 -100 -95
182 78 111 101 32 166 46 53 101 104 79 137 119 156 63 77 40 105 129 126 129 189 218 232 201 136 100 109 120 75 69 30 24 -10 -65 -89 -108 -136 -149 -206 -253 -276 -267 -235
121 94 111 104 73 108 58 94 141 135 136 123 104 142 89 80 37 24 137 139 178 157 174 144 170 123 75 71 85 92 74 35 10 24 11 -16 -41 -76 -94 -141 -185 -243 -272 -228
132 75 97 92 115 108 147 155 140 135 178 97 69 129 89 55 5 26 27 114 197 231 170 171 159 182 164 143 112 131 123 96 55 30 6 3 -7 -19 -46 -90 -111 -158 -167 -146
137 109 90 107 82 109 137 161 189 116 123 73 110 105 54 31 11 32 -9 30 181 218 220 244 232 211 183 197 171 178 156 103 113 100 42 13 -8 -44 -59 -82 -99 -80 -90 -92
85 96 92 79 137 144 88 151 119 137 118 84 64 110 105 66 15 12 14 68 95 214 215 261 306 258 217 204 217 229 228 168 152 155 138 97 64 31 -7 -37 -79 -75 -42 35
130 73 78 95 114 144 107 141 184 202 110 99 86 95 112 54 41 23 12 13 40 139 173 239 291 315 310 296 273 235 208 222 228 195 157 139 129 68 55 100 72 26 22 76
123 138 103 47 89 152 161 100 128 115 138 90 27 8 75 46 32 67 20 0 27 86 112 172 299 332 366 320 306 309 234 249 229 240 266 228 154 169 162 130 119 207 246 206
171 145 97 48 18 50 102 117 70 140 152 140 124 49 147 62 26 54 48 34 50 64 102 158 239 307 332 342 348 377 334 310 363 383 411 445 306 261 208 243 392 358 409 259
117 247 144 92 84 56 72 93 116 97 114 106 138 35 122 89 57 10 48 52 63 54 50 128 221 240 313 365 366 373 387 316 391 452 520 560 535 411 263 201 378 333 292 282
117 179 169 157 178 173 200 259 140 126 110 97 131 90 146 122 75 76 79 61 29 67 99 72 98 163 221 265 306 373 346 335 375 440 497 508 532 480 315 263 268 318 380 358
44 149 135 125 97 79 79 137 193 188 120 146 76 99 133 133 108 89 94 93 100 96 59 71 64 85 197 178 188 220 224 259 354 400 430 450 417 406 351 329 291 296 305 311
3 20 37 7 36 75 50 101 88 138 131 119 141 137 120 44 139 108 90 125 122 93 121 109 103 107 190 163 148 169 179 219 329 380 381 406 448 447 373 292 322 333 321 347
26 40 -39 -50 -87 -29 60 -48 31 44 49 61 92 98 125 126 98 100 86 95 145 136 115 94 140 205 187 204 222 218 228 287 291 299 367 354 391 352 363 342 329 318 392 384
109 54 -8 -219 -206 -180 -111 47 23 88 52 35 74 54 44 95 66 88 116 114 114 90 106 127 110 203 274 305 323 363 340 364 375 340 355 341 352 362 372 389 370 378 360 350
170 143 48 -39 -109 -113 -231 -61 -36 15 135 241 83 107 94 72 19 48 30 104 106 105 120 119 112 235 379 422 440 415 396 382 433 443 404 343 363 376 365 366 376 404 397 384
244 192 166 137 29 -82 -41 -77 110 39 67 116 101 115 123 130 82 65 74 83 71 102 96 125 158 273 393 449 477 448 405 436 470 414 386 329 291 287 303 328 365 387 374 336
204 191 146 111 42 21 -75 -7 -37 -16 66 196 90 110 152 167 151 165 90 50 115 127 189 254 250 310 371 423 446 452 461 472 442 420 403 354 301 310 337 356 340 335 358 430
157 129 168 133 95 -1 -22 60 -57 -68 302 316 123 106 101 146 153 136 79 71 148 212 250 247 269 311 321 372 430 456 501 479 435 411 418 395 372 359 358 367 360 388 434 455
204 236 127 98 94 52 -4 15 -18 -46 -72 338 198 177 151 166 97 152 206 102 101 156 218 234 266 296 343 406 429 513 449 434 430 434 422 426 420 397 372 387 409 430 409 421
161 169 149 134 75 13 6 17 -16 9 13 346 221 172 133 77 108 98 118 112 84 145 207 242 299 346 402 416 419 382 359 381 421 450 468 449 459 473 455 450 412 399 379 378
105 114 107 80 24 33 31 54 42 -28 -22 24 137 65 44 107 148 154 167 176 103 114 167 266 324 387 393 394 411 386 372 401 453 476 480 477 458 455 484 506 426 388 359 303
124 96 100 91 82 40 26 2 -7 64 -5 -36 28 85 38 43 95 117 130 146 224 213 156 283 346 401 410 421 444 427 399 399 432 451 433 399 401 414 433 468 550 564 487 472

GFSCGP_con_3kmhel_048.txt.gz
Helicity
231 261 216 293 199 115 100 111 90 59 16 51 23 17 50 72 147 177 108 124 121 81 55 79 61 61 83 90 54 64 124 132 149 143 199 236 247 313 350 191 106 118 95 90
263 119 205 159 145 123 114 79 53 15 50 66 72 19 -24 47 107 181 151 94 112 119 100 107 86 71 82 99 85 71 65 121 170 161 203 253 244 315 372 161 166 150 104 114
211 152 181 162 153 133 100 113 86 72 72 44 122 84 23 6 56 84 156 99 75 159 164 142 138 110 74 103 108 95 76 59 2 6 93 278 321 282 309 87 112 71 166 161
145 90 79 174 138 191 87 102 85 102 145 109 43 -2 14 -41 -25 37 124 134 121 132 142 168 158 147 104 80 101 113 94 95 56 11 -3 55 88 59 5 -79 -50 -45 -32 -12
187 111 151 154 58 172 81 68 86 131 136 159 117 155 94 55 -73 -35 58 142 131 142 191 189 195 178 120 102 87 107 122 84 75 64 65 48 66 28 -94 -156 -103 -114 -24 20
104 53 105 91 55 101 79 99 129 143 136 109 138 216 94 131 71 11 -28 80 132 135 154 145 152 171 138 146 125 101 118 105 85 57 23 26 7 -37 -124 -168 -153 -171 -158 -129
157 102 120 134 125 126 140 191 221 200 197 154 107 194 165 62 67 67 4 0 80 167 156 164 208 205 201 180 158 143 128 93 75 76 66 48 28 1 -52 -113 -164 -191 -232 -260
173 117 118 118 105 117 180 203 234 158 156 141 186 105 122 35 20 7 -17 -11 5 74 159 150 214 198 212 217 216 174 165 133 125 98 79 45 15 -16 -53 -93 -105 -112 -133 -132
107 110 89 68 127 144 120 182 121 129 85 89 87 146 135 108 49 42 -7 -5 -4 62 136 116 165 215 211 214 238 254 210 155 153 153 105 95 74 68 35 19 -1 -40 -43 -39
133 126 103 98 111 129 118 89 190 256 141 103 142 89 80 82 36 16 -8 9 34 27 33 70 138 178 185 207 218 237 249 255 209 167 160 143 136 113 88 79 59 36 36 21
118 131 91 104 103 101 119 125 164 147 195 166 120 108 43 68 102 31 26 25 23 14 40 69 90 136 182 155 212 248 250 275 271 264 255 225 211 214 212 178 158 147 82 150
230 160 126 94 87 50 140 196 119 161 128 139 111 102 106 33 24 25 25 63 49 47 60 81 104 132 149 178 195 226 260 276 283 319 324 290 247 214 227 214 214 212 79 232
163 188 153 135 131 193 155 148 213 147 168 100 41 184 88 84 61 54 44 28 16 34 50 91 106 127 151 199 233 270 280 274 319 341 366 371 386 379 347 333 272 79 206 116
81 128 103 146 178 175 197 230 169 103 125 84 40 7 51 40 29 43 69 48 44 59 55 45 84 111 134 179 236 233 227 263 270 329 392 419 476 508 454 368 216 123 171 146
76 93 114 118 140 151 169 206 203 140 43 28 2 45 103 98 133 67 93 88 65 43 41 53 81 112 114 141 178 189 161 181 225 224 278 362 429 424 397 308 248 206 186 213
92 60 46 76 37 121 134 106 166 128 7 -11 -21 -24 75 114 146 122 61 86 85 59 47 64 68 107 127 142 182 194 154 187 226 211 229 233 272 344 315 260 234 219 229 196
153 8 -1 10 15 29 93 98 59 120 90 28 -38 -8 108 120 126 108 58 86 87 94 74 61 87 113 142 147 198 209 187 245 241 217 214 246 273 307 287 252 240 236 276 306
146 144 135 50 59 25 -33 28 -13 -58 -29 8 46 44 38 94 99 75 95 77 63 107 116 102 103 91 94 137 255 273 239 240 251 238 280 306 293 307 306 320 322 372 375 339
84 157 113 37 25 44 56 17 24 11 -3 20 -13 -16 69 167 78 38 99 74 58 75 132 108 109 104 117 198 264 325 304 295 304 317 295 272 298 395 399 339 339 352 332 346
145 112 113 109 54 -2 31 11 15 2 47 49 68 25 94 203 75 58 66 48 67 63 77 98 96 135 147 193 253 318 312 322 335 333 306 314 325 313 314 312 336 366 401 427
108 134 79 107 76 40 38 -17 19 -4 47 30 24 -6 131 114 117 101 116 18 45 50 51 105 112 103 133 203 254 317 362 348 387 352 345 331 285 274 278 310 316 379 467 524
113 87 162 134 126 36 29 36 -16 -5 123 20 -14 -4 116 199 229 151 84 12 35 115 101 46 77 158 208 230 310 353 393 362 350 351 354 342 330 306 335 411 439 447 453 462
155 160 112 122 105 98 56 31 45 109 119 73 -18 -4 171 253 278 211 59 20 65 85 107 104 192 216 288 305 310 386 322 313 319 367 347 346 361 382 394 420 413 410 378 366
113 87 137 158 106 59 37 21 -8 39 93 76 -16 -2 122 394 298 203 59 -13 -4 31 113 132 224 248 242 206 221 221 225 262 327 370 385 380 429 470 472 428 345 310 306 312
96 138 150 112 102 53 33 104 8 31 43 -25 22 -38 110 279 293 190 69 13 33 92 132 123 169 219 232 243 261 238 225 278 349 367 352 390 417 435 468 472 375 323 306 253
150 205 197 158 136 97 54 25 44 52 29 87 13 7 39 65 64 77 66 61 64 83 111 199 277 289 304 320 326 304 289 287 314 325 316 326 362 382 382 409 475 485 378 361

GFSCGP_con_3kmhel_054.txt.gz
Helicity
65 104 93 77 54 -2 42 36 23 38 92 68 33 -20 6 31 15 31 33 60 74 83 90 92 86 61 75 82 103 92 141 117 107 99 74 84 51 105 169 263 171 -4 -59 -63
99 63 34 58 46 14 20 27 33 61 53 40 0 7 2 40 31 27 26 54 62 90 99 90 91 92 67 84 82 138 153 103 114 97 102 91 98 64 31 0 -32 -20 -54 -48
67 61 36 103 60 30 16 9 35 38 51 30 48 1 7 45 48 32 25 19 69 99 102 105 93 80 78 84 125 118 201 156 147 123 59 149 240 169 -39 -115 -197 -123 -116 -77
76 47 51 6 29 28 28 25 31 50 64 29 72 22 -5 35 21 51 7 31 43 97 83 107 117 92 80 78 101 117 164 171 128 170 138 162 208 225 116 -100 -156 -121 -117 -87
64 50 43 64 23 36 31 77 35 48 58 60 25 42 -8 25 -7 4 25 24 23 45 86 104 83 97 80 80 91 99 118 139 180 146 128 193 90 41 75 45 -1 39 -61 -69
70 43 37 24 45 51 88 60 43 80 95 25 32 52 10 -7 -4 -8 10 39 39 22 46 70 71 109 109 86 73 80 84 98 176 205 153 183 150 78 53 32 -26 8 71 20
63 59 53 59 45 53 54 41 94 101 128 55 104 80 19 19 0 -5 -6 0 66 14 21 62 109 126 129 111 88 83 91 75 75 116 147 174 109 155 167 134 128 78 123 108
79 92 71 52 58 69 40 85 173 153 98 65 144 76 20 19 5 -38 -21 -8 38 24 16 29 96 108 106 109 99 79 84 84 84 69 56 63 89 55 81 123 128 88 129 144
38 65 19 46 108 42 68 77 65 129 155 174 94 94 33 11 -1 -15 -5 18 10 32 20 20 51 104 96 102 119 90 68 63 71 58 38 33 34 32 61 76 93 95 124 133
127 74 42 29 17 66 92 59 119 128 155 115 104 85 99 54 10 27 28 5 11 28 30 32 49 69 99 81 87 79 49 58 65 53 41 37 48 39 21 37 79 123 107 124
191 176 101 95 73 31 92 120 159 157 118 148 130 97 16 58 97 87 78 21 12 38 26 20 34 58 83 89 82 85 76 57 58 63 57 43 46 47 41 30 17 37 81 123
110 228 150 156 174 192 63 46 52 116 113 135 183 129 63 60 76 55 43 43 57 57 35 12 19 45 78 95 95 98 92 93 86 82 83 72 57 62 69 72 74 58 51 38
185 149 168 189 158 140 178 165 201 210 217 155 107 137 89 124 94 78 55 52 53 57 56 17 14 31 57 77 82 97 112 114 111 113 129 118 111 118 115 110 95 94 90 79
291 181 175 122 170 182 146 131 151 154 142 122 122 136 109 101 99 64 82 84 83 48 51 31 17 22 19 46 65 67 64 75 115 130 149 156 168 168 161 122 91 106 116 114
179 232 212 225 209 220 168 155 136 131 135 109 88 68 47 5 6 68 75 71 70 60 42 40 19 23 18 44 53 69 75 89 110 138 147 160 187 152 127 132 103 101 122 135
165 134 142 155 134 103 122 126 120 79 61 56 -3 -1 5 54 59 59 86 77 70 35 12 56 75 11 26 48 42 59 68 87 128 105 122 100 86 97 103 97 81 90 114 142
155 146 125 150 106 88 100 53 11 17 14 29 50 72 118 79 85 81 53 44 45 46 35 57 95 86 26 36 56 63 86 77 85 96 96 90 86 75 62 68 86 97 113 117
198 101 102 105 79 110 129 85 94 67 43 63 87 127 103 78 80 50 92 92 46 33 -6 10 57 117 108 37 14 31 53 66 100 101 83 111 101 91 97 104 100 97 111 129
86 171 126 106 43 131 146 83 48 42 86 83 131 123 101 64 24 27 135 145 98 59 67 22 31 50 93 90 53 -4 21 64 92 97 101 114 116 120 136 159 168 152 148 196
74 84 117 118 110 79 111 116 86 73 153 108 75 52 53 47 47 56 77 76 25 -8 67 104 81 13 65 92 85 38 11 33 82 104 116 144 140 140 156 170 279 362 331 349
111 74 35 31 63 64 19 20 61 101 167 84 62 56 55 29 39 21 17 50 42 -8 -11 102 126 18 -29 -13 36 57 73 74 82 113 150 197 195 236 386 408 419 463 431 435
81 80 56 17 37 49 19 44 76 92 79 59 47 35 19 28 33 42 47 30 43 4 20 39 89 102 11 -25 -45 -8 42 186 207 291 392 431 458 451 403 493 517 402 338 382
61 55 47 52 30 30 50 93 99 39 -2 -9 -22 -12 -2 23 63 80 36 14 13 -24 4 89 54 62 69 155 110 57 64 110 195 276 370 467 536 539 548 524 432 417 471 407
35 45 42 52 53 49 51 38 38 43 21 25 43 42 58 61 64 77 62 30 -16 -12 -30 139 129 72 84 151 250 282 202 195 297 408 477 510 550 551 520 461 432 398 422 414
19 42 29 32 30 41 32 56 68 63 52 68 57 64 82 93 97 70 67 32 45 -30 -41 213 201 143 125 156 194 276 306 322 422 494 521 514 560 598 624 675 573 486 461 358
21 26 35 37 109 77 62 77 46 23 22 14 -1 30 84 103 109 69 64 38 58 19 -65 0 173 243 136 138 230 249 264 286 386 521 565 573 626 649 523 556 634 647 589 615

GFSCGP_con_3kmhel_057.txt.gz
Helicity
9 56 49 33 -3 12 35 31 42 3 43 65 0 -11 3 22 36 48 30 18 59 65 104 150 131 80 99 126 150 132 88 73 74 128 168 156 213 207 267 199 -42 71 73 77
171 -59 46 25 10 8 15 27 39 27 76 56 19 2 -9 17 35 19 32 35 32 74 99 147 153 91 75 110 139 163 173 149 82 86 47 132 172 189 194 293 268 153 204 38
144 53 22 53 31 42 28 22 33 45 32 10 18 16 -8 21 4 40 12 4 26 66 93 143 159 134 78 113 142 152 183 153 56 62 73 81 35 59 249 227 261 266 161 37
254 57 49 49 40 42 43 21 24 52 58 37 -4 45 2 20 16 70 36 27 21 43 70 114 155 153 122 83 142 153 161 163 84 110 104 142 143 147 95 121 113 71 18 41
121 139 86 96 64 23 34 38 24 41 53 45 35 28 27 9 18 44 26 78 56 23 77 83 142 145 156 131 139 132 169 169 143 103 125 68 78 79 119 168 86 -20 -132 -98
82 50 56 114 65 40 46 51 63 47 52 63 24 30 24 -1 12 35 1 28 53 48 50 68 115 144 172 157 163 131 150 169 151 121 111 116 94 98 141 164 76 11 -64 -54
64 120 -7 53 107 32 63 81 121 100 101 69 42 48 18 31 64 44 29 6 46 53 58 54 101 139 164 174 152 136 120 152 193 163 146 127 103 158 113 147 149 21 -25 0
49 88 58 29 72 99 48 77 159 102 82 58 28 104 35 17 56 41 10 -6 46 53 54 24 50 115 137 164 144 146 120 103 172 189 155 115 92 110 44 108 103 66 26 72
102 47 4 27 67 66 35 19 26 127 60 198 96 48 14 66 28 18 6 13 21 34 38 23 34 83 123 153 152 125 122 95 113 139 140 116 78 67 57 51 67 81 66 52
31 117 40 21 29 25 58 21 51 87 200 201 109 36 1 27 16 50 27 21 6 23 39 64 44 65 104 129 122 116 97 110 100 97 113 110 105 96 59 30 66 79 72 64
34 58 48 54 48 25 60 72 102 39 74 138 99 73 78 128 161 101 106 64 94 77 34 26 30 42 79 95 114 121 99 105 112 125 113 92 86 80 63 45 40 49 66 90
25 146 49 -34 -3 -7 7 11 69 148 105 57 109 149 62 93 171 146 155 49 50 28 14 38 31 22 45 86 97 111 102 102 99 122 134 128 106 101 99 81 64 67 59 61
291 86 68 4 57 60 40 9 8 23 54 69 101 157 42 60 51 41 105 85 37 30 33 16 12 13 25 42 70 88 98 110 119 106 134 155 153 136 135 135 111 106 105 106
242 80 61 46 28 13 37 109 83 84 89 67 54 14 34 52 84 86 72 73 85 89 78 49 35 14 20 29 58 72 80 110 124 132 140 147 177 204 181 158 148 145 148 147
195 187 154 79 137 130 82 56 76 94 80 86 42 67 61 54 36 72 108 82 79 94 136 160 131 85 52 40 38 59 67 103 122 113 135 163 232 222 170 150 139 146 152 192
-19 228 301 237 154 176 166 153 85 55 79 61 47 57 37 25 80 69 66 66 101 99 97 149 189 224 159 157 40 50 53 81 126 120 125 148 194 226 228 221 214 194 180 168
51 93 195 176 158 172 114 76 68 46 32 23 39 30 104 103 112 68 21 55 78 97 55 26 34 59 110 196 171 52 37 42 59 118 111 126 196 177 197 219 198 194 198 192
90 41 54 68 48 76 85 117 79 41 19 22 51 73 124 123 111 58 28 131 141 72 53 19 -31 -67 8 118 177 176 86 43 39 69 98 118 135 147 178 185 172 167 176 160
70 126 133 108 89 108 66 84 54 58 41 102 99 131 120 106 58 -15 181 105 73 68 55 6 -9 -44 -123 -52 66 124 135 97 47 60 87 96 138 163 168 186 193 182 189 193
66 111 131 55 106 136 90 73 98 92 71 142 187 171 154 118 92 95 117 64 55 63 35 -23 -34 -15 18 -72 45 138 130 93 89 56 97 122 128 152 156 187 224 242 256 349
95 106 109 138 111 92 56 60 97 136 200 254 222 166 142 87 79 47 30 29 31 32 18 -22 -22 -42 11 13 14 44 93 99 71 84 105 118 115 152 188 197 218 484 622 664
57 104 84 55 66 86 24 91 83 145 163 168 167 104 44 36 29 45 64 23 44 37 32 42 -8 -58 -69 6 8 59 134 153 160 187 260 418 474 529 630 645 672 622 593 656
42 48 53 43 45 42 58 94 115 92 83 53 23 22 22 50 86 70 51 71 79 52 35 19 -29 -17 -58 12 69 78 82 115 115 111 238 390 491 527 571 559 580 669 631 668
27 30 48 73 36 7 80 62 41 70 31 -6 -12 21 35 20 39 73 76 86 80 67 63 32 15 -6 -12 -32 112 147 87 77 140 221 333 457 584 573 606 651 638 622 604 565
64 51 52 46 43 65 20 23 -41 5 -15 18 45 24 16 28 47 68 68 91 89 82 78 80 37 -43 -1 -15 58 173 217 140 237 355 438 532 648 699 718 779 676 656 685 612
36 58 53 60 127 151 127 141 82 42 46 43 34 47 61 66 93 126 132 102 78 63 82 113 93 72 32 62 35 151 181 246 279 442 536 581 550 623 740 921 1038 909 767 754

GFSCGP_con_3kmhel_060.txt.gz
Helicity
120 88 84 39 76 84 92 72 46 20 -13 16 54 10 14 17 27 64 93 69 -3 101 128 247 234 173 273 171 158 166 162 135 113 113 178 255 260 532 435 210 161 108 98 47
342 200 39 52 90 61 105 122 88 34 38 54 74 38 14 9 29 25 56 107 70 68 162 296 310 159 196 199 139 167 167 161 102 99 147 288 341 338 258 277 257 207 53 100
237 256 62 118 84 92 90 83 66 84 42 30 45 20 12 5 1 17 72 35 55 77 165 311 326 154 163 238 205 168 180 185 139 72 70 133 178 176 166 223 235 275 211 165
80 174 217 269 102 105 104 19 5 31 39 75 5 57 5 3 7 46 33 82 24 20 135 264 314 222 147 229 213 187 165 190 159 89 88 127 128 169 145 179 221 187 160 93
67 133 207 192 135 30 90 28 32 25 33 58 74 41 28 39 10 79 78 133 99 85 72 198 302 254 165 166 270 187 154 186 205 167 92 88 89 124 172 147 177 154 81 103
38 42 225 178 19 91 87 35 39 71 58 70 44 53 44 -0 -14 8 51 50 107 119 71 128 235 265 253 155 253 225 161 154 211 206 158 133 101 98 98 88 111 135 96 70
20 138 69 54 113 61 99 166 107 109 152 81 43 48 37 7 29 74 68 48 44 106 105 111 250 274 253 217 264 232 179 140 199 229 219 157 95 114 122 146 146 89 35 30
-3 55 140 25 15 87 133 218 189 157 105 37 25 80 24 -27 7 95 85 35 59 92 71 80 159 256 249 275 285 210 197 125 138 186 203 173 124 105 129 118 133 107 90 60
-17 9 5 3 19 18 131 167 35 5 92 168 131 20 1 57 103 81 13 15 52 57 80 120 82 205 246 304 297 238 182 160 124 135 184 181 174 163 181 124 111 135 112 84
27 -27 146 -2 -16 5 39 77 146 86 184 230 135 83 44 54 83 8 21 15 19 56 64 92 94 183 220 283 304 254 186 142 195 133 131 161 166 180 158 133 137 125 116 81
-14 8 -8 112 65 30 30 89 92 136 108 198 162 129 183 212 253 139 123 140 122 102 58 38 28 96 195 274 293 306 190 161 171 242 154 117 132 135 150 134 140 131 106 120
103 70 14 -30 31 25 45 61 53 193 143 63 110 106 30 66 127 231 170 131 49 44 31 23 41 49 73 218 247 304 232 142 177 236 227 160 128 120 141 137 115 107 96 92
188 78 34 15 39 49 10 49 66 29 46 51 160 100 -11 69 49 91 212 235 149 127 82 58 52 -1 5 76 146 227 320 221 137 198 267 242 194 187 159 145 149 136 101 128
155 112 84 16 8 156 36 -2 5 63 57 82 118 163 223 101 106 64 92 109 208 230 117 96 131 102 229 35 68 111 222 301 214 144 215 276 265 230 199 187 169 163 157 152
25 93 136 75 109 6 20 -12 40 82 47 68 69 56 76 61 118 49 56 68 40 95 125 140 165 189 167 196 258 68 121 217 305 207 157 211 281 242 195 175 185 203 189 192
-109 136 213 129 104 118 91 21 45 122 29 52 21 84 15 2 -13 130 162 160 100 113 139 87 132 140 150 190 237 282 326 127 214 261 224 167 186 222 223 221 241 236 228 220
37 69 169 108 193 193 74 99 -19 11 60 62 64 41 164 116 121 127 168 105 126 116 82 78 103 125 101 141 193 194 260 303 159 176 228 222 179 181 206 250 264 265 275 297
87 81 20 178 162 116 101 107 100 93 74 52 46 70 70 118 143 87 134 183 144 99 29 -9 1 14 -2 -3 26 92 112 138 226 185 132 177 216 202 204 243 269 264 280 309
49 25 54 79 116 100 178 152 163 126 113 36 48 52 112 159 117 172 241 178 140 98 50 20 19 20 14 -31 -6 23 74 94 107 189 177 89 179 225 207 221 246 238 244 265
52 61 67 94 82 179 20 40 38 79 70 134 182 261 305 266 148 117 33 75 89 103 69 31 1 -25 -19 -27 -23 -24 17 96 112 180 180 221 123 188 220 231 229 211 226 212
55 80 64 94 103 92 59 12 47 114 169 280 335 365 414 329 245 129 68 99 68 35 42 18 -2 -51 -69 -65 -44 -32 -5 63 76 117 153 79 139 181 189 207 221 262 411 603
56 93 122 107 115 119 65 87 69 200 342 340 328 226 318 270 170 151 164 154 152 109 67 52 22 18 3 -19 -59 -57 -43 2 50 71 89 70 138 260 432 605 625 701 708 689
64 32 78 64 107 86 87 149 227 222 182 190 209 149 171 144 102 112 107 129 138 138 100 76 54 50 31 4 -23 -42 -39 -52 -11 34 80 100 127 225 409 523 620 729 704 675
40 59 -12 31 22 32 89 118 208 163 117 96 84 79 98 72 85 105 129 149 128 116 91 70 65 72 67 56 46 -5 5 -13 -58 9 79 146 264 374 404 502 664 673 711 712
-10 29 69 34 61 123 333 146 256 172 136 79 38 34 14 30 67 100 119 113 113 103 97 78 58 53 73 68 47 11 -2 28 15 -7 137 229 298 439 519 617 570 719 819 689
6 -29 68 93 86 39 32 94 109 56 40 6 -17 -6 29 48 50 58 78 88 92 93 85 72 80 92 90 75 61 60 49 56 56 85 195 286 369 511 621 708 865 855 850 877

GFSCGP_con_3kmhel_063.txt.gz
Helicity
150 208 213 183 191 127 112 125 94 44 98 19 9 -3 42 80 66 122 112 108 189 310 200 296 367 415 358 266 202 173 156 179 165 144 73 79 104 259 330 202 181 193 110 127
179 137 151 199 164 29 10 60 33 112 89 105 56 49 78 63 49 143 151 162 120 245 304 430 460 430 370 278 207 206 173 175 153 112 98 110 143 124 114 219 189 105 190 174
58 74 83 219 233 48 -52 73 67 103 113 13 57 57 47 41 -18 11 118 175 128 316 378 437 438 409 349 287 208 201 177 177 161 154 142 163 239 252 203 220 106 98 173 213
-56 13 206 246 324 158 55 77 83 128 127 109 3 45 52 57 33 -44 67 164 102 304 365 396 444 347 337 278 229 209 178 188 167 200 154 168 189 202 187 168 96 46 106 318
-44 58 128 159 229 196 180 113 135 116 241 70 34 6 -27 -17 -46 40 1 143 180 309 448 399 391 347 308 326 262 228 195 202 170 181 178 160 144 122 172 127 38 102 132 166
16 37 24 49 206 292 154 216 221 178 111 59 35 47 -60 5 41 21 43 171 195 298 356 323 303 351 264 297 290 238 202 178 175 168 194 193 159 118 92 77 97 46 52 43
25 -92 29 37 173 248 117 294 201 146 149 104 63 85 -16 -10 8 38 25 149 155 278 301 316 328 308 289 320 283 264 207 172 170 182 181 198 177 139 153 146 135 75 75 120
11 -41 -68 64 167 150 156 272 292 210 170 100 42 82 25 37 107 19 49 86 82 260 259 249 242 272 292 339 298 254 237 191 143 169 190 192 192 154 119 145 129 106 138 148
25 -7 12 68 79 111 130 191 65 155 233 243 147 149 20 89 76 73 83 110 109 139 177 147 247 270 268 332 358 289 262 234 178 140 167 183 194 199 184 139 125 118 165 137
27 16 2 -49 64 64 101 58 134 148 232 173 174 114 109 118 100 173 127 182 125 94 126 161 150 213 294 354 406 336 272 257 219 163 120 140 176 183 152 153 180 153 149 143
42 21 17 48 37 57 39 102 126 119 197 281 273 217 198 234 372 356 285 199 210 198 166 94 109 207 275 360 427 376 304 235 223 191 163 120 140 147 138 152 165 165 127 132
60 48 40 8 23 83 64 82 121 189 182 138 111 214 130 203 228 297 335 281 265 300 294 314 388 210 138 329 364 379 338 290 245 215 189 171 155 151 146 142 142 148 138 114
38 71 35 65 33 51 63 75 32 65 128 164 148 92 154 204 216 83 224 188 199 180 219 220 272 257 227 165 111 305 362 346 306 309 251 222 198 173 156 161 147 100 109 132
18 27 74 71 74 33 -2 64 43 58 135 96 124 105 58 171 235 244 32 86 16 171 156 111 151 176 233 243 231 152 104 152 302 382 338 293 283 262 206 161 124 144 145 140
39 -26 24 56 39 -17 -18 84 64 81 59 79 31 61 232 87 203 295 115 79 114 149 184 122 57 61 120 196 254 260 207 103 154 237 299 373 357 318 275 238 189 157 178 185
56 19 -9 -54 44 77 5 29 50 58 80 96 54 71 31 64 151 207 97 76 51 9 79 65 73 75 41 87 107 136 198 227 314 100 187 268 376 407 371 316 276 238 189 179
74 49 26 35 132 113 66 50 97 37 32 94 52 -8 -41 -38 118 40 144 169 84 69 78 41 27 58 81 84 132 162 153 146 181 202 235 124 225 361 378 399 353 294 262 262
54 98 36 14 63 49 106 172 56 19 -49 104 -21 56 53 162 183 152 154 180 152 115 99 79 36 26 43 62 108 149 135 110 119 117 156 218 316 197 207 380 388 391 358 326
82 88 50 15 -14 108 95 135 134 -12 14 90 146 126 148 143 288 249 77 69 90 62 40 37 18 -1 -11 26 55 89 113 129 98 95 132 154 125 139 203 158 320 377 396 403
107 142 122 64 24 87 38 235 160 142 246 340 306 418 330 332 375 305 287 244 197 125 68 -7 -26 -62 -70 -18 -3 13 32 53 97 116 120 100 74 25 97 164 191 284 420 436
81 117 107 97 27 43 42 26 134 205 232 297 337 386 349 381 240 289 324 303 184 93 52 30 -33 -84 -86 -65 -67 -70 -66 -27 5 20 36 41 45 19 21 97 113 181 427 710
89 78 79 103 97 -28 115 85 63 76 167 208 310 396 401 412 357 280 270 227 142 93 59 35 -8 -17 -24 -40 -63 -61 -70 -84 -98 -49 -8 -1 9 -3 0 106 124 238 506 687
24 101 80 88 71 29 120 154 218 241 304 336 333 347 349 343 294 186 164 125 68 49 50 47 20 13 -16 -16 -18 -5 6 -16 -56 -73 -68 -57 -21 48 61 107 216 242 382 526
11 38 53 31 86 145 207 500 416 396 404 355 317 249 211 145 166 110 77 63 59 70 70 65 68 50 36 31 22 20 33 19 -28 -54 -49 -26 -11 35 175 186 190 291 395 467
-40 -47 8 -4 71 265 311 246 357 497 341 275 214 196 167 138 109 81 73 65 62 55 48 50 47 46 62 64 78 84 80 59 42 38 16 38 66 79 185 290 293 304 406 452
-22 -53 76 95 77 279 211 113 112 85 69 128 116 139 191 120 77 86 68 52 55 56 46 57 74 75 93 97 89 99 101 81 63 73 81 96 106 117 178 214 261 614 685 657

GFSCGP_con_3kmhel_066.txt.gz
Helicity
130 164 172 171 105 133 109 93 41 -3 9 53 96 104 -6 29 -12 23 18 119 205 239 309 329 343 372 350 274 229 199 196 136 135 96 101 67 89 61 106 159 140 226 194 180
114 125 98 38 71 89 89 66 -15 -23 -71 40 160 53 51 39 26 27 105 175 217 304 314 349 359 375 370 300 246 194 217 171 132 101 74 98 102 113 130 188 167 200 119 106
103 81 49 73 87 86 94 90 38 -4 1 61 82 21 128 103 48 50 56 33 229 352 357 377 359 362 374 303 273 224 218 206 137 93 74 57 93 174 224 137 227 273 188 120
79 10 62 101 118 143 116 77 88 49 55 9 85 -129 170 74 59 51 5 15 168 262 313 378 424 332 321 264 244 244 218 214 156 109 61 67 101 178 126 2 57 243 139 137
70 43 26 81 19 135 122 187 61 53 87 36 107 73 85 48 53 31 7 47 82 277 336 363 414 333 309 263 220 234 226 218 189 168 122 50 25 68 35 -1 -7 102 196 172
54 58 77 26 11 163 194 223 108 32 56 -3 28 20 -96 -18 1 -20 17 44 72 228 310 300 331 295 305 245 226 213 240 221 228 177 177 130 94 32 94 114 80 69 69 228
111 78 145 100 23 85 168 223 210 145 77 -56 22 3 -17 26 -7 13 45 72 78 226 325 353 338 297 284 270 223 184 224 230 232 213 163 154 159 120 88 84 74 -11 -27 15
40 61 61 141 68 87 84 185 225 155 99 43 -2 -39 -50 -28 33 42 76 93 130 249 346 334 262 259 270 272 223 180 201 214 220 225 192 143 151 153 110 62 19 53 57 116
40 43 44 80 42 53 89 135 150 176 172 118 132 108 -21 -5 135 121 112 42 123 200 248 243 158 195 239 238 228 215 181 193 214 199 198 181 115 127 108 71 57 90 73 48
36 55 16 43 83 82 100 88 167 225 197 155 171 142 89 192 192 166 155 145 174 159 166 120 141 134 147 204 182 182 171 172 201 212 195 169 173 99 63 100 103 106 78 49
58 27 15 37 -12 10 105 92 114 193 200 254 305 305 383 366 460 353 393 453 360 246 129 89 70 31 71 98 176 186 169 162 162 179 208 199 168 158 118 95 106 115 95 94
62 47 44 19 13 39 77 67 97 102 177 127 252 219 477 398 518 438 487 554 592 525 402 283 145 81 46 49 91 82 69 137 221 192 179 189 203 196 195 183 129 104 126 128
76 57 58 84 72 94 57 38 52 92 149 159 101 9 18 229 393 741 291 276 377 428 449 442 430 354 241 130 -20 19 35 60 85 146 203 187 180 186 220 232 212 190 144 108
58 49 55 68 88 61 59 29 49 37 77 146 100 75 -105 -45 267 433 165 114 112 197 276 312 356 343 307 261 224 196 173 75 17 125 159 203 235 255 222 198 207 225 201 161
73 30 37 43 29 30 28 -50 50 21 64 85 83 43 8 24 107 253 380 34 6 74 116 166 209 239 253 233 224 217 201 168 173 62 147 159 160 168 197 220 202 206 214 224
79 47 24 16 37 57 3 3 -26 38 34 31 34 59 34 70 61 182 179 96 39 95 76 17 72 127 167 205 190 185 224 234 164 151 209 126 87 149 192 215 240 261 254 245
42 37 10 42 69 61 20 38 13 38 37 34 90 78 26 66 95 202 181 192 108 53 97 89 81 114 134 136 157 191 196 200 213 202 177 185 194 192 96 127 193 247 268 297
34 32 -3 8 33 -14 56 95 32 4 10 -3 60 59 39 -3 28 178 126 78 106 112 142 111 53 79 153 160 126 69 93 147 156 167 197 205 220 159 151 178 187 119 207 247
39 69 31 -2 33 22 25 66 194 85 82 52 40 96 47 85 289 302 214 150 136 113 73 53 73 89 79 99 101 99 98 85 80 112 132 132 142 181 192 165 156 138 130 143
92 111 87 45 14 -2 21 59 71 92 110 148 59 79 73 231 340 222 160 129 138 119 79 42 45 55 62 83 62 51 72 78 89 89 89 81 70 52 52 149 183 116 95 86
63 92 77 87 88 51 25 10 5 137 121 231 292 255 278 295 251 202 199 199 112 76 84 39 9 -0 23 25 8 12 26 45 49 47 34 24 26 32 47 32 4 77 135 74
-3 27 49 73 77 30 17 75 2 60 137 167 268 292 335 353 315 249 200 180 147 111 56 24 9 7 -18 -29 -31 -30 -26 -37 -31 -17 19 57 54 25 21 42 44 31 33 83
33 110 81 61 41 68 103 164 266 188 177 237 172 132 122 163 189 198 181 154 131 112 90 64 27 22 24 5 -10 -15 -9 -18 -32 -33 -35 -41 -28 17 45 94 123 97 86 131
-8 10 19 88 77 140 207 332 461 409 410 366 287 206 191 170 173 154 161 138 98 88 89 61 45 35 32 16 9 7 9 1 3 7 21 6 11 28 100 83 115 113 113 171
21 1 13 72 100 161 278 316 426 458 318 309 310 261 168 143 167 115 97 82 101 108 113 118 80 54 44 35 36 50 49 13 13 30 30 25 17 9 22 135 261 236 316 253
31 -26 -20 88 135 142 282 214 118 93 294 313 265 198 165 142 139 153 165 139 109 133 149 138 117 95 91 81 95 118 112 91 75 87 98 85 75 68 42 33 127 425 512 509

GFSCGP_con_3kmhel_069.txt.gz
Helicity
173 172 130 139 149 125 112 120 23 4 73 43 12 10 -36 1 37 55 72 72 88 118 230 394 366 319 259 223 188 164 159 181 182 179 120 62 42 60 77 77 100 127 146 117
183 101 78 68 87 115 166 115 3 -29 21 0 8 31 -22 36 77 46 22 29 105 116 299 346 355 306 289 235 181 174 152 172 194 196 120 70 34 45 54 97 114 163 170 200
127 103 65 57 94 151 170 154 49 0 16 -39 -11 -11 -55 24 3 47 85 61 79 199 292 348 327 314 289 265 208 179 158 173 183 258 198 110 119 114 94 123 179 173 204 229
81 76 104 53 78 113 116 147 55 -8 37 -55 101 -102 -78 -6 33 45 150 86 86 124 193 357 356 320 295 273 208 186 163 153 188 262 187 97 48 70 115 177 176 177 177 200
86 111 90 45 58 103 140 138 97 4 44 -19 115 17 -129 -21 3 68 108 92 59 26 224 336 349 334 300 276 225 213 148 133 170 196 179 82 42 46 152 198 123 136 268 228
57 66 63 64 23 56 108 94 100 47 77 30 75 89 -154 17 -6 35 52 72 43 20 15 235 355 354 319 250 230 203 181 135 133 143 153 120 66 60 107 127 145 -17 94 225
110 105 142 116 80 61 85 87 121 121 126 56 14 66 -35 68 103 72 28 40 3 30 121 267 371 325 311 281 255 190 187 144 130 116 89 86 81 56 65 117 107 116 38 254
69 114 76 67 76 65 88 87 156 135 145 91 102 8 -6 16 -114 21 44 49 39 36 178 275 325 319 286 263 264 192 180 145 132 136 102 42 24 77 59 76 75 40 62 56
65 72 48 64 62 119 82 79 97 134 147 83 121 61 -6 -9 -95 -24 4 26 47 39 146 253 275 243 257 245 232 205 180 142 124 128 131 113 57 22 82 76 25 30 -18 -31
73 78 52 50 84 55 47 133 93 116 108 57 112 134 75 168 156 98 147 159 100 121 149 156 184 167 169 179 156 139 135 139 98 108 108 116 115 64 53 85 70 2 -18 45
72 87 71 54 54 62 55 36 62 130 133 83 130 137 242 295 289 217 288 313 221 103 148 171 152 106 179 172 126 128 122 97 78 96 103 93 105 100 80 71 80 86 31 21
87 81 108 29 14 80 70 71 65 67 110 158 177 175 320 484 419 356 295 421 344 261 249 204 156 53 7 29 49 74 105 114 117 103 111 120 120 119 123 92 63 58 72 92
44 66 79 96 103 109 75 59 63 63 69 86 83 165 195 400 576 520 376 335 431 472 506 482 421 357 269 155 101 108 87 81 88 107 102 110 145 150 139 120 108 103 98 86
85 62 45 67 95 50 80 93 46 41 83 80 78 44 39 287 547 513 508 246 281 401 472 474 464 385 340 330 313 269 252 184 88 38 120 139 140 179 180 178 165 165 167 147
51 -15 39 31 43 22 31 0 51 38 39 48 57 12 -71 1 -89 132 307 261 199 256 322 351 379 359 312 283 251 224 227 186 162 177 166 92 83 136 158 167 189 213 230 222
70 -6 22 34 50 59 24 -11 19 -33 -4 70 43 67 1 36 25 73 134 156 215 288 273 341 245 271 268 253 237 210 200 178 148 133 147 153 201 205 103 84 157 179 194 216
45 21 20 27 61 63 29 19 58 19 33 10 48 44 79 -19 -31 38 174 260 172 141 103 107 131 72 93 110 130 151 156 175 184 195 196 182 181 175 168 162 191 133 106 143
41 12 -12 -43 -9 15 43 110 47 51 27 55 26 14 44 46 233 207 252 177 138 91 92 97 100 33 63 90 110 103 140 157 171 189 195 180 193 190 184 189 176 149 137 152
37 68 16 -9 6 27 48 43 33 74 77 51 18 45 68 183 469 415 284 205 161 86 72 56 84 101 105 127 121 113 114 106 107 122 138 159 160 150 135 137 152 143 138 122
101 96 64 42 15 28 58 133 26 26 73 65 41 9 164 124 218 217 129 123 68 86 68 74 65 57 80 106 90 86 94 87 96 91 82 68 58 52 94 121 124 108 113 120
52 57 34 50 59 53 18 30 29 29 60 65 63 137 106 97 58 197 170 152 135 108 94 89 88 101 102 93 84 100 111 127 98 86 83 86 86 66 64 41 45 77 110 109
17 10 27 43 45 31 35 39 40 46 137 80 262 288 392 301 314 228 188 158 128 123 101 73 64 89 95 90 75 84 102 83 79 90 99 114 122 108 101 111 99 93 89 77
26 38 66 35 42 78 60 115 163 126 96 70 208 227 336 342 264 190 185 83 94 96 89 93 76 79 87 81 74 66 65 38 37 45 68 98 125 156 142 157 156 122 129 117
1 7 10 50 66 110 136 156 244 293 308 240 178 121 61 58 52 77 89 104 119 118 125 97 101 106 104 101 110 95 66 39 35 37 39 42 67 94 129 85 96 110 85 81
43 25 32 23 102 137 169 167 191 329 337 309 279 204 149 122 142 119 113 120 128 134 151 140 126 121 121 121 143 145 133 96 95 99 105 104 82 58 73 153 119 94 156 99
53 39 21 57 71 158 158 214 206 163 235 274 298 219 157 119 122 112 101 122 131 134 133 139 141 143 146 150 156 159 126 99 72 89 93 83 76 65 40 4 45 214 218 240

GFSCGP_con_3kmhel_072.txt.gz
Helicity
143 177 175 105 142 146 125 80 41 95 98 39 48 -4 21 4 25 42 44 56 74 94 76 223 307 344 319 230 229 167 189 170 185 149 134 135 105 75 80 72 82 180 239 349
142 123 75 98 96 93 97 101 76 82 65 56 -16 -96 3 -2 21 38 65 73 18 36 174 209 296 342 292 251 208 174 165 174 186 158 93 108 91 58 60 76 84 93 124 182
115 101 157 123 92 80 90 110 124 118 27 46 -5 -244 -31 -71 28 58 33 35 53 60 126 171 241 301 294 230 240 173 170 179 184 175 162 132 101 68 71 82 101 119 106 124
76 89 89 127 119 72 59 70 74 106 101 78 30 -194 -82 -48 7 0 33 34 66 72 86 192 239 268 270 224 212 173 175 173 197 205 180 121 57 46 51 89 106 125 172 144
77 66 105 121 65 19 15 58 104 139 132 96 28 -9 -120 -36 -3 3 14 58 75 94 123 165 216 257 230 228 196 175 175 165 192 175 188 152 79 51 42 73 90 126 181 208
60 72 70 60 63 46 35 80 76 114 122 97 40 76 -105 -25 16 31 23 58 81 132 138 152 172 231 213 185 150 185 158 134 149 158 170 160 134 94 75 75 109 92 127 191
84 79 141 138 92 89 110 68 110 115 189 186 35 31 -31 26 120 20 65 118 104 113 63 206 257 233 200 197 189 192 156 123 117 142 127 124 126 104 69 76 94 99 93 130
64 116 60 64 82 93 95 67 134 116 120 79 40 5 44 144 24 73 28 53 28 79 66 160 228 235 240 201 194 172 164 102 93 96 88 82 92 109 103 81 71 86 59 -7
68 79 43 60 79 85 61 61 118 117 110 73 30 53 116 149 128 -27 22 8 39 56 27 117 210 216 228 180 176 140 148 88 57 49 50 65 69 76 77 79 84 84 50 -17
73 74 41 62 117 107 68 67 101 112 99 9 36 60 97 106 125 62 36 96 125 77 56 138 180 168 139 109 152 144 129 79 61 45 35 31 45 56 73 89 76 63 51 30
134 101 78 53 38 69 69 74 55 68 94 121 53 87 79 62 59 54 59 98 156 125 79 58 163 133 115 119 140 123 99 80 60 55 38 43 44 45 50 66 61 54 52 44
221 115 84 40 31 62 103 81 52 32 26 87 69 58 105 109 115 110 112 188 344 351 305 161 95 140 108 107 99 82 85 64 56 75 63 56 57 48 60 67 73 58 41 24
53 100 121 119 81 123 98 54 67 71 26 41 67 80 107 226 292 257 196 186 232 318 385 401 464 433 338 273 204 158 150 96 54 44 52 59 79 84 81 71 69 73 78 86
59 93 59 67 65 17 58 80 32 -6 47 67 43 8 65 123 262 299 318 306 256 271 285 349 431 469 447 432 372 337 267 182 123 30 45 50 68 84 91 94 97 97 102 92
113 87 75 29 5 -32 -19 2 45 -38 -6 20 62 42 -9 8 19 55 119 252 281 257 314 366 340 352 378 363 339 291 246 223 182 227 193 159 108 43 54 87 100 103 108 96
166 85 43 18 15 22 -25 27 -14 -10 -5 22 24 49 -11 44 56 51 55 67 246 238 288 315 342 319 299 276 263 288 289 185 221 182 184 169 168 165 180 199 192 83 86 125
36 16 21 -35 23 42 11 -28 24 0 -6 42 16 -9 -5 48 76 125 130 162 181 121 263 362 400 351 215 188 146 156 167 128 139 138 147 156 151 144 156 159 162 171 176 172
31 24 2 -45 -33 -26 -1 62 -6 20 41 26 23 4 26 119 178 216 195 257 261 289 196 108 242 407 117 124 94 79 94 96 121 141 147 158 163 154 147 142 154 155 157 156
42 41 18 -50 -39 -5 30 55 51 32 103 16 25 0 113 158 238 366 291 251 186 168 143 235 122 47 55 54 42 37 60 79 101 127 149 147 131 129 141 145 138 144 143 142
96 67 50 29 -16 -37 -5 92 139 17 68 65 35 20 154 199 212 223 265 268 196 105 86 96 34 32 47 78 62 62 75 81 98 95 99 111 115 135 147 139 130 130 132 132
59 52 33 29 17 19 35 -32 -33 -1 47 1 26 21 134 179 200 283 108 149 88 60 45 34 32 55 73 80 66 77 86 102 87 80 77 91 95 98 120 122 134 140 129 113
37 24 31 41 32 20 39 64 52 38 39 13 172 203 308 267 348 283 226 231 205 104 91 86 70 88 110 122 95 101 119 109 92 90 102 108 128 102 106 98 97 123 106 123
47 32 13 21 35 45 37 9 68 116 55 9 58 168 339 402 311 272 212 215 138 127 99 90 94 116 127 144 144 131 129 115 113 120 142 156 164 175 179 194 180 151 147 126
29 21 20 32 67 59 36 60 96 175 240 167 104 64 147 178 118 123 79 76 71 62 88 86 87 95 121 132 152 150 148 132 147 174 175 173 201 224 234 242 266 261 243 217
18 15 44 13 42 79 107 91 86 123 161 183 189 186 182 119 139 65 81 85 65 71 100 122 115 120 139 134 153 161 140 121 130 143 149 157 155 162 202 242 230 234 256 183
36 44 52 45 42 59 91 111 130 147 124 95 127 149 150 112 132 95 104 87 66 87 102 109 111 126 149 175 185 170 150 111 102 111 107 109 97 82 64 53 95 227 230 246

GFSCGP_con_3kmhel_075.txt.gz
Helicity
104 123 100 84 86 47 52 41 37 33 41 42 19 19 48 32 -24 -21 64 91 112 103 97 67 74 130 193 215 226 209 202 186 182 146 151 148 128 56 51 59 38 79 98 123
103 59 50 68 66 50 44 36 37 16 -8 25 21 8 31 -10 -53 0 83 111 82 85 90 47 60 95 187 259 252 213 199 193 163 124 148 133 125 27 23 14 14 17 131 186
75 67 75 69 66 60 45 33 36 11 29 19 19 -6 30 6 -33 26 -3 44 68 69 89 32 78 109 167 244 261 238 207 178 155 138 131 144 112 45 42 47 83 129 190 279
74 79 84 78 73 67 54 8 -14 -2 6 33 71 74 139 81 77 52 70 79 49 56 60 60 60 71 134 196 213 196 198 184 153 140 152 143 107 73 15 51 59 108 97 99
70 54 57 46 47 66 30 22 -20 -3 -5 17 39 87 71 50 83 45 57 36 53 37 37 29 -18 26 95 158 194 201 172 180 161 116 135 107 69 30 33 -3 40 65 120 75
66 65 51 34 52 58 51 26 12 -13 23 30 9 65 30 -1 35 122 152 123 110 96 45 46 21 64 93 119 168 192 193 170 158 115 103 101 86 79 73 51 24 56 80 104
53 52 58 68 51 52 37 49 36 3 29 51 51 39 37 16 84 89 139 188 155 133 78 103 84 59 87 125 178 188 168 163 145 107 92 98 89 73 64 50 47 52 76 55
71 84 33 34 21 71 49 60 57 29 15 13 55 38 65 47 85 56 103 141 140 137 62 99 71 66 86 114 155 173 191 154 111 81 78 72 64 50 33 42 47 49 58 10
44 72 35 29 18 -2 40 37 59 57 53 49 74 49 38 68 103 145 102 114 129 99 107 60 51 66 75 108 114 136 149 139 82 45 49 62 55 42 31 31 32 40 49 51
92 63 58 39 45 89 58 54 64 62 63 56 46 43 107 45 84 22 26 74 130 124 133 91 74 86 65 114 105 108 97 103 85 54 36 42 44 31 22 20 20 32 36 28
107 99 76 38 20 30 57 83 52 52 66 71 99 20 50 37 21 9 50 82 131 228 177 138 96 91 94 130 106 94 106 116 93 68 52 46 36 28 20 18 24 36 36 31
109 96 70 37 61 29 41 50 53 77 54 33 42 -20 4 43 46 13 3 77 137 179 255 280 101 132 196 192 152 124 139 148 129 109 86 63 49 37 23 13 7 6 21 39
127 91 72 116 98 132 96 71 42 47 67 18 38 24 89 111 137 89 20 85 163 206 286 319 458 421 456 313 283 322 334 307 185 93 90 76 60 58 41 29 17 9 0 5
208 76 102 132 191 109 87 62 -3 -39 31 62 57 51 14 13 124 175 83 70 156 224 268 384 479 443 463 412 444 408 397 350 173 103 112 105 81 75 72 49 45 40 23 6
136 111 79 49 34 10 23 42 38 -15 -10 59 53 73 -26 -17 -17 -21 -9 87 111 222 285 377 455 465 386 366 369 382 381 259 222 212 177 140 132 123 114 101 67 51 60 47
78 115 63 62 22 13 -1 -9 -8 -19 -40 -9 33 65 -7 -44 45 99 64 48 59 239 276 288 303 387 391 359 331 324 317 330 254 183 180 152 152 135 138 125 113 121 144 147
42 99 116 122 90 60 -16 -17 29 5 8 13 21 9 -11 -55 19 73 62 129 123 111 367 378 352 392 408 420 358 339 330 265 244 307 115 172 146 130 129 126 135 150 149 144
41 18 15 76 88 31 25 56 -14 -1 11 37 47 25 38 47 340 299 211 196 181 176 203 346 439 355 300 210 215 222 270 297 277 163 142 136 126 133 137 144 152 167 171 189
1 12 13 54 56 54 11 54 72 28 22 46 60 43 31 94 170 190 270 297 255 256 256 341 311 240 309 222 150 153 166 132 127 146 139 125 128 134 143 159 161 167 151 147
36 47 56 37 18 12 7 30 45 -12 24 88 94 54 28 32 62 167 214 266 273 243 278 355 344 290 203 56 24 42 53 75 105 110 117 100 115 129 148 151 155 153 139 137
55 62 30 15 5 1 36 45 0 8 46 13 26 64 -20 67 171 380 399 434 271 169 120 73 50 75 68 60 34 49 64 76 77 80 93 131 142 139 142 145 164 159 155 145
60 42 28 11 5 -5 67 42 46 49 32 2 1 69 253 236 349 387 291 268 194 102 51 5 13 33 49 66 53 50 63 58 54 72 78 102 129 153 164 177 189 197 182 179
81 79 46 19 54 54 40 35 27 73 51 34 10 15 140 255 289 231 175 120 125 89 78 33 41 55 89 101 97 88 85 69 62 75 100 94 89 98 114 122 127 141 147 136
35 38 28 22 101 108 27 31 68 85 101 105 86 40 31 106 99 136 140 121 131 106 62 33 63 81 101 117 119 112 97 87 91 101 109 128 151 151 160 159 161 149 143 126
14 3 9 14 23 29 101 79 71 112 120 144 121 105 82 89 115 76 80 80 75 64 69 59 61 91 109 107 126 138 129 106 114 122 127 135 131 146 169 223 201 184 213 169
10 12 21 42 37 66 61 67 70 89 93 79 71 94 98 79 73 60 103 80 92 106 77 83 97 105 134 158 168 163 147 138 137 158 178 173 156 147 137 130 150 250 242 258

GFSCGP_con_3kmhel_078.txt.gz
Helicity
51 67 36 18 30 29 56 40 26 18 17 35 49 39 42 35 59 67 103 48 16 -3 122 87 60 47 44 53 104 167 213 172 186 143 139 118 130 125 83 33 30 46 79 230
78 21 29 45 40 29 7 9 6 5 15 19 19 32 47 41 49 37 37 11 -27 21 118 70 47 38 40 67 112 190 204 183 159 136 123 136 172 119 34 15 25 20 35 72
62 93 96 20 16 28 10 4 19 32 49 13 7 28 -5 19 42 22 2 -36 -51 20 97 14 68 48 52 65 136 183 194 176 142 100 114 153 201 113 46 23 6 -33 24 105
66 58 49 33 36 54 50 69 43 22 4 29 37 -25 35 21 17 57 29 -11 -15 -19 22 51 98 55 37 68 116 149 158 161 128 96 121 144 146 99 12 12 52 51 90 161
133 75 33 16 15 55 49 94 49 15 3 16 13 3 -8 -26 23 21 23 12 18 31 36 73 85 58 47 96 115 152 146 123 125 100 107 120 106 55 18 9 14 38 85 135
52 53 65 26 49 34 86 28 6 -13 -5 -2 12 -0 19 3 93 138 128 118 114 104 104 84 72 62 53 110 117 123 135 115 106 108 94 111 92 60 47 25 26 32 64 90
51 21 11 40 30 34 20 23 21 -5 11 17 22 -8 -3 19 31 113 116 123 93 118 92 46 33 26 62 74 140 130 112 125 119 93 82 77 78 64 42 32 17 34 34 67
70 26 26 22 1 60 -0 -11 44 44 22 50 -6 -14 55 55 12 2 11 105 153 152 118 60 39 24 60 86 119 127 125 127 123 85 77 71 78 59 42 29 31 34 28 21
94 74 68 28 26 -13 38 20 55 37 -5 17 9 -12 12 40 25 31 -1 66 132 218 143 85 61 84 97 94 112 110 119 123 113 92 66 70 69 57 49 44 30 18 19 29
124 97 70 65 42 37 35 69 44 27 31 16 22 18 45 53 60 33 8 17 94 158 180 88 50 84 64 114 101 131 116 100 113 104 71 51 48 45 29 22 19 23 26 25
70 75 71 63 24 21 39 16 37 57 56 53 52 49 66 51 57 37 26 35 24 139 193 195 148 184 97 114 118 155 110 131 153 116 52 62 50 49 36 21 9 -5 1 6
91 95 48 16 43 62 47 36 13 55 37 46 36 29 63 70 67 32 56 59 106 144 241 282 276 107 127 137 141 163 175 161 175 128 105 83 73 60 45 30 12 -5 -9 -5
179 97 65 38 46 49 38 58 76 76 52 59 31 30 112 11 89 85 33 62 98 133 247 316 383 411 443 414 306 324 271 280 264 157 124 119 95 86 63 41 25 6 1 -2
177 107 80 79 78 122 79 47 27 36 22 54 35 87 -12 -51 -116 -45 35 -0 92 166 221 297 406 466 453 411 518 572 555 473 340 220 253 249 183 122 81 52 43 30 11 3
-81 80 56 70 151 314 132 76 47 15 23 20 49 53 76 44 -6 41 14 6 64 134 245 326 385 428 428 464 528 500 565 510 349 243 250 253 235 232 223 197 161 126 92 62
-8 39 60 53 41 42 78 19 32 25 8 -4 20 17 -3 3 -2 88 87 50 14 27 223 313 324 338 427 506 495 418 436 424 261 266 267 230 210 205 197 179 178 185 175 180
-4 29 120 108 70 62 89 -3 -0 13 10 22 47 59 22 18 -16 35 80 44 27 74 241 309 329 356 366 389 409 394 354 287 297 279 314 275 194 149 174 155 161 181 192 200
-29 101 224 151 121 95 86 66 41 20 17 55 43 54 45 33 136 332 182 133 114 58 86 252 345 345 363 294 336 359 357 316 367 373 294 325 379 143 132 139 142 146 146 167
-5 24 62 92 97 144 46 66 83 70 32 63 99 80 17 52 225 178 131 206 246 185 200 173 199 355 304 263 225 215 244 247 230 201 250 310 279 144 131 151 172 170 170 182
16 25 45 48 98 123 57 50 79 40 4 96 98 83 43 24 58 93 154 203 260 268 297 304 303 281 304 437 248 259 342 342 255 220 188 181 108 113 134 123 132 137 154 173
44 21 28 43 48 25 32 35 23 36 61 48 12 24 50 47 113 225 310 415 274 209 263 327 353 376 309 202 135 194 143 182 145 102 104 117 110 129 131 133 130 122 129 137
17 25 35 27 32 38 77 33 45 61 34 51 28 17 22 137 214 228 248 255 192 156 127 123 144 108 51 21 25 60 89 68 71 93 104 132 149 131 130 131 117 117 121 131
84 83 83 74 61 49 40 55 42 37 40 39 39 33 45 89 116 138 189 150 127 70 70 27 -2 8 68 91 86 87 81 87 97 94 119 139 148 167 160 136 136 142 153 170
46 82 62 49 83 121 126 83 57 64 60 54 73 58 88 87 48 83 106 123 140 121 126 46 37 45 70 85 89 85 75 66 68 89 105 125 152 163 173 179 193 184 174 160
38 56 59 39 44 53 60 85 64 68 77 88 83 60 39 38 44 42 43 51 59 96 131 64 64 59 77 91 106 115 90 73 72 81 89 94 99 117 143 186 180 179 222 183
16 23 15 45 44 50 37 61 61 65 58 42 37 52 60 54 50 57 53 62 94 116 132 117 107 108 126 123 132 131 120 98 89 94 102 101 97 92 85 90 122 218 216 234

GFSCGP_con_3kmhel_081.txt.gz
Helicity
44 78 70 22 58 27 71 89 63 91 69 41 40 38 10 5 15 28 30 39 64 42 15 7 3 54 63 87 112 121 122 136 162 153 134 143 147 133 127 129 108 95 65 63
87 60 17 41 42 60 42 45 38 18 5 -36 11 3 -11 -16 -8 -0 -2 21 28 31 16 -0 7 82 41 80 106 133 122 136 169 136 120 153 143 114 111 113 86 39 38 43
72 6 99 91 51 38 34 25 38 54 58 15 -21 6 -17 -36 -27 -18 4 3 11 35 13 7 14 89 46 47 95 122 126 139 153 141 137 158 150 132 121 104 74 28 16 22
68 53 68 57 37 46 45 16 66 50 24 9 84 63 94 34 -1 -7 -10 27 36 19 5 8 12 97 16 43 71 98 129 140 125 143 140 133 146 121 100 91 35 16 24 49
30 65 57 70 39 43 32 101 73 23 13 33 24 17 21 11 -15 6 27 27 20 -0 4 9 -14 40 68 72 89 114 124 119 101 95 127 87 87 96 112 109 62 47 89 92
2 17 53 38 80 58 12 64 11 -13 -9 14 30 -11 13 24 119 94 85 65 14 5 1 8 7 3 112 77 101 98 120 137 86 91 110 84 117 106 142 133 99 77 84 93
-9 23 38 49 41 67 49 16 35 19 20 25 14 51 22 34 90 56 98 129 124 101 135 105 73 58 110 97 99 98 135 131 103 109 94 93 99 109 117 115 108 94 86 86
57 35 93 66 -4 31 48 46 68 99 40 35 67 10 74 118 40 37 63 128 130 156 200 76 34 64 78 108 102 96 146 110 109 102 93 81 74 80 110 113 88 77 80 71
26 15 141 75 41 -2 51 33 -5 21 45 34 15 21 25 190 135 97 91 128 108 120 193 299 60 73 85 122 194 170 97 168 106 100 97 88 95 89 97 105 86 61 68 90
62 58 46 39 44 15 8 53 60 33 36 29 -18 -38 178 141 130 50 77 77 93 120 206 361 141 60 71 141 99 141 194 177 124 114 131 91 72 69 76 77 82 76 50 55
75 38 26 67 56 3 40 29 55 71 48 41 69 56 86 48 11 37 69 47 63 97 181 306 433 157 171 131 91 145 191 157 172 158 135 104 81 66 77 47 48 53 79 64
147 139 64 24 12 5 56 20 21 51 52 49 40 22 70 34 31 55 94 70 45 72 140 246 283 372 136 74 91 148 163 194 200 178 159 118 96 76 63 61 45 50 58 45
137 145 88 38 33 34 64 33 41 69 50 33 38 25 -33 -36 -39 -11 30 21 41 97 166 245 299 323 359 415 296 305 277 188 251 246 196 170 126 84 76 60 47 38 37 30
-17 85 118 100 61 94 90 5 74 46 69 56 46 63 -79 -105 -32 26 -25 -5 10 50 132 235 312 363 341 403 440 559 692 585 388 359 348 286 214 192 165 153 76 42 34 33
15 55 81 91 104 34 -9 97 47 25 26 40 57 67 44 21 34 6 39 38 -13 44 82 213 302 363 368 408 484 583 629 577 507 489 415 331 278 258 246 239 204 191 213 206
52 -61 45 83 61 45 76 156 165 92 90 65 49 20 78 41 -8 -35 40 40 30 -1 27 117 269 340 390 430 458 526 558 540 460 494 412 306 299 292 276 274 263 246 222 220
45 29 -64 27 29 58 51 104 69 32 56 54 90 108 113 105 72 55 104 93 69 54 24 23 182 315 383 408 445 455 541 524 492 441 372 310 295 314 288 265 283 296 292 280
48 28 56 126 112 69 61 113 52 55 44 107 102 61 35 24 121 234 228 151 103 102 113 84 138 267 360 377 390 353 432 489 517 454 357 330 284 301 288 214 214 228 234 254
14 -21 54 73 88 121 36 113 76 87 78 100 93 79 -6 8 35 101 111 138 137 152 164 136 94 210 352 392 321 402 422 346 378 453 376 350 336 326 250 315 227 103 108 156
-19 -37 8 76 104 127 99 61 77 75 40 74 76 85 83 8 30 87 107 154 249 246 213 194 167 137 141 213 377 383 334 364 318 385 329 205 331 354 326 254 228 109 112 124
-8 -21 69 114 107 84 137 49 48 70 87 58 39 24 30 31 93 137 152 158 196 180 178 201 228 231 177 132 78 85 265 329 257 136 120 146 184 189 172 161 139 113 105 115
25 36 12 44 61 72 146 38 80 63 42 49 41 21 -1 29 74 137 141 147 162 144 135 120 161 199 204 154 118 141 126 70 97 116 107 105 111 107 105 140 128 120 121 148
58 62 84 77 105 79 50 57 64 58 46 40 19 14 40 72 85 121 121 140 161 126 57 54 77 72 63 47 61 91 111 109 110 124 146 158 171 207 232 203 168 151 149 150
80 105 55 40 46 39 44 54 97 85 71 48 39 33 38 64 53 85 62 80 134 167 121 96 74 69 76 105 102 97 92 89 103 122 137 148 162 164 161 170 205 235 199 183
34 87 72 1 9 5 39 78 72 73 65 61 73 44 36 40 49 39 38 54 86 109 140 180 102 64 89 108 145 134 125 119 125 130 126 127 128 142 169 240 215 188 225 217
30 20 57 51 49 43 54 51 65 68 59 52 34 36 38 33 45 54 59 58 60 78 84 122 145 99 95 108 123 153 166 120 108 118 126 132 122 115 117 127 162 250 247 252

GFSCGP_con_3kmhel_084.txt.gz
Helicity
51 74 52 13 32 36 53 72 63 58 28 65 36 33 34 14 23 41 22 20 45 36 -4 -1 29 -11 25 129 243 375 397 264 173 306 196 190 186 182 200 193 173 127 126 118
16 97 -20 2 2 54 73 42 43 61 17 20 38 31 26 28 15 44 51 8 15 46 43 60 47 54 103 167 226 334 317 189 183 199 123 167 137 153 161 196 150 142 139 91
32 3 53 65 54 38 36 46 31 2 40 42 44 15 16 26 79 18 -28 13 23 40 17 31 45 29 193 181 249 307 228 184 167 147 164 216 207 190 169 161 143 110 65 47
24 1 4 53 74 58 38 35 20 51 43 47 43 -15 18 20 56 6 19 -45 -33 12 23 38 24 -9 187 192 267 246 210 176 174 158 203 216 208 176 198 135 140 81 43 34
12 43 55 64 38 43 59 26 48 89 43 20 32 28 -21 18 6 -4 50 5 19 9 40 55 26 21 205 219 280 232 227 183 195 171 225 178 170 131 135 127 136 101 115 93
4 -4 14 58 31 17 72 56 59 62 56 9 68 14 8 33 83 100 176 206 136 30 38 61 33 40 160 247 288 238 224 170 152 170 170 102 94 147 113 177 182 165 128 116
5 54 53 24 38 18 57 36 13 -2 21 35 51 -11 32 71 76 74 135 253 107 134 234 282 184 21 59 270 282 264 224 165 153 131 120 99 148 197 149 189 173 145 123 114
46 54 20 111 65 5 37 18 52 9 29 21 37 41 35 6 158 361 349 316 231 152 182 247 233 196 70 345 325 277 181 138 182 115 138 136 211 152 131 150 152 117 103 101
81 31 170 107 62 56 27 49 10 -33 -7 7 41 55 66 333 289 254 204 140 98 133 168 242 271 359 50 176 233 214 139 159 172 166 158 165 185 118 115 114 123 87 111 97
155 223 25 60 56 45 14 54 53 98 19 11 31 29 144 129 228 92 28 63 98 157 181 187 411 545 242 248 338 319 168 191 234 190 147 149 211 178 137 132 115 114 88 91
206 235 74 51 176 30 28 51 42 40 50 17 -2 -29 66 1 53 42 3 31 84 117 159 198 373 523 561 247 288 288 324 269 228 208 228 241 176 131 113 98 103 113 92 100
89 99 122 80 20 73 -28 27 33 60 45 46 20 -6 -122 -69 -75 -10 -1 20 18 83 156 163 260 426 409 427 320 181 191 205 241 268 242 215 172 178 127 102 86 110 121 83
94 161 118 93 83 28 93 48 4 11 72 44 16 -20 -91 -87 -55 14 -3 25 -4 14 126 196 235 314 329 303 263 311 288 141 189 260 224 200 157 151 115 103 91 108 103 78
117 71 106 114 96 178 101 147 70 111 69 31 27 40 14 -81 -53 59 23 16 13 24 50 159 233 287 336 312 305 351 398 375 346 387 384 399 384 338 322 246 182 133 116 86
31 45 66 123 38 57 54 107 53 94 79 63 51 22 89 53 40 110 15 7 18 31 79 92 158 252 336 412 407 468 488 522 424 459 483 409 382 366 318 339 343 320 279 245
83 1 48 49 65 35 60 41 2 11 4 145 44 38 49 143 68 43 7 7 27 13 11 50 106 134 280 394 436 509 485 479 513 510 454 405 374 351 316 298 303 335 329 303
17 -15 81 -5 64 74 47 58 31 -7 -43 -3 101 107 76 22 77 105 48 32 47 52 24 17 72 95 168 336 403 480 501 518 582 628 522 423 413 379 363 343 340 355 357 331
-0 18 38 -42 -1 54 68 13 -2 66 162 135 136 116 21 -17 31 89 93 78 69 55 59 48 12 33 92 215 347 385 451 547 665 671 663 524 464 410 365 358 373 353 362 377
-22 12 5 -25 11 82 -9 117 110 76 136 182 180 118 -25 11 17 47 73 85 84 87 93 75 86 62 83 91 237 319 418 466 506 640 677 602 553 452 388 407 387 335 299 396
-20 -10 -42 -30 20 95 154 320 168 117 73 47 60 52 58 -16 -7 45 62 65 78 88 92 121 129 101 110 112 87 208 331 348 528 534 424 536 413 457 477 337 246 278 352 378
-11 -16 15 40 74 17 210 296 159 176 116 57 38 15 27 13 63 81 81 90 87 91 97 127 152 139 109 109 132 100 66 164 117 283 237 264 210 293 123 188 138 179 214 223
-31 -10 12 55 25 34 181 103 105 116 82 68 22 -15 -22 35 86 107 126 130 110 108 107 139 182 192 112 79 84 101 108 122 109 116 138 149 184 168 180 104 147 114 119 135
26 30 39 44 69 33 14 31 50 66 59 28 1 10 -6 33 77 109 133 158 191 143 94 91 117 129 94 73 41 25 22 13 11 52 97 135 136 166 189 241 208 163 149 106
158 105 -7 -11 26 28 8 2 35 76 76 71 64 60 26 36 47 74 85 88 108 130 146 118 120 129 159 116 102 89 51 55 74 107 108 123 175 203 211 194 229 255 228 205
15 81 80 -11 -5 11 17 17 33 45 61 74 65 50 34 38 42 29 31 65 80 108 131 134 164 179 143 127 153 156 84 84 83 86 97 122 152 191 236 273 244 241 257 226
14 14 35 48 39 25 33 24 51 79 75 43 28 33 38 39 41 50 54 58 63 75 82 96 126 145 146 120 129 148 178 107 95 138 148 112 90 87 100 126 170 223 202 210

GFSCGP_con_3kmhel_087.txt.gz
Helicity
60 107 69 61 81 77 68 56 84 66 44 37 69 71 63 76 40 62 21 63 13 37 49 66 60 98 129 145 165 405 582 544 463 346 364 283 195 153 164 157 164 215 220 218
68 116 71 35 10 51 78 90 107 80 47 46 61 84 79 70 14 37 109 138 83 75 37 73 58 51 87 106 139 387 527 526 453 434 326 281 228 148 155 163 151 247 218 194
78 45 96 64 -4 60 59 93 94 93 74 92 85 43 75 47 46 24 24 52 123 114 79 39 0 33 47 153 250 489 455 411 421 391 291 240 196 186 194 172 191 206 173 164
31 -6 -13 -11 79 118 118 101 72 73 67 69 102 -50 27 19 21 39 -5 -7 64 70 73 36 49 70 88 218 406 414 362 340 372 286 247 248 218 228 183 175 161 177 131 125
33 -6 19 23 -2 68 54 53 87 90 55 19 27 62 -17 31 19 8 92 89 18 90 84 65 42 94 122 288 329 346 344 328 331 246 262 292 240 217 234 201 186 172 140 93
-20 -11 -3 29 30 73 41 63 95 70 78 36 117 58 9 43 38 82 244 159 339 289 192 156 192 190 188 288 375 361 329 298 301 249 288 277 196 175 208 186 193 162 195 142
60 60 65 83 46 104 63 86 139 101 108 85 59 -17 58 14 87 167 156 82 147 263 305 223 246 201 310 298 372 400 401 395 321 286 283 225 145 138 132 183 205 184 190 130
89 82 21 111 167 175 110 134 129 110 51 -22 -16 -86 -20 10 213 198 138 6 27 132 246 250 287 323 297 199 212 424 334 352 291 269 220 149 117 137 149 181 169 161 154 93
152 131 112 109 204 203 138 105 155 87 27 -9 39 34 65 -53 14 144 225 100 48 117 133 185 199 319 401 242 346 384 350 300 262 191 158 162 208 196 167 175 149 152 143 108
175 144 125 89 56 71 112 67 110 145 37 -4 -2 -7 18 13 -52 2 80 134 87 57 203 183 154 310 498 465 336 429 275 243 229 181 213 221 198 184 170 166 118 109 104 95
152 250 168 92 93 125 98 83 90 72 80 4 -32 -53 -110 -139 -76 -31 94 73 52 66 125 236 185 225 341 421 510 298 248 267 231 255 236 242 182 202 180 145 120 114 94 83
109 146 204 132 3 73 135 39 53 49 40 66 25 0 -32 35 -52 30 26 7 19 53 108 167 154 206 294 330 380 402 482 343 373 337 255 256 268 211 162 142 135 122 94 82
105 183 136 54 43 80 151 41 100 81 62 9 45 33 -87 -79 -22 121 59 9 13 48 66 171 138 119 218 305 323 379 441 408 282 253 323 337 231 180 162 167 147 137 128 103
84 94 129 136 93 108 112 203 167 20 36 6 150 -19 -1 38 163 109 32 -3 -1 27 49 107 174 153 142 205 250 296 398 498 335 389 399 343 341 329 303 287 282 245 212 226
82 61 54 53 13 4 3 247 156 111 71 -40 61 111 127 146 150 73 8 -8 12 41 36 69 120 161 177 217 283 307 427 472 449 358 377 351 348 343 341 337 335 311 313 268
35 81 44 23 7 14 -34 98 135 123 30 -12 17 45 173 183 131 120 14 -2 18 39 42 41 122 114 152 165 249 293 420 520 493 420 374 355 331 396 418 384 364 368 346 304
70 111 53 -37 9 72 -58 -64 15 70 14 48 64 80 72 111 95 84 45 44 62 62 56 41 46 105 108 141 119 279 344 446 595 586 484 396 379 415 407 398 444 473 410 397
113 122 60 10 43 74 -61 29 8 190 169 183 57 33 22 9 34 79 81 63 70 39 38 32 37 39 89 111 140 152 291 366 502 640 618 493 478 485 458 449 436 454 442 429
160 75 42 19 34 20 2 88 237 139 213 273 127 55 -13 -42 3 55 61 73 80 57 38 36 43 33 35 95 145 115 192 300 370 411 587 532 547 564 560 554 525 504 481 477
117 57 -22 -12 -33 -17 76 145 375 232 182 171 107 76 48 -32 8 28 41 49 73 73 62 68 53 38 39 63 94 177 154 199 327 343 335 395 531 489 497 514 557 495 448 447
0 -3 34 23 -15 -17 -8 225 342 295 232 98 49 30 45 -12 54 53 50 70 74 79 88 96 79 69 78 109 105 117 137 207 196 271 302 292 290 286 316 266 326 293 333 384
35 -1 17 32 -15 0 82 103 189 172 68 46 28 1 -14 7 52 95 116 135 85 90 100 116 107 110 91 85 75 112 143 123 142 173 178 187 212 233 205 123 159 212 191 113
9 71 -2 33 58 17 10 19 41 50 43 21 -1 -11 -17 -9 29 62 91 131 147 107 89 105 124 107 128 84 64 110 119 100 91 131 178 204 183 196 222 237 216 157 180 194
26 95 -9 -21 -21 8 26 -3 33 41 36 48 58 38 35 28 29 50 76 104 118 114 96 96 135 200 229 180 137 30 20 35 50 61 77 92 128 147 166 165 175 184 155 147
-25 -7 49 -15 -19 4 5 14 -4 3 24 57 62 46 41 34 37 39 50 59 64 73 84 103 118 133 155 177 191 187 88 36 37 41 58 89 112 128 149 163 138 153 159 113
6 8 -15 19 27 14 6 3 13 47 41 28 21 38 48 55 54 47 48 48 59 68 66 81 100 127 142 146 161 164 139 122 108 108 84 84 85 86 110 137 184 232 201 200

GFSCGP_con_3kmhel_090.txt.gz
Helicity
97 138 58 59 87 96 96 67 60 46 92 95 95 82 63 78 82 72 76 43 23 54 45 84 36 65 98 54 218 263 311 334 437 356 352 308 274 276 266 209 179 179 192 225
124 79 75 104 85 83 82 87 54 62 46 84 26 59 61 100 118 98 80 77 2 95 81 130 114 46 69 139 188 321 350 356 331 420 335 384 342 292 271 222 164 166 198 246
79 22 90 114 115 87 81 108 130 67 37 81 119 79 92 105 51 49 47 26 50 15 51 79 61 125 71 116 206 312 383 322 368 496 456 430 385 341 248 193 160 164 213 257
52 1 17 90 101 71 85 44 67 73 90 73 158 147 115 26 28 98 54 22 19 60 89 52 120 84 84 31 132 316 341 347 426 549 401 358 353 321 233 181 165 180 215 246
33 50 78 58 46 40 42 67 59 60 108 108 72 181 189 34 20 42 206 104 147 97 141 207 140 87 95 12 149 314 334 352 458 432 338 377 359 300 246 207 160 158 177 206
46 62 71 39 19 9 24 83 78 94 132 154 93 157 13 40 -43 41 49 51 45 48 183 301 261 212 233 204 140 312 337 353 441 324 337 361 346 270 250 220 165 132 132 163
130 99 85 66 104 65 74 148 153 132 173 193 63 90 4 63 -18 -69 -1 63 118 -43 141 302 294 335 312 281 205 181 252 311 278 324 313 327 242 226 228 204 166 140 129 175
104 105 115 88 76 134 174 182 224 145 153 105 47 10 7 26 -16 -100 -23 71 120 33 63 148 218 236 327 296 147 182 132 213 286 337 299 242 179 211 234 201 160 108 119 160
126 107 127 91 91 94 171 294 139 160 127 119 57 42 2 -14 -87 -174 -29 4 44 46 9 54 227 276 347 384 387 163 227 258 298 311 271 172 170 213 202 164 145 117 146 144
177 87 106 62 53 140 197 96 137 152 142 85 3 -55 -83 -36 -85 -53 -47 27 32 33 112 189 241 332 375 373 525 443 280 211 256 310 225 159 124 167 173 170 132 126 166 124
158 143 138 79 127 181 132 148 86 57 151 126 -10 -56 15 -88 -128 -35 8 75 79 45 107 167 220 281 250 296 523 473 436 298 234 213 232 185 145 161 180 145 131 141 134 103
132 129 79 26 16 27 64 138 83 102 109 69 -16 -27 90 7 43 91 32 1 -19 -3 40 107 155 239 287 301 428 440 364 464 135 186 195 162 187 176 143 142 156 147 93 79
77 165 147 113 78 137 74 149 130 97 -14 -10 -73 -49 50 111 155 96 23 -4 -7 -3 7 57 148 172 307 353 366 387 392 393 208 140 230 244 242 196 177 175 164 149 118 94
81 86 118 162 103 91 95 134 184 102 119 23 -12 -45 73 118 160 79 64 -6 -1 10 9 7 86 142 217 281 287 314 295 454 381 362 337 391 314 273 264 292 285 259 234 190
120 126 135 77 49 42 65 38 126 150 112 31 33 22 -15 141 155 74 36 57 29 36 38 44 47 124 169 220 232 263 305 341 431 407 614 408 353 354 278 301 311 290 288 219
132 122 101 -10 22 34 41 62 49 90 138 95 83 -42 141 165 153 105 64 57 21 68 85 73 57 83 175 226 224 175 271 360 405 461 414 395 366 390 322 339 340 360 315 260
75 82 105 91 42 41 22 32 12 10 26 57 49 61 76 161 76 109 76 69 51 58 62 56 65 53 84 183 240 223 171 192 362 459 474 448 425 417 391 377 424 414 397 339
129 177 174 122 20 7 20 74 153 133 118 95 226 223 158 131 124 68 71 66 55 50 39 28 34 52 43 128 235 184 180 131 192 343 442 425 452 465 484 464 483 484 459 441
182 159 114 33 31 5 33 -24 55 67 149 140 108 21 35 38 42 77 56 54 57 60 40 34 22 37 40 61 163 187 219 245 205 235 296 343 399 525 534 600 564 587 604 591
97 136 73 43 13 20 11 -6 -32 54 126 338 60 72 39 2 22 11 50 55 62 64 49 45 50 64 96 83 56 103 172 218 259 252 219 257 343 285 326 391 587 556 609 631
8 33 42 34 58 24 -4 49 88 112 179 144 48 77 39 55 56 31 48 68 69 66 62 59 62 87 98 104 102 106 110 137 164 231 252 249 271 227 238 300 223 341 433 449
12 18 16 -1 5 16 16 43 175 207 46 34 41 19 32 27 35 58 89 77 67 73 101 111 110 114 117 84 75 93 105 104 115 137 168 230 233 255 239 284 262 242 280 247
-11 54 30 56 53 22 -16 10 8 32 11 19 13 1 -10 -7 28 48 71 97 103 89 79 76 71 79 114 125 106 90 82 83 106 144 165 164 169 191 189 228 232 171 208 200
23 65 14 -2 13 7 17 -10 10 5 21 40 24 5 15 22 17 38 53 67 76 79 82 67 78 100 116 128 138 115 105 94 94 111 135 146 161 143 151 155 124 135 149 125
13 35 35 -5 -27 -17 -5 16 -10 -2 16 26 30 24 21 36 37 28 40 48 46 50 63 74 82 93 112 125 136 127 63 38 63 67 66 84 102 113 122 135 112 103 119 87
10 1 7 18 32 6 -1 6 32 10 -4 -8 14 35 35 42 47 36 41 29 35 46 48 62 80 102 116 128 138 138 103 73 42 27 31 37 47 60 68 83 122 169 139 144

GFSCGP_con_3kmhel_093.txt.gz
Helicity
146 250 134 106 135 181 137 127 103 69 76 90 88 30 17 22 5 25 48 78 108 60 2 -57 -60 37 33 75 150 152 255 271 354 356 372 309 332 259 226 209 222 218 191 175
237 162 53 97 136 136 127 105 70 70 85 74 60 2 2 16 9 64 72 59 85 97 73 -24 -70 28 53 90 128 145 206 288 339 373 370 374 350 324 264 258 227 231 212 200
195 65 161 139 170 163 128 128 96 101 81 60 58 5 -1 25 119 167 147 99 138 142 113 42 1 34 91 82 40 127 196 261 319 367 470 427 471 366 269 224 256 211 222 224
111 29 44 127 136 128 117 90 100 87 60 53 45 44 60 21 123 161 95 9 -2 21 106 138 10 33 121 155 174 127 199 274 314 393 449 398 394 282 228 359 322 246 221 215
85 93 110 83 65 62 75 49 78 80 63 29 72 98 116 88 89 50 47 -4 -41 -68 1 134 99 18 147 218 203 82 167 257 335 419 384 424 365 320 368 306 251 237 235 216
68 17 54 57 40 48 44 79 113 103 100 72 54 115 125 104 73 32 -5 -14 -63 -99 -1 64 88 52 138 233 207 144 143 234 312 325 355 365 426 378 367 314 183 211 251 227
107 105 94 72 103 71 124 167 136 120 136 125 69 117 127 139 44 -48 -48 -35 -60 -99 44 59 87 114 160 242 298 238 143 189 280 253 322 371 371 324 308 262 206 236 246 218
105 129 147 144 124 103 111 141 191 115 138 103 85 149 109 95 38 -26 -33 -77 -9 27 31 73 73 167 196 210 248 249 83 153 203 236 213 254 279 291 262 215 212 217 194 155
88 98 112 85 103 78 85 113 100 164 146 133 128 125 108 70 0 -19 -58 -29 -12 119 25 153 85 146 170 204 212 306 135 163 183 241 233 207 211 258 216 195 199 190 158 148
86 85 96 94 41 136 117 145 191 286 190 218 167 138 121 75 -39 -10 -17 -31 -28 82 48 130 89 168 185 202 200 328 363 127 112 192 217 176 204 211 184 191 186 163 152 154
62 56 92 68 87 58 77 142 196 196 208 203 191 131 79 62 20 53 25 -32 -34 37 57 69 142 178 217 255 272 375 436 305 168 198 218 173 187 174 178 162 158 132 131 136
105 72 39 31 35 95 66 112 65 149 178 251 189 96 137 87 42 49 52 -1 -41 -14 -11 27 101 151 211 307 324 403 451 547 387 178 109 149 167 131 107 147 134 123 118 132
86 116 88 106 112 121 192 220 229 132 117 138 166 142 93 -36 42 101 75 49 25 1 -3 33 86 171 222 296 350 330 356 428 421 296 129 129 136 138 141 136 132 136 151 138
57 122 110 89 80 109 140 154 184 186 238 212 171 64 52 -7 1 99 95 27 30 2 22 41 68 114 231 269 343 353 348 317 297 399 236 125 193 214 241 239 218 213 212 216
97 97 101 86 76 99 106 101 105 159 152 169 98 68 31 -29 -1 69 101 55 48 24 49 44 61 99 158 270 298 299 290 230 210 210 386 222 531 360 291 277 266 266 249 241
140 132 115 92 56 42 55 51 55 59 67 112 104 73 29 12 -36 66 49 31 49 42 48 41 46 59 119 180 242 239 227 218 169 353 387 234 278 380 378 375 332 316 274 256
121 115 138 86 73 66 70 50 23 48 72 112 73 28 36 78 153 161 73 69 48 55 48 38 53 61 68 122 146 197 205 185 138 173 241 314 346 411 461 436 400 369 315 277
124 144 145 94 101 72 66 90 -71 82 157 109 79 108 114 148 116 79 98 98 68 43 52 53 42 60 87 101 141 172 154 203 180 194 219 328 326 351 410 418 440 410 393 351
98 169 160 142 100 10 5 22 -58 85 67 167 150 92 119 135 102 23 57 64 64 35 22 35 46 39 63 98 85 140 135 162 159 194 228 180 128 129 232 409 478 436 425 459
79 102 126 53 -5 -4 10 -14 -54 -38 46 145 93 142 34 9 11 -8 28 50 59 48 27 31 45 53 79 87 90 86 123 157 202 164 227 232 240 282 235 299 227 321 458 527
34 29 41 21 8 25 -13 1 66 36 84 113 154 70 71 70 57 35 41 59 67 69 51 38 50 64 69 62 64 102 104 121 138 189 165 172 190 235 239 262 272 375 281 373
25 26 31 15 2 28 -18 -5 75 114 101 46 51 26 51 79 73 72 81 78 60 61 69 74 60 64 58 49 28 49 82 73 91 113 138 162 186 196 220 225 258 252 225 267
9 14 -20 22 16 3 -27 4 46 42 37 22 17 21 11 37 33 26 35 32 41 48 52 61 65 73 70 53 45 48 62 72 95 135 138 136 148 159 157 179 218 227 252 277
29 50 18 22 26 1 30 -7 3 20 27 34 15 -4 20 26 9 20 19 12 20 32 51 51 60 73 84 82 65 42 62 70 88 108 121 122 123 134 149 144 147 151 155 162
29 34 36 10 1 -8 -11 11 -3 11 23 8 6 5 -5 15 19 21 24 18 13 16 32 47 54 49 69 68 79 79 41 52 64 67 71 72 74 89 94 101 101 100 103 94
9 8 19 15 16 1 6 18 14 1 1 -5 -1 6 7 13 18 16 26 21 19 27 34 42 48 59 73 79 85 97 74 40 18 38 31 21 23 32 42 50 64 115 112 125

GFSCGP_con_3kmhel_096.txt.gz
Helicity
272 323 358 88 208 228 219 190 146 114 103 109 109 59 61 73 49 14 43 68 58 58 42 53 26 -33 22 2 62 86 151 175 235 228 264 289 328 251 223 263 215 181 170 170
333 248 114 135 155 183 188 175 121 91 93 93 54 13 71 59 3 43 34 55 43 49 78 49 55 55 41 45 24 91 96 174 233 234 232 325 288 245 235 288 207 231 208 188
234 207 152 166 205 215 167 166 114 114 137 92 70 8 -10 16 21 31 46 37 37 22 24 37 35 46 29 114 120 76 99 102 218 248 311 381 363 363 381 290 283 209 226 223
170 120 93 145 224 167 165 104 104 105 107 99 58 55 -53 37 -9 31 25 48 37 21 23 25 -4 40 41 58 107 129 101 113 167 249 251 273 334 333 300 340 312 257 94 193
191 127 144 214 104 156 97 83 100 109 104 105 78 71 31 -5 35 2 50 45 48 38 42 -12 -16 77 125 68 68 110 110 111 116 241 277 283 285 316 364 348 253 72 111 198
151 103 102 106 93 104 88 116 124 129 108 98 42 87 48 5 11 44 64 62 50 8 -15 -19 35 51 125 71 85 101 140 146 149 190 239 251 247 353 357 321 378 275 319 322
159 137 83 72 130 118 139 144 131 132 148 111 40 87 83 60 49 57 64 68 53 -13 -67 -15 12 52 119 78 108 122 181 211 149 122 137 194 246 274 347 370 261 383 377 310
225 242 180 163 127 118 113 112 139 127 99 43 63 99 49 51 79 88 135 66 55 -37 -78 -25 -1 98 121 90 128 190 210 272 138 142 129 167 242 282 252 247 321 306 296 280
165 160 117 154 139 117 119 137 124 136 156 92 95 112 86 92 46 187 111 80 36 -73 -74 1 13 164 184 135 207 198 214 202 92 140 161 188 209 223 258 220 174 150 207 254
117 142 93 102 79 169 161 134 144 199 164 156 146 81 86 139 155 125 98 72 14 -27 -34 9 14 68 74 125 191 207 235 287 102 136 147 177 205 231 219 213 152 186 218 201
93 96 105 126 131 103 114 136 160 169 206 212 166 138 236 191 110 50 75 55 -6 -23 -19 -6 11 61 68 118 163 241 300 409 328 128 110 154 191 229 201 155 169 153 155 161
90 71 72 73 96 57 110 164 210 246 283 282 275 196 165 113 99 86 59 21 16 -38 -52 -17 16 34 92 164 221 299 340 425 378 295 182 114 146 155 187 152 130 128 174 166
62 74 71 61 99 111 146 159 163 156 187 225 268 291 175 18 39 43 31 -29 20 -18 -17 25 30 54 71 171 227 358 342 395 427 342 259 176 177 160 208 116 131 172 195 155
85 103 93 94 135 141 137 145 142 135 180 162 206 143 144 154 75 38 33 -44 -18 -25 -27 31 64 62 77 135 163 271 317 384 316 270 270 329 358 126 128 127 144 185 200 173
88 86 96 80 107 119 116 98 97 160 154 201 119 138 105 110 68 76 30 4 24 32 15 19 56 83 76 115 188 179 172 255 207 126 212 271 363 474 371 327 317 311 275 250
109 111 100 98 84 87 91 62 73 53 55 103 122 110 89 113 121 99 85 85 86 82 58 29 45 75 85 86 178 187 205 197 131 114 189 193 237 269 542 531 398 393 310 278
106 109 110 100 115 101 146 83 97 99 12 9 103 100 128 112 126 76 53 90 97 57 44 58 61 65 78 88 93 145 184 162 166 160 183 219 115 146 469 626 517 443 353 273
112 130 125 107 79 163 88 105 44 27 17 101 98 62 67 116 108 105 84 78 90 70 59 52 55 66 69 70 66 84 154 162 165 152 198 284 168 142 115 285 544 468 392 345
60 104 86 115 120 112 49 103 47 6 37 51 63 40 104 111 90 154 114 66 67 40 38 35 48 52 54 56 61 56 99 148 208 195 263 286 194 237 253 308 240 360 396 404
86 98 90 73 22 -31 25 24 -30 -40 59 -13 17 49 33 20 51 77 30 62 84 67 36 41 48 40 55 62 57 72 72 88 151 218 183 177 194 155 161 189 154 222 245 267
25 30 29 22 35 40 32 -16 -61 10 -15 -34 10 65 90 57 45 19 56 97 67 48 42 44 46 49 60 39 30 58 79 92 60 80 128 153 160 194 179 182 241 189 209 238
13 29 29 36 77 45 -16 -42 5 40 31 31 41 41 61 70 71 57 55 51 52 49 50 55 43 48 62 66 37 44 54 44 42 51 66 85 116 104 150 153 162 175 188 209
4 -2 33 54 54 -16 -21 7 22 66 41 42 26 40 35 25 18 9 7 15 27 39 37 37 34 42 63 66 62 55 51 43 54 62 72 88 87 103 115 130 162 205 245 248
26 20 5 2 -0 -4 15 5 3 22 29 22 22 22 10 6 -6 -0 -1 6 13 16 23 30 46 52 62 63 59 45 39 41 50 63 78 77 85 96 106 107 113 126 154 159
36 34 23 -6 23 9 4 19 22 28 20 27 34 31 16 7 4 -8 -8 4 3 11 26 26 21 26 47 55 56 52 48 31 35 45 54 68 75 81 84 104 109 102 102 85
31 22 28 11 7 5 3 12 8 14 13 14 17 20 17 11 6 -1 10 14 23 30 30 45 48 44 42 43 60 70 56 34 23 30 33 41 47 53 58 50 99 195 142 139

GFSCGP_con_3kmhel_099.txt.gz
Helicity
313 344 352 239 143 175 192 176 143 127 79 123 110 115 70 52 64 52 71 75 89 99 87 96 99 71 40 71 135 127 81 98 99 97 143 153 151 200 228 262 226 217 246 232
274 192 178 151 147 158 143 147 116 95 87 92 106 86 21 43 64 70 68 70 85 96 84 72 68 52 38 32 15 144 107 74 129 116 143 194 186 178 207 238 228 250 234 222
182 147 91 170 169 188 178 148 109 109 159 90 87 72 32 86 76 51 23 43 45 53 53 34 42 20 44 65 51 29 155 91 113 153 124 163 147 184 213 247 274 211 237 248
159 114 123 126 127 168 140 65 66 114 154 207 125 133 38 39 55 -14 17 50 57 53 16 -19 -2 30 63 57 -3 31 90 141 92 127 109 144 197 199 243 266 259 293 314 330
129 79 92 127 124 74 126 81 103 112 114 138 122 122 70 63 16 21 52 61 57 34 11 -2 10 -5 27 36 102 90 68 63 74 124 82 140 195 201 196 256 362 334 355 342
97 104 92 91 102 95 81 137 150 163 138 182 65 85 98 37 47 20 42 58 47 35 16 10 11 17 7 7 13 27 72 67 64 135 66 83 120 157 193 211 294 318 328 288
193 134 101 83 161 181 146 186 219 214 227 195 77 89 90 55 49 38 64 78 51 35 33 14 26 49 16 35 36 17 93 84 150 171 48 65 111 114 95 178 250 299 302 173
172 253 193 131 140 116 118 138 204 245 219 166 94 105 70 132 140 126 124 69 56 40 20 32 36 22 5 56 54 99 121 144 194 169 71 106 142 124 115 132 207 251 283 259
196 198 176 158 137 140 130 141 141 135 129 114 84 82 145 200 173 158 108 77 63 32 24 44 12 -3 -7 55 134 118 155 181 232 225 86 115 133 152 157 120 173 231 195 200
100 158 135 133 128 155 143 130 149 166 156 142 92 86 107 200 200 167 133 74 37 17 17 -18 -25 -6 7 39 104 103 165 227 304 380 117 111 115 120 156 190 219 240 213 136
113 154 125 88 138 133 145 143 164 149 147 143 116 109 210 215 192 150 101 13 -8 1 2 -30 -34 -16 -5 46 54 79 184 275 403 347 152 128 127 149 224 209 163 191 197 250
113 97 144 148 110 71 112 134 169 141 125 181 168 109 264 149 107 85 63 11 6 37 22 -17 -60 -14 19 58 143 166 229 294 430 351 335 124 147 82 128 146 136 152 226 242
84 100 115 103 103 147 155 204 204 200 204 179 164 154 129 82 53 42 59 81 81 49 51 -14 -14 -3 29 64 97 158 249 295 436 363 248 303 225 174 83 123 102 90 181 155
109 113 104 91 115 150 139 107 104 138 145 133 150 105 82 88 81 42 59 68 71 89 34 13 13 10 42 66 100 123 193 221 347 385 244 195 216 190 171 88 108 172 238 260
110 101 127 131 121 119 107 70 98 113 85 109 98 84 54 46 82 118 82 95 102 93 62 81 61 30 47 89 102 162 159 169 256 178 238 218 148 210 382 384 460 377 402 300
107 106 112 89 74 78 71 47 69 76 68 87 61 57 39 50 159 150 79 77 65 46 54 33 58 61 62 73 105 115 120 182 175 195 198 196 150 167 198 527 483 492 424 409
94 97 82 85 111 122 109 76 59 110 72 61 62 32 54 133 182 111 31 44 53 48 44 66 35 73 72 69 61 83 112 136 169 194 192 271 286 206 132 220 522 525 569 482
83 90 91 87 83 96 122 125 71 75 20 73 45 69 74 180 183 100 91 69 65 44 61 28 44 62 69 58 66 52 84 106 125 185 162 196 220 186 183 132 355 465 605 532
51 74 82 76 70 80 87 84 58 48 44 44 56 55 107 186 175 158 109 112 76 64 36 26 43 53 61 67 76 81 81 80 134 177 219 223 209 229 250 243 114 239 238 507
62 47 55 54 56 34 21 19 9 27 15 34 -10 9 63 -7 63 62 84 61 74 81 56 59 63 74 77 77 61 71 91 92 109 145 149 133 138 178 195 246 203 158 96 173
38 12 20 8 11 33 53 12 -43 -3 7 -50 -42 19 -21 -5 55 54 26 68 60 62 72 61 50 53 62 61 56 66 73 91 66 57 58 88 107 109 157 157 157 201 221 168
11 10 38 34 42 29 -4 -44 -25 3 -11 -26 4 67 108 109 67 19 33 57 66 66 72 63 41 44 52 55 50 64 73 43 20 23 47 61 70 74 86 113 148 157 135 188
14 -3 11 6 21 6 -19 -23 -0 18 11 14 16 9 22 23 24 34 47 57 60 54 44 46 36 34 44 48 45 51 54 35 18 16 28 41 53 72 79 89 92 108 142 148
-1 6 -4 -4 14 -7 -7 2 3 9 3 5 9 -2 -5 -2 10 10 12 17 17 22 21 15 24 38 44 45 40 33 30 19 23 37 39 31 43 67 85 87 96 64 68 88
8 20 17 14 24 -10 4 13 -0 10 1 5 6 -6 -4 7 1 -3 4 11 10 14 13 13 18 20 32 33 34 35 30 18 16 19 26 37 32 36 51 98 103 88 116 93
21 20 24 15 12 23 18 12 14 11 1 -6 1 15 10 2 -10 -3 8 6 6 9 14 22 22 23 31 30 40 52 48 34 21 23 16 16 13 22 26 26 55 198 201 165

GFSCGP_con_3kmhel_102.txt.gz
Helicity
226 345 232 177 129 130 232 181 124 154 157 166 121 95 74 25 41 33 52 82 101 107 103 107 108 87 70 63 70 105 137 131 117 153 190 136 123 103 138 176 135 122 156 205
270 205 149 118 156 133 118 138 144 142 80 123 96 84 55 32 34 74 110 107 125 111 110 113 112 105 86 59 67 81 90 158 132 132 111 181 112 115 126 153 183 143 169 195
203 184 139 161 141 125 120 120 106 85 93 79 95 69 61 78 126 139 143 127 104 117 114 85 70 53 41 60 94 92 103 132 195 122 107 132 157 125 125 149 173 146 181 195
260 114 282 198 121 52 92 61 71 107 119 115 100 163 73 93 99 93 102 85 100 92 57 33 22 13 12 25 49 89 117 135 97 128 109 90 150 76 104 127 215 214 225 247
169 22 178 139 137 4 44 87 48 71 96 110 76 130 106 63 111 92 66 84 80 67 52 39 31 23 -4 13 39 31 93 115 113 79 94 108 127 108 105 113 157 228 263 291
192 270 199 73 50 110 54 54 71 91 89 144 76 95 84 51 78 123 77 77 84 69 53 34 13 4 11 15 24 38 70 73 75 107 74 78 133 107 90 90 145 216 273 322
134 73 24 16 17 27 25 118 147 137 157 126 116 91 80 135 116 121 97 101 86 61 49 36 14 18 16 22 25 67 48 57 50 82 96 82 96 66 92 79 155 211 259 306
154 145 26 73 41 41 36 73 90 102 99 65 116 122 204 215 244 163 124 131 81 55 46 23 6 14 7 22 25 48 50 94 111 133 116 87 84 62 123 119 155 157 176 158
84 115 89 65 70 85 46 19 -7 108 130 202 75 110 135 174 174 144 136 81 72 65 38 12 10 10 34 28 27 19 22 94 121 131 169 197 55 51 125 121 131 133 73 82
195 205 85 113 101 105 91 87 86 91 134 118 61 71 103 103 120 144 144 117 81 54 27 12 -5 12 26 25 1 31 38 68 113 163 255 241 63 67 82 120 97 123 98 152
211 85 107 76 127 141 109 110 124 124 134 156 127 102 164 163 178 184 165 119 99 58 44 6 3 4 18 19 12 36 37 47 167 254 355 301 128 93 104 112 146 199 216 171
39 129 208 207 103 77 100 118 109 119 91 114 134 101 78 123 164 151 103 64 44 42 18 16 14 9 22 22 27 50 55 98 173 312 332 310 268 291 143 140 148 163 214 215
201 297 173 131 113 79 96 94 94 96 111 100 79 89 40 95 49 -4 -0 10 6 40 64 47 47 36 21 20 21 85 129 145 235 365 290 281 237 256 299 182 114 166 131 157
55 110 119 120 152 107 78 87 100 119 106 113 84 106 98 59 71 87 62 38 55 83 87 73 43 55 57 30 23 91 114 118 142 243 278 257 276 253 234 278 172 95 71 124
97 132 106 116 103 102 97 74 74 66 60 85 102 118 80 85 82 102 122 98 93 121 109 74 44 47 63 59 58 74 116 161 132 149 218 200 278 163 127 212 242 276 231 157
97 77 91 68 81 83 64 62 73 65 58 72 63 64 138 103 73 92 108 86 103 108 72 77 55 61 65 85 76 69 106 130 172 156 201 168 248 262 223 149 246 408 457 497
78 79 78 75 95 90 74 111 81 81 96 135 110 139 79 69 106 150 122 124 103 71 97 72 65 45 47 87 85 74 78 131 127 176 183 220 192 226 205 143 156 259 555 834
62 72 75 87 80 88 161 146 176 164 132 115 95 77 48 122 216 186 167 117 88 96 93 72 40 49 72 77 76 62 55 68 104 144 191 241 244 222 227 163 148 121 302 428
51 68 85 72 60 106 41 34 26 70 76 98 83 52 79 87 128 145 121 95 78 94 74 35 48 53 70 79 69 66 65 56 66 117 151 165 163 184 172 211 258 242 237 328
39 35 41 51 64 51 91 46 31 49 35 111 26 22 31 39 1 47 23 30 74 87 53 52 54 60 66 65 57 59 70 73 101 96 91 93 103 114 134 122 155 213 213 268
59 29 10 12 16 66 51 18 29 3 65 -19 -46 -3 -14 -4 29 1 19 58 55 47 52 43 41 53 61 50 51 62 66 82 70 60 50 52 64 75 89 94 120 116 177 166
27 2 10 31 42 68 49 10 20 28 -1 -14 -2 27 116 92 45 44 42 44 49 50 51 49 41 50 57 52 44 45 55 44 34 35 34 41 40 35 53 87 101 122 125 158
14 22 54 40 38 22 11 6 7 4 13 5 1 6 12 22 36 40 28 38 44 50 47 45 35 34 40 47 43 44 31 9 3 15 32 35 36 43 45 55 76 85 115 121
14 8 12 -0 19 9 3 14 14 6 5 -6 -13 2 6 11 16 17 19 28 34 43 42 36 29 27 31 26 22 23 7 -4 -5 4 11 10 26 45 76 53 48 59 66 56
23 10 20 37 41 23 19 14 2 8 3 -0 2 -2 -10 -4 -1 1 9 20 24 23 27 20 12 15 30 25 24 24 22 7 -0 2 -0 5 6 12 8 43 94 54 79 78
10 17 19 29 35 35 26 3 -7 -5 -6 -13 -5 -8 -10 -9 -2 -0 6 10 9 20 23 24 23 19 21 24 31 37 41 35 26 20 16 13 5 7 13 12 10 99 129 147

GFSCGP_con_3kmhel_105.txt.gz
Helicity
111 134 196 102 53 49 87 150 215 98 51 108 153 107 46 56 40 37 58 58 61 67 139 133 118 113 116 110 95 91 100 116 112 106 94 119 149 158 145 144 164 176 152 140
166 242 62 57 124 220 226 142 139 150 75 89 118 104 58 32 40 36 27 62 96 109 108 142 130 112 96 83 76 71 77 88 113 160 174 209 218 251 204 149 156 167 193 194
131 163 140 95 163 293 339 309 155 163 191 56 80 130 71 34 30 24 77 94 135 140 151 128 115 83 58 61 64 49 60 75 87 85 120 165 193 164 203 254 196 155 146 193
142 102 149 156 7 78 199 236 149 168 155 171 7 110 13 9 117 140 151 180 130 148 133 109 83 77 63 61 55 48 35 49 60 94 118 176 220 271 205 188 188 141 138 153
204 128 144 159 145 172 117 99 123 -12 87 181 102 157 64 71 63 62 102 90 159 125 104 83 78 61 48 50 43 34 19 27 52 88 129 145 137 161 148 197 201 154 118 153
193 207 343 99 156 186 224 297 98 19 3 163 116 103 47 98 47 55 129 156 118 101 88 69 59 50 43 35 28 16 16 22 51 80 96 93 90 124 117 146 232 195 164 203
183 222 250 132 93 49 86 204 222 193 99 158 1 43 45 90 74 107 162 176 71 90 93 82 64 39 28 23 26 26 18 24 53 68 63 59 68 72 60 63 160 166 160 181
125 185 199 125 64 46 -30 108 216 189 167 55 107 161 133 239 230 214 303 137 90 117 94 76 66 42 15 11 21 23 29 37 59 67 63 80 76 68 45 22 82 148 141 99
150 117 78 85 14 -5 27 33 -17 88 121 119 79 122 197 169 207 169 155 124 144 139 87 94 64 42 8 -12 1 8 33 38 47 73 49 104 142 110 47 16 83 128 127 94
151 161 69 101 26 -1 12 -6 -19 53 82 110 42 22 104 156 163 167 190 169 172 130 111 64 32 11 -39 -28 -8 7 29 41 12 70 36 106 210 219 161 30 70 112 135 102
196 216 111 120 76 78 30 25 9 72 104 96 83 93 120 92 160 145 163 194 150 120 80 45 4 -26 -29 -10 -4 9 29 40 45 51 67 115 211 205 180 133 53 80 68 70
121 163 115 57 67 40 103 155 67 94 49 41 93 65 33 82 113 100 88 99 93 60 34 15 8 15 22 25 24 27 53 48 39 60 65 100 195 249 187 203 196 97 68 87
173 57 102 130 70 69 66 78 114 121 91 123 174 113 83 -3 -14 8 45 69 52 70 53 67 71 45 36 31 38 50 73 84 56 77 164 117 240 292 277 242 251 154 90 140
243 141 138 85 114 143 127 99 86 98 132 109 109 83 60 85 170 150 178 155 121 86 63 78 90 75 57 42 44 56 69 87 91 117 154 157 287 292 236 227 279 385 325 163
150 220 212 216 133 101 88 60 52 73 43 87 81 135 150 182 193 148 106 109 101 88 114 102 90 64 52 66 76 84 68 78 99 135 136 224 152 78 99 254 295 236 340 308
72 137 94 78 58 37 56 22 23 38 48 48 72 90 203 183 161 116 99 91 76 96 90 86 89 62 56 94 96 78 72 71 86 133 152 187 198 174 235 290 245 103 142 276
36 53 68 64 33 37 7 76 88 63 53 111 116 223 215 145 54 167 173 121 105 97 97 106 96 70 85 97 91 90 74 57 80 128 145 170 188 181 203 309 322 307 88 162
22 38 60 84 46 39 159 139 112 152 225 225 153 168 124 78 87 158 162 139 116 111 111 107 89 89 90 79 80 68 54 72 93 105 133 154 170 163 127 117 161 234 201 275
60 73 81 71 50 123 43 69 56 49 102 85 75 85 67 83 61 110 86 94 89 78 85 73 73 87 84 77 78 60 78 78 89 94 108 126 109 124 126 125 119 139 234 297
91 94 79 73 84 72 125 71 70 54 59 97 68 62 57 61 37 99 64 83 55 39 71 71 62 71 77 67 73 74 88 74 92 83 72 57 51 74 79 89 88 103 118 179
61 63 35 47 43 56 57 64 49 20 80 68 41 35 23 95 112 43 3 26 62 60 68 56 50 43 45 51 58 67 64 74 67 46 37 54 54 40 58 53 69 60 75 110
31 31 28 12 27 50 88 51 49 71 51 6 33 52 103 91 27 27 55 52 71 68 61 42 25 35 42 47 46 59 41 16 1 8 26 37 58 44 27 52 46 62 52 58
37 34 53 67 82 59 57 66 31 28 40 28 21 20 27 44 51 51 52 43 49 65 52 21 18 27 35 34 40 34 53 -7 -18 -22 -17 -1 8 31 33 44 61 64 52 50
27 17 38 25 17 31 30 28 30 18 17 9 -6 -7 8 11 15 16 15 15 20 37 37 33 31 34 37 38 32 30 20 7 3 2 3 -3 -2 8 26 27 28 44 67 34
31 31 43 44 51 41 29 20 21 23 11 5 -11 -22 -26 -18 -6 -2 2 13 18 22 26 24 25 26 31 29 37 43 40 28 11 9 13 12 4 9 11 16 8 5 32 45
19 36 9 22 53 51 43 19 15 14 5 -10 -16 -15 -2 -0 2 -2 2 6 5 8 12 13 16 16 20 24 33 39 33 27 20 10 9 14 9 11 14 14 12 48 45 73

GFSCGP_con_3kmhel_111.txt.gz
Helicity
79 162 214 90 77 56 55 89 97 77 94 92 96 124 54 36 25 -33 79 156 194 331 514 558 562 498 432 310 196 153 114 89 70 74 94 111 106 103 108 132 169 168 193 167
87 105 86 81 80 56 52 96 98 80 63 139 122 127 96 2 -42 49 99 133 103 422 502 520 465 421 320 204 165 141 86 59 64 50 44 26 45 41 66 54 61 93 126 177
114 186 73 61 75 85 92 196 107 99 89 93 127 101 67 68 48 32 -8 58 297 483 520 451 363 386 287 215 172 81 66 74 58 68 30 19 8 14 -4 29 58 49 108 159
154 141 96 94 71 101 73 170 253 181 184 177 273 156 120 85 7 66 87 41 606 853 552 529 511 385 207 196 107 48 48 53 52 34 21 29 12 32 39 32 55 55 54 61
211 141 173 174 138 144 116 165 255 199 170 195 146 201 243 97 41 57 200 190 487 471 498 499 473 275 232 165 57 31 43 35 39 25 9 8 24 21 28 33 26 33 38 64
85 152 185 121 120 171 133 141 93 112 190 215 176 208 96 82 100 81 213 353 694 574 498 437 317 224 201 131 53 15 41 45 25 19 24 21 23 27 30 39 20 20 62 59
175 102 142 142 143 166 264 231 161 124 139 224 78 133 238 88 96 23 124 431 518 561 525 357 252 192 263 89 7 -14 -24 -0 17 27 22 29 17 14 20 27 27 18 48 58
189 159 83 130 153 144 225 202 137 152 137 109 100 101 68 139 407 531 643 751 524 391 302 222 145 139 107 45 -29 -53 -53 -34 -15 30 52 39 31 10 9 20 27 49 91 93
135 106 137 137 124 123 142 138 107 82 47 90 108 67 145 187 194 299 428 432 406 402 311 169 36 55 54 1 -19 -33 -38 -40 -12 21 41 55 50 37 33 44 58 75 74 100
248 199 75 71 106 57 73 81 122 121 104 74 32 40 31 169 225 382 275 317 210 230 72 17 3 40 -1 -2 -29 -34 -23 -11 9 16 19 25 41 43 43 53 59 70 58 58
282 211 129 117 139 99 107 30 91 93 84 87 53 38 -17 9 20 63 101 92 115 104 87 55 43 29 5 11 27 13 18 26 26 26 27 28 45 56 67 72 108 90 69 67
243 263 195 72 89 92 80 95 125 124 41 122 91 91 3 -82 -64 17 -0 83 73 83 39 27 13 18 17 30 49 42 43 54 43 38 26 30 50 60 80 90 129 125 97 119
285 220 251 190 137 117 120 127 168 111 75 1 34 34 -46 -36 11 141 86 74 22 -15 -43 -34 -8 17 42 58 68 58 61 63 48 45 51 57 72 84 117 115 131 128 136 166
195 266 243 192 133 128 104 38 71 138 74 15 66 26 34 177 276 268 152 107 74 51 47 30 28 52 71 79 77 63 76 65 67 64 65 83 94 92 93 97 101 120 159 204
273 271 199 165 71 20 123 131 64 76 92 78 50 136 271 321 278 222 191 143 140 86 99 69 59 78 86 88 83 83 86 86 85 77 76 95 101 89 101 113 107 125 173 262
203 211 200 170 144 121 105 210 220 208 194 161 156 256 257 246 239 246 192 134 85 69 76 89 90 100 99 113 105 99 107 114 96 88 87 85 71 87 134 139 127 156 204 193
161 182 202 178 130 176 125 148 190 210 268 238 285 321 261 226 194 172 109 79 56 55 62 78 82 106 115 110 103 117 127 124 118 100 83 72 59 83 115 137 174 179 216 217
200 136 211 158 176 124 149 191 175 233 271 326 287 248 216 155 132 124 99 85 79 68 65 66 74 75 92 105 111 119 122 120 100 85 75 52 63 86 90 118 133 149 121 156
80 127 193 207 150 149 108 119 94 104 129 187 226 133 123 64 65 92 110 119 80 58 42 58 57 70 92 104 113 91 88 85 86 103 67 56 37 36 61 77 66 55 69 105
73 68 109 129 133 98 130 55 79 79 80 96 159 165 113 63 81 82 127 86 62 51 63 52 47 69 96 122 111 82 67 41 51 54 36 7 7 14 26 31 26 -0 -20 -3
132 126 88 78 81 96 132 124 79 84 48 109 103 97 69 178 154 154 83 63 53 45 33 32 45 60 78 88 110 63 -1 2 5 -17 -10 20 15 20 24 15 13 6 10 4
127 102 79 75 80 62 117 63 47 92 118 111 109 126 185 186 163 111 60 73 75 38 28 23 26 37 42 65 81 82 34 -6 3 -16 -47 -42 -26 -15 10 24 40 28 4 7
66 81 90 114 91 79 96 98 102 110 95 74 89 85 83 78 53 25 27 50 70 62 35 2 4 27 53 77 82 77 80 -10 -7 14 9 -25 -31 -34 -39 -21 -2 21 9 -6
91 54 72 64 61 66 79 102 120 98 84 55 41 56 43 29 16 12 5 32 48 57 47 34 31 35 37 44 60 74 68 49 6 4 14 10 -3 -10 -26 -46 -47 -47 -20 -6
42 103 83 94 80 75 57 72 76 72 63 60 29 19 12 -2 -15 -8 2 13 28 31 34 34 27 20 29 38 60 77 84 31 11 8 17 17 9 -3 -25 -46 -60 -85 -77 -48
69 59 46 33 100 46 81 68 51 51 42 33 23 25 21 19 17 17 8 7 15 21 25 23 23 20 27 17 28 50 41 10 3 7 11 16 18 13 -1 -9 -33 10 32 66

GFSCGP_con_3kmhel_114.txt.gz
Helicity
139 183 218 100 157 140 129 87 51 99 89 118 118 103 104 93 70 13 -16 -57 -76 37 551 829 906 810 754 670 531 422 324 201 121 103 142 99 51 74 91 83 71 84 88 140
185 141 102 144 146 99 81 77 109 115 117 114 80 129 100 93 100 90 53 -47 70 211 478 773 712 670 641 542 443 370 283 218 147 69 53 44 88 39 56 56 90 81 65 96
160 137 73 85 72 53 96 115 129 125 150 88 84 130 109 146 159 113 81 62 130 279 316 481 571 548 558 479 334 216 175 191 199 119 37 24 11 11 7 43 59 99 107 86
140 130 64 50 109 101 112 187 163 148 148 164 203 143 200 16 22 18 38 87 428 560 512 647 490 559 521 402 297 243 200 215 142 88 45 29 2 11 26 28 35 61 104 110
159 196 44 34 31 185 191 143 123 111 125 142 138 159 245 87 49 58 46 263 474 603 486 454 422 379 429 339 270 222 186 220 126 71 34 4 31 26 27 22 15 28 51 80
132 149 110 127 204 193 151 154 89 87 100 168 154 134 165 21 39 35 212 276 554 753 719 591 433 404 318 263 228 173 106 135 87 20 5 4 9 26 31 21 33 17 28 52
162 157 199 221 210 160 225 202 164 155 145 177 172 142 105 75 109 36 417 528 472 501 502 490 444 408 324 232 216 140 168 128 65 -2 -12 10 23 9 10 19 4 47 25 44
168 177 131 128 157 160 176 188 209 167 206 129 129 104 138 190 254 630 602 672 502 322 511 410 376 268 217 164 110 113 92 63 54 33 21 18 24 1 7 21 11 14 14 24
142 147 109 96 129 199 193 187 131 166 98 135 105 106 176 161 304 378 387 427 350 296 276 382 382 203 115 8 25 33 32 34 50 49 32 25 29 30 26 46 29 10 13 -5
139 144 181 173 173 175 146 85 196 189 145 149 135 128 107 24 30 84 11 4 21 104 156 130 98 68 -45 -15 -14 15 18 7 -1 2 13 31 35 41 26 21 24 33 37 30
259 270 204 251 219 210 188 168 155 117 138 150 140 81 90 32 50 55 39 -8 -33 74 54 4 -13 -22 -41 -44 -14 19 81 84 84 85 82 76 65 54 42 28 30 29 44 48
237 265 240 320 210 136 145 118 182 179 107 140 141 92 -17 -52 -3 12 17 4 18 37 -1 -17 -8 -5 -7 10 31 45 73 69 56 65 74 76 65 55 40 21 41 60 55 63
266 212 202 310 242 218 165 103 129 149 186 151 137 52 -5 86 165 129 119 98 62 68 37 5 3 28 46 56 59 79 80 102 102 85 77 72 78 79 66 62 51 75 82 73
192 204 206 260 186 231 225 159 175 232 205 157 125 77 74 223 210 207 186 143 107 101 64 28 7 9 36 57 76 92 100 119 110 95 90 94 84 64 68 72 89 104 102 117
217 170 173 130 192 218 184 184 137 164 128 164 114 200 249 299 331 303 222 171 139 85 73 64 59 51 68 82 89 102 133 126 110 99 108 108 79 63 70 99 104 116 138 137
247 174 192 202 209 263 168 160 232 170 202 285 331 311 242 275 292 259 201 156 130 128 126 115 97 84 76 102 112 124 132 130 101 109 123 112 94 81 74 100 120 120 146 170
174 178 148 98 82 163 203 208 184 201 290 250 230 183 278 299 275 222 185 142 123 111 89 97 92 91 87 81 97 111 114 103 114 119 123 118 99 87 79 49 66 142 175 167
147 180 191 146 184 197 197 192 185 234 252 210 229 212 222 221 201 189 162 114 66 58 63 66 60 76 75 67 64 68 82 101 122 123 121 112 92 58 46 23 5 11 28 40
174 195 174 186 166 153 142 129 133 145 146 197 187 205 212 211 190 136 122 103 75 66 47 42 47 53 61 65 65 58 76 76 82 95 67 53 49 20 27 29 9 -17 -6 31
71 93 133 149 201 133 119 111 78 99 101 119 172 123 135 158 95 86 99 99 87 74 59 59 58 58 89 100 83 81 50 46 46 30 12 12 32 29 41 38 27 -4 -13 -3
180 131 88 112 125 112 125 80 79 122 42 92 121 146 125 120 106 154 142 98 59 52 57 62 56 71 78 91 71 64 37 36 34 15 5 1 7 26 24 23 34 32 9 10
176 179 138 119 113 62 125 109 67 63 113 131 134 146 226 273 218 176 134 99 60 65 59 39 46 55 62 71 72 78 57 26 28 15 -10 -10 -1 -9 5 19 19 31 23 24
125 121 152 134 90 79 139 99 84 85 108 93 96 118 174 169 129 84 73 85 90 80 26 17 25 39 63 73 75 65 64 23 18 14 5 -7 -21 -20 -15 -8 12 26 32 19
101 117 94 99 97 112 105 127 120 110 96 75 87 90 86 105 63 61 49 55 74 56 26 32 37 41 47 54 63 69 70 22 4 13 13 6 -2 -4 -30 -53 -63 -50 -31 -29
80 108 102 95 66 80 72 102 117 114 106 84 54 54 52 48 40 34 23 27 30 31 30 37 30 35 58 67 60 52 48 23 3 14 11 -5 -14 -29 -53 -72 -73 -64 -48 -23
92 66 87 28 68 64 95 102 94 85 56 53 57 31 15 20 26 19 20 18 24 28 36 50 56 44 38 30 34 33 25 6 -6 -6 -15 -7 -4 1 -0 -1 -10 27 47 62

GFSCGP_con_3kmhel_117.txt.gz
Helicity
209 271 230 103 200 195 161 117 111 109 89 110 79 91 92 83 79 111 73 93 84 185 260 412 584 711 839 841 810 731 603 509 399 331 232 151 107 163 189 186 166 129 87 98
271 203 107 147 161 153 130 102 87 87 42 78 89 89 114 28 13 48 75 98 160 270 402 508 727 763 693 710 677 587 492 390 308 200 98 100 113 82 78 136 163 124 107 93
255 154 61 129 129 108 95 109 98 94 73 58 123 79 78 -11 17 -3 -6 58 152 292 465 570 693 675 604 508 470 438 415 348 296 208 146 85 96 83 53 80 90 127 135 107
153 79 76 153 167 97 110 98 117 121 125 104 126 107 88 58 88 123 101 221 381 593 656 674 705 564 625 412 327 364 381 348 317 230 128 122 40 37 49 70 60 65 72 94
109 102 80 106 65 140 109 158 156 145 147 153 130 137 114 125 99 30 79 199 400 541 562 615 550 455 429 585 362 294 348 345 284 253 160 71 72 40 14 19 44 49 48 82
163 185 167 119 113 125 178 218 163 151 182 223 110 109 146 66 21 64 79 299 501 617 615 576 544 462 547 382 360 412 310 300 235 205 170 147 94 70 35 28 9 1 16 40
138 108 136 191 237 280 274 215 205 223 215 180 155 132 205 134 145 252 347 490 643 630 685 760 608 568 414 255 131 155 237 157 139 152 145 128 120 91 62 36 5 30 2 3
161 200 151 145 156 214 228 184 234 216 221 189 188 126 171 98 73 204 313 408 369 305 235 272 440 477 321 260 143 105 111 101 143 130 90 72 71 64 49 50 34 14 6 12
142 158 107 92 109 153 147 217 174 229 207 187 143 185 119 117 112 83 76 28 -6 -19 67 159 113 83 176 78 83 59 91 76 67 40 46 74 72 88 90 87 54 43 29 29
154 161 130 133 162 198 150 158 217 271 238 226 171 170 152 109 110 120 62 28 19 28 10 84 67 19 -16 16 3 41 59 85 80 60 64 78 85 84 79 74 81 62 47 44
211 178 145 185 190 263 280 275 265 238 241 216 200 127 119 128 88 57 24 38 35 30 29 -4 -18 -23 -28 -26 -4 -5 -19 -1 45 40 40 54 82 84 84 74 64 63 50 48
252 204 170 130 194 162 234 257 363 288 214 216 205 154 160 129 42 51 58 89 63 43 13 0 41 -9 -19 -10 16 40 59 63 57 61 62 81 96 92 103 102 84 74 74 66
188 185 156 93 160 219 218 286 218 260 233 191 224 223 150 125 98 112 181 157 114 90 73 57 44 54 50 26 30 46 70 78 66 70 85 89 86 88 88 85 84 69 80 65
228 209 177 132 139 141 191 163 201 272 255 254 261 279 169 223 283 269 233 181 149 109 76 67 68 75 92 111 110 108 111 99 103 113 109 119 117 97 96 83 64 56 58 93
173 131 152 161 155 154 153 135 140 149 211 252 223 254 211 254 337 309 247 196 160 127 101 98 90 86 79 72 71 79 93 86 95 119 106 109 106 101 91 86 95 70 65 68
212 174 174 162 121 122 125 61 148 153 196 172 219 276 330 438 397 312 268 212 165 126 114 120 107 88 73 84 77 78 88 100 89 87 97 89 87 91 71 69 85 75 87 88
179 192 172 139 114 113 185 230 209 274 278 306 315 237 330 320 322 303 262 198 169 157 147 127 98 74 72 90 80 71 65 77 94 104 108 105 87 73 82 60 52 71 57 32
214 235 184 165 123 111 133 209 152 208 240 247 243 219 282 367 345 316 227 177 167 151 130 107 85 77 77 55 41 32 35 58 76 80 82 90 66 56 42 36 42 38 24 9
180 206 168 142 122 149 120 147 184 195 190 225 280 289 310 323 329 250 183 174 158 125 95 88 75 58 48 59 48 19 30 20 51 71 61 47 27 29 45 57 47 28 10 33
179 170 162 153 132 118 109 138 127 141 142 150 196 200 212 231 223 142 151 142 132 110 91 86 72 64 83 55 57 44 30 29 9 5 26 27 18 18 21 42 41 30 14 17
227 193 151 114 151 119 121 120 107 171 75 161 169 171 181 174 137 179 179 142 106 110 98 72 77 70 54 40 27 37 20 16 16 2 7 12 15 17 18 15 20 29 20 18
227 219 193 154 153 82 126 141 112 74 125 145 172 185 191 201 227 232 175 119 102 105 70 52 49 39 39 40 31 30 22 25 22 15 6 -5 -9 -19 -8 6 6 4 7 7
178 188 202 173 118 136 106 110 100 87 92 101 141 167 270 279 237 174 137 115 101 69 42 31 21 14 35 43 35 32 45 29 22 20 12 -6 -34 -28 -37 -18 -10 -17 -11 -18
179 174 137 138 106 129 145 155 105 82 100 108 130 162 198 236 158 140 110 90 61 39 39 20 35 31 42 44 36 31 42 39 20 15 2 -15 -31 -44 -66 -71 -86 -86 -56 -45
103 118 124 124 71 87 101 117 134 143 141 128 108 117 137 149 100 87 75 39 22 37 31 32 37 35 46 48 53 57 54 30 -8 -10 -15 -27 -33 -40 -55 -58 -58 -60 -41 -30
107 94 118 55 52 70 66 113 129 137 123 92 98 77 68 85 65 50 38 16 19 35 37 52 49 45 50 53 57 55 36 12 -11 -14 -24 -22 -10 -8 -9 -19 -23 15 27 36

GFSCGP_con_3kmhel_120.txt.gz
Helicity
228 297 243 127 206 243 204 160 125 105 87 103 50 71 76 102 84 94 124 103 119 204 223 322 400 439 476 540 589 647 647 599 497 399 311 278 256 234 198 177 207 213 168 136
329 252 120 183 160 164 154 162 122 112 63 78 52 63 35 40 140 143 131 125 105 224 317 372 442 486 493 493 554 572 587 525 458 400 327 238 203 196 170 162 164 184 157 132
279 202 144 167 173 142 170 165 136 108 107 98 79 7 99 116 253 200 155 239 293 301 353 392 438 476 461 460 522 513 447 498 432 404 338 272 187 145 125 165 172 196 151 120
168 125 157 155 123 130 148 95 112 119 116 70 99 38 96 149 226 158 137 188 243 314 376 412 420 505 532 444 446 447 433 348 337 399 295 253 183 191 196 161 116 105 129 137
110 103 115 129 76 195 113 134 147 167 168 166 177 140 100 194 218 165 159 180 271 393 418 430 456 452 415 466 423 427 321 426 40 207 236 201 150 184 158 159 144 101 104 114
113 175 165 106 119 129 160 194 174 206 211 198 144 145 200 160 92 91 129 181 232 289 344 428 348 384 447 377 422 324 383 280 343 160 138 131 99 145 161 174 118 114 72 102
164 116 163 198 208 184 187 181 210 212 230 187 177 179 214 159 82 73 59 50 76 141 196 201 294 259 219 295 415 529 570 464 238 76 100 143 109 128 121 100 65 83 63 80
149 151 102 103 114 192 209 211 246 230 212 167 158 181 192 164 98 30 19 33 45 67 83 85 45 24 59 145 232 272 164 133 132 77 45 65 91 89 81 97 103 76 48 61
145 129 90 71 126 195 164 177 129 196 196 239 204 231 222 194 142 72 43 24 1 22 49 50 47 17 16 38 -5 50 50 31 15 20 29 52 62 62 85 129 110 102 99 76
152 178 117 125 178 201 158 117 219 205 245 256 177 211 204 134 95 72 66 35 52 44 61 55 28 26 -3 -13 20 11 28 -2 9 18 17 29 57 76 89 105 125 118 112 112
230 198 182 194 190 214 233 227 223 203 237 239 232 192 153 141 70 59 61 102 87 73 56 31 10 16 30 25 31 24 49 42 12 -11 -21 3 45 60 54 60 80 88 102 104
217 203 177 211 235 206 212 166 217 199 186 279 318 206 166 158 125 118 110 133 135 102 58 43 23 27 31 33 53 42 40 55 61 49 52 55 52 62 76 94 99 96 80 70
171 203 180 200 218 203 170 202 174 253 300 262 348 228 182 178 182 139 196 188 160 101 85 58 53 53 48 52 46 48 47 38 50 53 71 80 89 98 98 93 109 111 107 107
147 181 188 164 144 164 142 122 129 186 274 380 328 292 241 207 240 278 308 253 172 132 113 77 66 66 72 71 68 71 73 79 94 100 103 112 113 113 114 109 109 113 104 117
157 149 171 160 168 161 159 150 145 130 186 266 214 177 246 218 345 331 313 260 184 164 127 99 84 89 99 107 79 76 79 98 91 97 111 125 118 105 79 65 60 49 53 77
203 182 139 164 151 113 101 122 145 121 145 114 125 186 211 438 422 386 297 244 204 168 129 112 109 111 110 118 102 99 90 83 80 83 94 97 101 84 57 28 37 38 43 43
182 185 203 171 133 136 149 111 173 206 200 156 158 193 405 402 340 342 284 225 208 153 133 136 136 121 106 89 81 77 60 49 67 71 82 93 81 73 38 13 23 41 48 32
255 211 189 177 123 142 189 170 119 152 230 232 262 200 277 394 455 385 260 218 198 163 143 147 125 111 90 81 61 30 24 39 53 64 72 86 55 33 45 46 52 70 47 37
291 255 220 192 179 199 129 141 127 161 137 200 243 306 368 457 480 376 290 195 179 180 153 152 125 94 66 71 52 36 32 11 41 48 25 5 21 33 49 61 52 52 46 31
217 189 190 217 200 157 111 128 167 189 122 164 289 290 337 365 289 225 208 223 208 174 168 151 116 88 76 54 34 21 7 -9 -4 16 21 20 19 26 33 31 29 26 12 3
229 227 189 225 192 168 122 125 157 188 76 160 226 244 244 219 150 210 239 224 200 187 166 122 94 80 47 11 11 20 9 5 10 3 7 6 -2 1 8 13 24 19 -8 6
237 255 242 223 204 132 165 197 135 93 107 153 158 148 198 204 215 226 228 224 211 174 118 75 64 51 24 9 5 21 14 -7 7 -5 -17 -25 -23 -16 -9 -3 -17 -22 -31 -16
156 162 193 169 124 164 99 107 115 95 108 104 171 163 220 221 218 216 206 190 139 95 64 31 26 24 24 7 1 6 13 11 4 0 -8 -12 -24 -42 -39 -36 -34 -47 -53 -54
162 188 186 184 141 149 152 186 109 104 120 117 141 208 218 249 224 218 180 130 90 60 35 24 22 30 20 18 26 27 24 10 5 2 -7 -21 -29 -30 -43 -65 -77 -87 -92 -87
142 163 161 144 112 120 83 113 140 166 150 176 191 181 219 257 186 152 112 81 57 46 38 34 38 33 33 28 40 30 24 5 4 2 -9 -14 -34 -36 -46 -48 -57 -81 -73 -76
113 102 129 66 66 113 55 159 150 138 127 146 163 161 144 181 153 119 95 63 36 38 50 54 44 34 33 41 36 33 28 11 3 3 -17 -35 -29 -17 -4 -25 -42 -4 -1 -4

GFSCGP_con_3kmhel_126.txt.gz
Helicity
94 118 85 74 62 127 135 118 105 107 117 121 118 116 106 166 116 149 176 184 175 131 72 60 67 59 54 77 109 152 168 191 173 169 140 90 144 195 217 241 236 217 172 146
150 101 62 143 134 100 90 92 70 110 122 118 115 93 173 127 169 186 172 135 116 87 80 79 58 45 55 74 106 126 145 192 189 170 151 104 71 107 139 190 218 230 200 166
97 179 121 81 99 90 96 92 114 120 149 42 105 51 143 141 161 134 127 94 87 78 77 85 105 129 133 133 124 106 111 128 158 169 173 193 93 125 132 132 128 149 156 175
118 132 130 122 104 109 99 116 103 105 106 139 139 140 70 198 146 102 96 83 69 56 76 105 115 136 145 144 133 92 93 121 149 132 148 171 199 135 172 204 125 109 127 115
187 107 87 91 83 85 156 107 109 117 98 113 58 96 115 262 23 35 38 63 79 103 105 114 126 110 90 76 93 124 149 161 134 147 106 131 148 137 101 146 166 120 84 110
202 167 105 128 134 82 154 107 85 77 106 110 55 92 124 150 -33 55 58 75 67 66 80 121 102 38 22 24 38 59 89 122 147 147 166 124 127 98 65 60 94 65 -22 23
92 88 147 114 139 134 89 95 150 144 110 163 218 152 134 197 124 74 51 47 55 68 94 77 46 29 30 31 29 24 33 52 63 77 118 148 179 202 171 154 97 182 37 -43
146 185 78 73 57 112 80 112 212 207 179 173 170 183 193 215 102 97 77 94 87 92 74 50 35 25 28 31 42 44 54 52 62 64 67 57 81 98 123 141 106 134 34 -17
183 210 108 120 124 137 192 170 64 134 150 200 173 129 165 188 131 93 81 93 89 93 63 49 39 41 48 47 49 51 55 71 84 94 81 72 67 75 66 59 55 64 49 28
140 180 106 167 154 108 112 155 204 191 253 196 150 127 168 126 78 46 71 80 104 106 77 68 66 68 58 56 51 54 59 72 75 90 97 101 99 97 99 86 85 85 79 88
133 153 165 186 201 143 168 146 137 152 150 202 163 186 221 124 44 54 81 105 130 111 97 90 88 77 74 70 62 54 68 72 70 73 93 99 99 106 69 93 107 90 60 63
102 152 143 116 76 71 60 68 81 138 160 158 175 124 140 101 70 66 122 182 170 113 135 123 106 89 85 74 66 71 75 85 79 72 76 95 105 97 100 89 84 70 56 52
129 177 140 116 136 141 105 55 45 60 72 142 143 164 129 130 92 137 198 240 194 140 137 144 123 97 89 78 79 83 85 84 73 78 77 84 87 86 86 93 82 54 50 52
169 148 123 148 127 186 134 77 61 58 149 93 84 70 71 101 99 189 208 239 256 167 144 157 131 107 100 97 87 76 91 90 90 97 92 84 73 70 82 82 76 65 54 62
126 149 122 69 76 90 61 -2 -10 7 32 77 34 76 45 52 147 143 186 277 217 178 184 175 128 102 102 99 78 89 99 105 99 91 79 73 62 64 71 75 59 47 56 52
110 105 107 63 75 84 82 56 32 58 71 87 86 60 54 56 157 213 243 258 231 184 177 189 136 107 117 92 89 92 104 109 99 91 79 74 74 80 88 74 32 37 38 39
92 114 104 86 63 65 118 64 62 62 88 83 70 51 22 111 143 170 222 245 194 241 188 153 111 116 111 84 95 117 114 102 90 79 72 71 76 76 58 20 29 28 26 28
90 92 113 114 107 128 103 155 162 116 55 43 53 38 68 99 101 164 142 168 233 209 201 152 121 131 99 94 118 123 112 96 84 79 79 68 52 21 21 33 36 32 24 27
86 84 137 132 121 110 117 132 151 173 58 52 52 67 142 270 351 324 236 217 231 216 211 160 141 106 108 116 118 101 102 79 78 50 41 27 31 29 37 37 36 33 28 28
87 102 136 117 137 133 80 83 203 201 127 84 53 68 299 274 218 194 244 275 287 297 226 198 147 132 129 127 105 106 85 77 38 26 35 42 40 36 32 27 29 19 6 14
140 128 114 138 149 131 154 196 203 225 99 95 65 100 158 157 193 247 271 305 316 248 204 153 149 142 143 115 108 95 72 36 29 35 42 45 36 23 17 12 11 7 14 23
62 68 79 114 133 156 73 139 124 111 110 82 87 115 153 214 182 227 271 294 281 238 190 160 151 151 121 88 75 65 33 35 42 35 41 40 29 11 1 6 9 25 30 33
99 114 87 64 44 108 38 97 142 95 81 65 89 98 157 173 156 180 226 233 230 201 168 142 140 129 96 65 39 30 22 31 25 28 27 17 3 -6 -3 13 23 28 35 37
79 71 116 125 72 94 76 82 96 107 96 98 106 107 120 161 156 195 237 243 223 184 147 135 112 80 73 49 55 37 33 26 23 25 17 2 3 5 13 14 26 36 33 25
56 81 77 74 68 59 36 43 84 121 131 129 107 103 117 159 174 200 217 220 197 172 132 89 72 56 54 56 52 43 35 32 32 29 19 8 2 6 18 36 37 27 25 0
71 57 69 32 61 66 124 99 136 132 127 108 99 103 99 151 170 183 190 170 145 113 81 70 68 57 70 67 60 50 49 36 29 26 21 18 12 14 14 15 26 37 19 30

GFSCGP_con_3kmhel_129.txt.gz
Helicity
67 123 133 63 70 84 202 193 155 97 84 180 83 48 88 93 237 120 110 156 139 122 83 56 48 75 99 106 116 131 137 136 116 115 141 121 113 120 137 131 128 169 179 220
143 115 52 91 232 145 98 93 90 81 142 216 67 74 82 187 206 129 146 120 129 91 95 70 90 92 85 114 134 153 169 164 158 139 129 106 82 70 67 79 116 139 132 125
95 147 110 128 115 104 79 77 91 98 165 119 25 53 29 354 184 110 109 160 114 135 129 107 90 112 109 113 131 132 139 155 158 177 126 132 92 79 93 94 58 115 157 110
123 57 158 101 78 63 73 67 117 134 114 89 191 108 146 146 149 65 96 111 93 90 78 106 131 123 114 101 101 110 117 126 114 106 123 148 137 138 101 128 131 128 95 142
160 108 175 96 64 77 95 249 155 86 84 83 80 101 60 27 274 86 53 83 101 141 122 116 101 104 114 108 84 55 41 53 67 81 105 106 122 104 93 108 145 108 130 75
130 182 127 83 123 166 193 121 103 78 66 124 48 68 109 82 216 106 106 113 114 112 114 101 99 94 89 71 56 48 48 52 46 48 56 70 78 78 92 105 75 96 88 96
135 178 161 173 193 127 108 108 159 107 132 100 141 198 136 138 213 177 127 96 124 111 115 108 112 100 74 56 50 40 39 55 60 59 64 68 74 72 76 84 109 90 80 58
175 246 139 142 125 105 74 105 204 187 155 151 174 209 158 256 285 140 126 102 141 126 104 111 110 99 77 69 72 56 52 55 71 79 79 83 90 77 71 60 51 61 62 75
219 170 65 116 59 76 157 156 82 155 160 208 201 149 151 291 279 135 75 103 136 106 114 116 100 101 92 98 77 57 54 59 70 76 83 90 85 97 102 119 83 53 35 69
208 254 123 163 101 97 159 92 205 205 247 181 158 130 109 141 91 88 55 83 138 123 132 127 116 116 106 95 79 66 56 61 68 79 86 86 94 106 104 110 129 125 109 107
133 223 163 179 182 137 174 199 197 151 150 205 193 155 170 106 78 45 23 62 164 151 146 154 128 132 112 92 71 64 62 62 69 78 81 84 87 93 105 109 115 116 109 109
85 204 255 142 94 42 54 84 65 187 162 180 155 108 91 50 71 49 48 72 180 167 174 184 165 163 138 117 99 82 70 68 72 78 78 78 81 80 77 86 85 88 94 104
112 257 225 188 128 118 168 55 95 48 94 102 156 146 85 109 106 65 95 185 192 171 216 203 170 177 155 126 91 76 70 72 79 79 87 92 101 99 88 72 65 65 69 66
272 244 228 178 98 237 221 70 57 23 105 99 98 40 26 151 77 51 177 279 167 193 245 209 234 188 169 116 81 67 75 87 103 103 107 113 112 106 95 88 94 91 64 75
270 244 131 84 61 87 66 69 68 113 90 117 66 64 51 44 49 133 132 324 172 199 204 185 220 184 129 111 85 91 84 107 106 113 110 116 110 104 96 96 95 78 37 44
89 113 77 69 173 110 90 51 38 26 36 38 44 51 36 34 31 49 185 290 151 164 188 198 230 191 155 110 94 93 108 124 124 118 113 108 106 103 98 92 61 37 42 43
71 100 95 100 79 98 156 70 112 93 66 63 84 66 38 52 46 78 132 243 155 179 209 236 242 201 142 117 104 113 116 120 120 107 110 105 104 98 82 59 33 44 42 41
71 127 135 131 137 262 121 44 21 63 46 49 41 45 42 62 81 152 187 367 292 229 316 299 215 170 139 118 138 112 116 124 108 112 110 100 78 70 29 25 43 38 30 36
59 78 100 121 137 108 78 74 122 99 97 96 60 47 46 63 193 334 324 308 317 441 376 294 185 168 142 130 123 122 133 116 112 102 85 49 39 24 38 43 42 40 33 35
41 70 107 119 152 169 59 34 75 129 111 63 40 46 67 211 221 177 236 435 556 531 397 317 203 190 164 149 122 142 143 136 121 67 49 46 51 45 45 41 37 36 32 32
108 88 116 114 117 97 20 40 88 131 117 167 151 141 104 134 208 292 424 465 542 409 299 222 202 208 184 170 170 165 132 108 65 66 61 61 50 41 39 39 31 23 17 11
76 86 55 53 54 69 64 141 196 135 131 127 99 83 160 250 247 355 375 397 374 323 247 210 202 167 123 124 135 129 108 75 68 65 59 53 49 39 29 21 8 9 8 20
61 88 72 86 106 31 54 54 68 87 93 63 50 76 165 214 253 281 302 292 304 284 240 198 165 139 121 110 92 91 63 41 49 57 44 37 37 25 14 22 25 21 24 35
22 76 103 87 73 68 78 115 89 67 82 86 92 109 155 212 225 255 257 268 258 223 193 159 153 147 138 115 83 58 35 31 45 42 36 37 43 35 40 31 37 45 45 38
41 82 87 58 48 96 109 30 57 89 98 107 120 137 147 176 197 194 226 231 228 201 174 156 145 148 126 90 81 66 54 54 53 42 38 35 22 18 38 56 55 46 54 58
20 28 41 31 64 36 83 47 61 111 114 144 149 170 126 125 158 173 202 202 202 212 178 162 152 123 98 85 74 69 62 49 44 44 46 45 35 28 23 25 44 53 40 37

GFSCGP_con_3kmhel_132.txt.gz
Helicity
96 153 150 76 66 42 46 128 153 2 68 89 82 94 89 51 49 220 244 197 267 240 161 117 98 96 128 134 161 161 146 146 139 124 147 161 139 97 120 163 215 182 133 149
125 129 69 35 19 46 54 131 166 146 106 86 156 228 101 47 48 195 275 322 244 174 113 115 103 131 125 118 133 131 144 149 166 186 165 149 115 97 69 32 91 149 156 74
121 92 35 34 47 144 171 127 101 100 75 102 132 86 60 28 70 381 314 263 265 179 163 127 156 148 101 86 89 102 115 128 128 186 163 166 164 170 171 155 99 91 90 85
77 42 133 132 110 132 120 72 77 85 148 131 91 133 88 153 282 366 223 279 186 151 128 198 163 109 93 87 74 73 72 102 85 76 102 147 162 169 168 174 151 143 102 85
164 134 108 151 108 93 114 115 174 228 136 81 96 151 104 13 265 301 278 177 168 149 188 180 97 89 102 106 107 104 88 88 68 59 53 55 67 77 107 111 125 128 129 150
123 119 97 105 90 103 76 200 197 153 126 175 115 101 98 46 124 285 149 202 185 196 158 107 96 103 114 118 117 94 85 87 70 57 63 64 73 73 66 70 89 87 101 59
228 172 209 240 247 125 212 282 241 193 279 250 67 77 137 78 144 115 322 419 252 193 156 120 130 131 133 132 125 96 89 91 77 56 53 61 68 75 83 72 60 68 65 66
251 268 230 203 202 233 200 171 314 270 230 111 68 251 194 170 339 350 341 304 304 227 153 173 170 152 138 144 124 111 101 91 70 56 55 54 67 63 67 74 71 68 68 82
264 181 126 96 177 155 125 165 146 252 259 307 277 185 75 203 374 353 368 325 266 211 181 195 171 146 145 153 128 121 103 94 70 61 55 61 58 65 59 74 75 74 86 93
243 311 82 105 165 53 157 61 223 308 413 336 215 167 181 296 330 286 222 258 200 170 157 159 168 170 185 150 133 113 98 81 69 65 65 67 68 62 60 70 77 78 76 89
159 280 242 217 360 206 257 261 277 198 263 341 277 242 203 177 191 105 152 143 185 139 133 177 251 207 210 158 148 126 107 91 81 75 83 80 75 73 69 72 75 67 70 83
126 369 414 209 142 101 51 110 155 294 276 233 216 179 106 16 -18 17 69 80 183 117 98 172 204 233 224 197 167 135 102 89 77 76 88 86 76 82 81 74 75 68 66 74
160 418 554 427 151 90 94 110 110 118 146 193 233 209 83 138 105 92 52 139 352 148 80 98 244 297 284 231 184 159 127 98 87 89 107 120 109 116 115 102 90 94 105 114
198 304 358 467 364 175 184 121 113 162 230 185 157 97 68 80 189 245 199 270 232 232 149 142 262 340 321 203 205 157 124 102 104 129 151 138 135 127 116 104 103 102 89 91
181 350 255 222 232 185 159 189 164 163 115 120 89 118 74 84 53 61 52 29 322 325 202 183 256 402 298 189 191 148 115 87 116 134 137 145 132 128 122 115 109 96 89 69
127 201 188 245 214 181 121 144 75 76 10 87 175 172 82 69 80 140 145 224 346 314 226 266 285 418 241 183 177 142 125 124 159 155 163 151 136 121 124 113 99 81 45 52
153 164 161 161 99 159 211 105 107 91 81 105 123 91 51 49 51 59 241 157 297 326 288 291 383 399 289 234 226 152 136 145 153 156 151 135 121 115 113 95 55 34 42 45
170 188 147 128 108 165 90 51 54 95 107 87 93 57 69 98 81 167 104 165 231 342 331 283 499 542 344 283 195 92 142 181 176 182 156 129 101 87 55 44 41 31 26 34
68 68 37 39 122 212 199 112 112 89 113 89 161 131 119 148 69 139 213 147 341 427 445 638 654 490 330 215 139 146 161 183 181 159 129 92 66 59 41 40 41 39 34 19
56 68 125 131 109 105 58 51 58 82 100 34 37 58 55 70 132 172 283 385 550 662 719 656 477 379 328 209 134 160 161 210 179 115 58 48 60 51 46 31 34 34 28 23
52 80 88 90 100 86 48 47 55 127 140 152 165 163 187 205 288 346 418 440 532 574 572 508 420 362 267 172 196 220 208 171 124 116 103 68 49 29 29 29 33 25 24 16
102 95 89 86 107 89 118 111 90 131 147 167 111 144 203 199 223 278 314 368 426 464 448 397 368 290 195 177 210 214 171 115 124 85 72 60 56 40 30 28 27 31 15 30
85 114 114 80 92 69 39 28 71 66 56 68 102 157 136 165 197 238 242 303 343 369 330 294 268 211 144 120 116 134 126 122 95 79 62 52 52 44 48 63 64 64 57 59
29 39 71 66 61 69 83 105 107 103 90 115 79 122 154 181 182 229 263 292 305 277 247 220 189 147 126 113 100 117 92 70 49 46 36 26 46 68 63 39 72 84 93 61
34 48 65 82 74 64 67 94 103 98 118 99 116 190 144 165 189 236 250 251 245 218 199 179 153 146 125 122 138 96 50 33 49 58 47 36 43 63 70 97 46 34 42 43
13 49 55 59 54 80 84 109 173 122 111 110 183 180 125 148 204 205 205 208 195 189 199 185 191 219 197 179 160 104 82 78 65 51 38 37 35 38 28 38 41 47 39 57

GFSCGP_con_3kmhel_135.txt.gz
Helicity
145 229 228 137 146 167 103 81 147 75 69 336 200 116 81 139 163 231 426 525 529 489 274 200 146 186 144 150 149 113 99 121 154 179 176 177 171 87 72 78 80 98 109 162
160 186 121 98 101 109 71 51 93 59 57 142 92 112 129 147 111 233 427 564 530 496 342 233 270 219 142 100 96 92 100 92 127 129 145 132 178 172 175 116 164 99 81 134
158 158 77 67 79 75 98 139 139 149 27 64 99 229 195 174 194 378 403 414 469 433 349 356 299 165 98 73 91 87 80 76 75 81 102 141 154 158 154 142 166 147 150 134
108 59 -7 86 84 75 138 153 145 133 156 147 151 137 190 146 143 470 495 592 647 585 507 417 263 156 121 94 99 95 75 75 78 78 103 124 97 98 65 67 91 122 114 82
207 95 81 27 156 95 165 163 188 189 216 206 279 235 174 172 276 453 575 627 565 433 432 374 239 189 160 134 117 110 88 93 86 83 85 91 101 91 72 75 89 119 110 94
111 67 136 66 84 129 136 212 251 273 276 261 306 230 83 194 194 474 538 571 573 442 334 239 218 204 152 153 127 120 99 98 78 73 84 97 104 95 75 84 79 67 60 56
153 86 81 139 229 177 203 359 399 367 399 306 208 188 211 143 91 303 520 527 470 382 282 238 254 209 209 182 152 128 119 109 101 87 74 77 84 84 73 74 71 68 59 53
187 204 177 259 288 328 320 395 473 360 305 195 120 250 202 153 199 251 324 435 406 358 242 200 197 245 246 205 175 191 129 105 96 78 56 53 60 55 58 70 67 61 64 62
267 193 244 196 363 331 358 360 368 338 206 251 286 372 241 274 367 449 510 503 430 347 258 275 289 278 258 209 199 199 164 121 104 82 59 55 54 70 68 74 54 45 50 59
284 253 178 182 204 215 300 321 337 339 384 405 405 352 372 355 375 409 479 487 415 343 279 276 267 308 251 203 194 189 174 153 121 100 84 69 72 77 80 69 65 59 52 66
141 226 251 201 259 312 343 258 354 292 338 426 399 353 253 230 269 351 343 312 303 298 254 243 265 290 240 207 205 193 186 154 132 116 79 65 72 70 71 70 62 59 61 73
138 224 145 165 182 259 340 209 272 442 421 414 406 417 201 110 131 184 224 280 310 264 205 180 271 295 228 210 208 209 179 143 92 67 75 106 150 146 119 109 115 108 129 86
280 279 296 175 260 260 328 286 212 267 352 370 510 401 173 120 136 199 282 303 346 284 196 147 246 284 294 275 220 205 153 101 90 101 161 163 162 168 160 143 137 130 151 89
440 396 287 307 435 416 339 293 251 319 377 382 394 362 229 186 284 480 449 275 266 162 167 178 288 340 363 296 229 216 165 174 212 209 180 187 191 197 192 167 150 161 171 154
296 453 411 361 364 328 314 275 206 295 244 386 272 243 141 200 186 145 148 182 135 292 326 254 405 510 452 322 233 200 177 188 201 186 191 188 217 208 184 162 141 125 134 134
-42 155 163 377 407 263 323 268 168 127 119 81 97 88 124 133 124 141 80 199 189 387 350 313 521 549 494 393 281 216 198 255 234 223 209 224 216 204 175 147 122 88 87 69
-49 -29 -95 60 144 194 243 128 158 67 13 72 60 35 140 149 70 81 140 223 354 369 420 467 615 604 517 403 273 255 307 275 236 189 185 182 167 168 149 110 85 52 48 70
12 16 8 -54 3 37 3 -15 28 65 50 44 107 154 93 57 95 133 120 145 263 358 433 548 603 589 533 433 315 356 337 321 265 229 187 157 142 121 107 74 36 32 35 29
73 75 83 79 96 138 140 76 126 113 154 168 205 171 89 112 65 139 146 159 271 389 610 673 704 706 572 436 358 376 379 288 212 197 186 159 120 84 66 84 64 41 36 28
99 156 198 170 144 89 28 85 131 30 121 26 67 103 142 100 139 100 225 326 505 622 653 720 731 603 463 334 305 363 290 229 184 162 136 106 73 63 51 33 33 39 27 30
110 152 123 131 132 131 37 -40 57 75 79 59 49 68 89 93 89 160 291 422 515 567 632 664 573 501 427 405 419 351 282 210 148 115 86 64 51 40 29 37 34 32 37 26
69 66 87 79 113 91 104 81 93 53 94 99 139 119 136 114 141 237 281 326 368 469 520 510 492 410 347 358 363 272 252 218 221 174 88 36 34 39 38 46 50 44 88 85
78 117 77 80 87 59 70 95 15 10 49 66 139 126 104 138 171 190 227 260 309 359 390 376 379 356 340 301 227 262 226 226 181 138 92 52 45 65 101 125 139 144 138 80
61 150 113 86 63 70 67 61 47 143 159 165 154 118 116 129 161 189 207 223 254 290 306 304 312 295 261 200 212 242 215 179 143 97 51 59 78 103 95 100 102 102 92 86
73 95 92 57 55 59 74 77 127 154 176 223 235 137 134 142 174 198 186 203 225 245 236 233 240 224 203 165 171 167 158 140 98 53 61 99 117 123 78 88 72 81 70 59
118 98 130 95 39 29 56 58 58 64 229 201 232 179 119 142 185 199 212 221 224 219 203 193 178 188 164 171 164 133 115 71 63 74 77 73 79 80 79 54 55 74 81 91

GFSCGP_con_3kmhel_138.txt.gz
Helicity
130 205 184 143 150 237 170 143 145 128 132 245 228 192 183 121 276 350 410 440 428 502 475 424 354 268 185 170 130 84 95 93 102 119 121 159 156 99 132 127 148 130 160 180
154 165 109 120 110 143 132 142 121 75 45 219 225 177 156 121 161 326 446 443 503 606 601 479 355 276 195 169 124 95 81 89 93 94 91 97 73 100 89 84 99 93 98 135
196 134 38 111 125 148 144 140 94 126 89 117 203 228 106 150 181 274 404 490 542 633 646 489 395 209 183 159 120 99 88 96 97 101 99 99 94 88 98 95 106 86 87 90
142 129 93 124 132 128 119 102 72 104 180 190 183 209 247 162 199 241 380 581 603 634 578 505 364 234 200 154 142 130 112 94 86 79 85 102 99 86 76 64 76 100 101 106
204 130 62 108 77 76 116 88 116 181 171 170 170 254 258 232 313 372 471 491 548 635 591 460 304 210 179 181 154 142 133 110 91 94 95 97 105 95 79 83 98 105 102 128
142 159 141 126 122 51 159 146 259 286 239 178 224 163 89 382 345 353 431 606 684 634 557 453 283 234 202 245 182 166 158 127 100 97 98 98 92 72 82 85 78 73 79 88
130 77 75 88 125 130 138 259 321 330 406 289 219 232 235 257 180 265 494 603 592 600 556 394 304 263 201 254 203 173 164 138 108 94 92 87 85 99 100 82 75 69 67 73
182 216 135 112 146 194 228 255 364 407 350 270 280 299 242 222 154 241 372 537 659 565 442 361 307 205 263 258 251 205 173 151 129 113 100 94 109 98 90 95 83 79 74 69
170 183 163 75 185 231 229 301 334 356 353 298 271 279 244 305 280 377 529 529 522 450 385 317 283 258 275 266 263 216 192 161 140 110 99 95 79 80 78 82 84 85 75 55
211 124 111 97 61 140 243 357 397 440 299 280 279 270 263 291 316 370 373 325 377 393 365 341 335 305 252 247 253 230 187 160 140 124 101 82 76 74 71 76 109 131 122 116
98 155 107 200 192 150 251 254 348 352 409 347 246 243 292 333 327 255 214 313 441 423 349 373 356 283 230 227 228 225 194 168 149 131 95 83 82 88 93 119 131 150 135 101
115 171 90 71 212 253 288 159 376 462 415 457 443 262 209 197 225 213 283 348 317 319 373 396 356 287 242 213 191 198 195 184 144 112 131 162 163 148 149 162 180 189 145 124
300 347 130 11 45 55 126 190 211 299 408 343 442 327 284 157 201 135 194 259 334 402 380 384 307 254 227 196 181 176 179 171 146 180 192 203 197 194 186 193 192 206 128 116
127 281 400 79 209 140 143 181 205 302 390 362 368 353 405 269 257 270 214 254 311 310 292 281 225 267 237 222 185 165 166 194 237 240 232 230 223 209 197 189 200 201 132 110
92 207 300 497 333 376 356 347 395 363 452 420 233 321 356 181 123 173 175 168 250 282 358 213 269 283 422 307 220 181 210 267 274 269 264 234 226 213 194 184 187 174 142 99
52 66 64 328 240 373 511 419 521 324 343 397 355 364 289 294 83 105 191 239 200 121 157 217 297 449 468 381 253 207 233 276 311 315 256 233 213 193 178 163 165 149 117 91
-67 -44 -46 34 -93 -123 289 262 230 271 114 170 295 258 245 202 157 94 188 187 186 194 233 338 478 569 560 455 290 247 278 335 360 315 249 217 195 180 163 149 137 115 95 101
-40 -23 -74 -67 -218 -174 -114 -18 48 28 55 18 25 64 63 46 49 141 207 176 166 173 242 489 603 627 573 453 359 350 343 376 338 272 222 188 180 169 148 126 89 86 82 93
76 105 40 -15 -7 -34 -67 7 24 -17 -33 25 43 80 75 115 166 142 219 137 122 240 371 576 598 623 547 534 434 449 403 366 309 277 199 162 166 155 120 77 74 72 82 88
73 125 102 92 38 -20 -16 -13 22 -44 29 66 30 64 66 68 118 93 146 128 268 418 541 620 574 608 579 513 446 441 378 353 275 198 174 156 153 126 87 71 67 59 82 68
88 98 54 90 55 -2 9 -0 67 57 26 32 26 57 58 61 74 98 149 247 352 444 539 569 553 565 531 489 457 416 365 297 215 188 177 162 131 83 67 57 94 96 87 68
105 124 94 69 60 28 12 8 37 20 51 75 90 62 73 90 124 145 143 205 317 432 473 499 560 531 502 458 438 398 332 217 196 195 185 157 111 73 60 89 93 101 88 64
89 54 43 62 49 66 52 55 67 20 35 67 99 75 41 72 73 114 179 223 274 328 391 444 512 497 427 381 400 375 266 215 214 196 168 138 106 104 107 119 133 145 105 63
95 107 73 95 111 103 65 41 82 61 66 103 140 110 98 119 137 164 186 219 256 272 322 357 416 421 404 372 332 302 218 225 209 197 160 150 138 142 148 135 134 123 94 71
77 93 84 98 85 93 83 85 89 115 142 174 167 115 115 132 144 177 189 198 204 224 284 316 337 338 338 334 292 252 241 225 204 195 181 150 131 127 119 117 99 94 71 57
128 115 134 93 57 55 84 83 58 99 130 131 213 196 153 130 142 152 174 184 200 229 256 273 277 297 303 276 260 228 218 212 198 197 192 132 139 118 115 126 122 102 85 75